<?xml version="1.0" encoding="UTF-8" standalone="no" ?>
<gpx xmlns="http://www.topografix.com/GPX/1/1" xmlns:xsi="http://www.w3.org/2001/XMLSchema-instance" xsi:schemaLocation="http://www.topografix.com/GPX/1/1 http://www.topografix.com/GPX/1/1/gpx.xsd" version="1.1" creator="VisuGPX - https://www.visugpx.com">
  <metadata>
    <name>Boucle Sarlat 2016</name>
  </metadata>
  <trk>
    <name><![CDATA[Jour 2]]></name>
    <trkseg>
      <trkpt lat="44.75037" lon="1.37417">
        <ele>175</ele>
        <time>2019-02-01T20:38:00.000Z</time>
      </trkpt>
      <trkpt lat="44.75037" lon="1.37417">
        <ele>175</ele>
        <time>2019-02-01T20:38:00.000Z</time>
      </trkpt>
      <trkpt lat="44.75054" lon="1.37337">
        <ele>168</ele>
        <time>2019-02-01T20:39:00.000Z</time>
      </trkpt>
      <trkpt lat="44.75041" lon="1.3731">
        <ele>167</ele>
        <time>2019-02-01T20:40:00.000Z</time>
      </trkpt>
      <trkpt lat="44.75074" lon="1.37256">
        <ele>161</ele>
        <time>2019-02-01T20:41:00.000Z</time>
      </trkpt>
      <trkpt lat="44.75086" lon="1.37264">
        <ele>161</ele>
        <time>2019-02-01T20:42:00.000Z</time>
      </trkpt>
      <trkpt lat="44.75077" lon="1.37326">
        <ele>166</ele>
        <time>2019-02-01T20:43:00.000Z</time>
      </trkpt>
      <trkpt lat="44.75093" lon="1.37338">
        <ele>166</ele>
        <time>2019-02-01T20:44:00.000Z</time>
      </trkpt>
      <trkpt lat="44.75091" lon="1.37308">
        <ele>164</ele>
        <time>2019-02-01T20:45:00.000Z</time>
      </trkpt>
      <trkpt lat="44.75093" lon="1.3728">
        <ele>162</ele>
        <time>2019-02-01T20:46:00.000Z</time>
      </trkpt>
      <trkpt lat="44.75114" lon="1.37285">
        <ele>162</ele>
        <time>2019-02-01T20:47:00.000Z</time>
      </trkpt>
      <trkpt lat="44.75163" lon="1.37283">
        <ele>160</ele>
        <time>2019-02-01T20:48:00.000Z</time>
      </trkpt>
      <trkpt lat="44.75219" lon="1.37284">
        <ele>166</ele>
        <time>2019-02-01T20:49:00.000Z</time>
      </trkpt>
      <trkpt lat="44.75238" lon="1.37277">
        <ele>167</ele>
        <time>2019-02-01T20:50:00.000Z</time>
      </trkpt>
      <trkpt lat="44.75229" lon="1.37269">
        <ele>165</ele>
        <time>2019-02-01T20:51:00.000Z</time>
      </trkpt>
      <trkpt lat="44.75223" lon="1.37156">
        <ele>161</ele>
        <time>2019-02-01T20:52:00.000Z</time>
      </trkpt>
      <trkpt lat="44.75226" lon="1.37092">
        <ele>158</ele>
        <time>2019-02-01T20:53:00.000Z</time>
      </trkpt>
      <trkpt lat="44.75256" lon="1.37019">
        <ele>157</ele>
        <time>2019-02-01T20:54:00.000Z</time>
      </trkpt>
      <trkpt lat="44.75285" lon="1.36941">
        <ele>156</ele>
        <time>2019-02-01T20:55:00.000Z</time>
      </trkpt>
      <trkpt lat="44.75325" lon="1.36871">
        <ele>153</ele>
        <time>2019-02-01T20:56:00.000Z</time>
      </trkpt>
      <trkpt lat="44.75372" lon="1.36776">
        <ele>154</ele>
        <time>2019-02-01T20:57:00.000Z</time>
      </trkpt>
      <trkpt lat="44.75401" lon="1.36704">
        <ele>153</ele>
        <time>2019-02-01T20:58:00.000Z</time>
      </trkpt>
      <trkpt lat="44.75439" lon="1.36636">
        <ele>154</ele>
        <time>2019-02-01T20:59:00.000Z</time>
      </trkpt>
      <trkpt lat="44.75459" lon="1.36537">
        <ele>154</ele>
        <time>2019-02-01T21:00:00.000Z</time>
      </trkpt>
      <trkpt lat="44.75446" lon="1.36422">
        <ele>149</ele>
        <time>2019-02-01T21:01:00.000Z</time>
      </trkpt>
      <trkpt lat="44.75434" lon="1.36329">
        <ele>147</ele>
        <time>2019-02-01T21:02:00.000Z</time>
      </trkpt>
      <trkpt lat="44.7543" lon="1.36237">
        <ele>145</ele>
        <time>2019-02-01T21:03:00.000Z</time>
      </trkpt>
      <trkpt lat="44.75441" lon="1.36145">
        <ele>145</ele>
        <time>2019-02-01T21:04:00.000Z</time>
      </trkpt>
      <trkpt lat="44.75447" lon="1.36092">
        <ele>144</ele>
        <time>2019-02-01T21:05:00.000Z</time>
      </trkpt>
      <trkpt lat="44.75594" lon="1.3576">
        <ele>136</ele>
        <time>2019-02-01T21:06:00.000Z</time>
      </trkpt>
      <trkpt lat="44.75653" lon="1.35672">
        <ele>134</ele>
        <time>2019-02-01T21:07:00.000Z</time>
      </trkpt>
      <trkpt lat="44.7571" lon="1.35585">
        <ele>133</ele>
        <time>2019-02-01T21:08:00.000Z</time>
      </trkpt>
      <trkpt lat="44.75769" lon="1.35523">
        <ele>132</ele>
        <time>2019-02-01T21:09:00.000Z</time>
      </trkpt>
      <trkpt lat="44.75831" lon="1.35459">
        <ele>130</ele>
        <time>2019-02-01T21:10:00.000Z</time>
      </trkpt>
      <trkpt lat="44.75859" lon="1.35411">
        <ele>128</ele>
        <time>2019-02-01T21:11:00.000Z</time>
      </trkpt>
      <trkpt lat="44.75987" lon="1.3531">
        <ele>129</ele>
        <time>2019-02-01T21:12:00.000Z</time>
      </trkpt>
      <trkpt lat="44.76041" lon="1.35215">
        <ele>129</ele>
        <time>2019-02-01T21:13:00.000Z</time>
      </trkpt>
      <trkpt lat="44.76079" lon="1.35097">
        <ele>124</ele>
        <time>2019-02-01T21:14:00.000Z</time>
      </trkpt>
      <trkpt lat="44.76086" lon="1.35041">
        <ele>122</ele>
        <time>2019-02-01T21:15:00.000Z</time>
      </trkpt>
      <trkpt lat="44.76031" lon="1.34961">
        <ele>119</ele>
        <time>2019-02-01T21:16:00.000Z</time>
      </trkpt>
      <trkpt lat="44.75957" lon="1.34869">
        <ele>121</ele>
        <time>2019-02-01T21:17:00.000Z</time>
      </trkpt>
      <trkpt lat="44.75955" lon="1.3483">
        <ele>122</ele>
        <time>2019-02-01T21:18:00.000Z</time>
      </trkpt>
      <trkpt lat="44.76021" lon="1.3477">
        <ele>121</ele>
        <time>2019-02-01T21:19:00.000Z</time>
      </trkpt>
      <trkpt lat="44.76096" lon="1.34708">
        <ele>124</ele>
        <time>2019-02-01T21:20:00.000Z</time>
      </trkpt>
      <trkpt lat="44.76175" lon="1.34656">
        <ele>124</ele>
        <time>2019-02-01T21:21:00.000Z</time>
      </trkpt>
      <trkpt lat="44.76237" lon="1.34609">
        <ele>123</ele>
        <time>2019-02-01T21:22:00.000Z</time>
      </trkpt>
      <trkpt lat="44.76276" lon="1.34505">
        <ele>125</ele>
        <time>2019-02-01T21:23:00.000Z</time>
      </trkpt>
      <trkpt lat="44.76336" lon="1.34398">
        <ele>123</ele>
        <time>2019-02-01T21:24:00.000Z</time>
      </trkpt>
      <trkpt lat="44.76382" lon="1.34322">
        <ele>122</ele>
        <time>2019-02-01T21:25:00.000Z</time>
      </trkpt>
      <trkpt lat="44.76434" lon="1.34225">
        <ele>123</ele>
        <time>2019-02-01T21:26:00.000Z</time>
      </trkpt>
      <trkpt lat="44.76512" lon="1.34156">
        <ele>121</ele>
        <time>2019-02-01T21:27:00.000Z</time>
      </trkpt>
      <trkpt lat="44.76588" lon="1.34098">
        <ele>113</ele>
        <time>2019-02-01T21:28:00.000Z</time>
      </trkpt>
      <trkpt lat="44.76637" lon="1.33989">
        <ele>112</ele>
        <time>2019-02-01T21:29:00.000Z</time>
      </trkpt>
      <trkpt lat="44.7665" lon="1.33905">
        <ele>115</ele>
        <time>2019-02-01T21:30:00.000Z</time>
      </trkpt>
      <trkpt lat="44.76694" lon="1.33813">
        <ele>114</ele>
        <time>2019-02-01T21:31:00.000Z</time>
      </trkpt>
      <trkpt lat="44.76729" lon="1.33718">
        <ele>114</ele>
        <time>2019-02-01T21:32:00.000Z</time>
      </trkpt>
      <trkpt lat="44.76764" lon="1.33646">
        <ele>114</ele>
        <time>2019-02-01T21:33:00.000Z</time>
      </trkpt>
      <trkpt lat="44.76772" lon="1.33625">
        <ele>114</ele>
        <time>2019-02-01T21:34:00.000Z</time>
      </trkpt>
      <trkpt lat="44.76775" lon="1.33611">
        <ele>114</ele>
        <time>2019-02-01T21:35:00.000Z</time>
      </trkpt>
      <trkpt lat="44.76761" lon="1.33583">
        <ele>117</ele>
        <time>2019-02-01T21:36:00.000Z</time>
      </trkpt>
      <trkpt lat="44.76756" lon="1.33565">
        <ele>117</ele>
        <time>2019-02-01T21:37:00.000Z</time>
      </trkpt>
      <trkpt lat="44.76747" lon="1.33546">
        <ele>118</ele>
        <time>2019-02-01T21:38:00.000Z</time>
      </trkpt>
      <trkpt lat="44.76744" lon="1.33531">
        <ele>118</ele>
        <time>2019-02-01T21:39:00.000Z</time>
      </trkpt>
      <trkpt lat="44.76738" lon="1.335">
        <ele>118</ele>
        <time>2019-02-01T21:40:00.000Z</time>
      </trkpt>
      <trkpt lat="44.76733" lon="1.3344">
        <ele>117</ele>
        <time>2019-02-01T21:41:00.000Z</time>
      </trkpt>
      <trkpt lat="44.76741" lon="1.33392">
        <ele>116</ele>
        <time>2019-02-01T21:42:00.000Z</time>
      </trkpt>
      <trkpt lat="44.76743" lon="1.3336">
        <ele>117</ele>
        <time>2019-02-01T21:43:00.000Z</time>
      </trkpt>
      <trkpt lat="44.76744" lon="1.33331">
        <ele>118</ele>
        <time>2019-02-01T21:44:00.000Z</time>
      </trkpt>
      <trkpt lat="44.76755" lon="1.33303">
        <ele>118</ele>
        <time>2019-02-01T21:45:00.000Z</time>
      </trkpt>
      <trkpt lat="44.76768" lon="1.33263">
        <ele>117</ele>
        <time>2019-02-01T21:46:00.000Z</time>
      </trkpt>
      <trkpt lat="44.76782" lon="1.33217">
        <ele>116</ele>
        <time>2019-02-01T21:47:00.000Z</time>
      </trkpt>
      <trkpt lat="44.76783" lon="1.33186">
        <ele>116</ele>
        <time>2019-02-01T21:48:00.000Z</time>
      </trkpt>
      <trkpt lat="44.76787" lon="1.33154">
        <ele>115</ele>
        <time>2019-02-01T21:49:00.000Z</time>
      </trkpt>
      <trkpt lat="44.76792" lon="1.33126">
        <ele>114</ele>
        <time>2019-02-01T21:50:00.000Z</time>
      </trkpt>
      <trkpt lat="44.768" lon="1.3309">
        <ele>112</ele>
        <time>2019-02-01T21:51:00.000Z</time>
      </trkpt>
      <trkpt lat="44.76814" lon="1.3306">
        <ele>114</ele>
        <time>2019-02-01T21:52:00.000Z</time>
      </trkpt>
      <trkpt lat="44.76833" lon="1.33035">
        <ele>116</ele>
        <time>2019-02-01T21:53:00.000Z</time>
      </trkpt>
      <trkpt lat="44.76861" lon="1.33005">
        <ele>116</ele>
        <time>2019-02-01T21:54:00.000Z</time>
      </trkpt>
      <trkpt lat="44.76883" lon="1.32984">
        <ele>115</ele>
        <time>2019-02-01T21:55:00.000Z</time>
      </trkpt>
      <trkpt lat="44.76897" lon="1.32955">
        <ele>116</ele>
        <time>2019-02-01T21:56:00.000Z</time>
      </trkpt>
      <trkpt lat="44.76915" lon="1.32917">
        <ele>116</ele>
        <time>2019-02-01T21:57:00.000Z</time>
      </trkpt>
      <trkpt lat="44.76939" lon="1.32884">
        <ele>116</ele>
        <time>2019-02-01T21:58:00.000Z</time>
      </trkpt>
      <trkpt lat="44.76961" lon="1.32865">
        <ele>114</ele>
        <time>2019-02-01T21:59:00.000Z</time>
      </trkpt>
      <trkpt lat="44.76986" lon="1.32837">
        <ele>111</ele>
        <time>2019-02-01T22:00:00.000Z</time>
      </trkpt>
      <trkpt lat="44.76993" lon="1.32804">
        <ele>112</ele>
        <time>2019-02-01T22:01:00.000Z</time>
      </trkpt>
      <trkpt lat="44.76987" lon="1.3278">
        <ele>113</ele>
        <time>2019-02-01T22:02:00.000Z</time>
      </trkpt>
      <trkpt lat="44.76982" lon="1.32744">
        <ele>115</ele>
        <time>2019-02-01T22:03:00.000Z</time>
      </trkpt>
      <trkpt lat="44.76983" lon="1.32713">
        <ele>116</ele>
        <time>2019-02-01T22:04:00.000Z</time>
      </trkpt>
      <trkpt lat="44.76983" lon="1.32682">
        <ele>118</ele>
        <time>2019-02-01T22:05:00.000Z</time>
      </trkpt>
      <trkpt lat="44.7698" lon="1.32663">
        <ele>118</ele>
        <time>2019-02-01T22:06:00.000Z</time>
      </trkpt>
      <trkpt lat="44.76974" lon="1.3265">
        <ele>119</ele>
        <time>2019-02-01T22:07:00.000Z</time>
      </trkpt>
      <trkpt lat="44.76969" lon="1.32639">
        <ele>120</ele>
        <time>2019-02-01T22:08:00.000Z</time>
      </trkpt>
      <trkpt lat="44.76965" lon="1.32627">
        <ele>121</ele>
        <time>2019-02-01T22:09:00.000Z</time>
      </trkpt>
      <trkpt lat="44.76966" lon="1.32613">
        <ele>123</ele>
        <time>2019-02-01T22:10:00.000Z</time>
      </trkpt>
      <trkpt lat="44.76973" lon="1.32604">
        <ele>124</ele>
        <time>2019-02-01T22:11:00.000Z</time>
      </trkpt>
      <trkpt lat="44.7698" lon="1.32596">
        <ele>125</ele>
        <time>2019-02-01T22:12:00.000Z</time>
      </trkpt>
      <trkpt lat="44.76987" lon="1.32585">
        <ele>126</ele>
        <time>2019-02-01T22:13:00.000Z</time>
      </trkpt>
      <trkpt lat="44.76995" lon="1.32575">
        <ele>127</ele>
        <time>2019-02-01T22:14:00.000Z</time>
      </trkpt>
      <trkpt lat="44.77002" lon="1.32561">
        <ele>128</ele>
        <time>2019-02-01T22:15:00.000Z</time>
      </trkpt>
      <trkpt lat="44.77009" lon="1.32551">
        <ele>129</ele>
        <time>2019-02-01T22:16:00.000Z</time>
      </trkpt>
      <trkpt lat="44.77015" lon="1.32539">
        <ele>130</ele>
        <time>2019-02-01T22:17:00.000Z</time>
      </trkpt>
      <trkpt lat="44.7703" lon="1.32519">
        <ele>131</ele>
        <time>2019-02-01T22:18:00.000Z</time>
      </trkpt>
      <trkpt lat="44.77039" lon="1.32512">
        <ele>131</ele>
        <time>2019-02-01T22:19:00.000Z</time>
      </trkpt>
      <trkpt lat="44.77046" lon="1.32504">
        <ele>131</ele>
        <time>2019-02-01T22:20:00.000Z</time>
      </trkpt>
      <trkpt lat="44.77064" lon="1.32489">
        <ele>131</ele>
        <time>2019-02-01T22:21:00.000Z</time>
      </trkpt>
      <trkpt lat="44.77078" lon="1.32478">
        <ele>131</ele>
        <time>2019-02-01T22:22:00.000Z</time>
      </trkpt>
      <trkpt lat="44.7709" lon="1.32468">
        <ele>130</ele>
        <time>2019-02-01T22:23:00.000Z</time>
      </trkpt>
      <trkpt lat="44.77102" lon="1.32453">
        <ele>129</ele>
        <time>2019-02-01T22:24:00.000Z</time>
      </trkpt>
      <trkpt lat="44.77119" lon="1.32432">
        <ele>127</ele>
        <time>2019-02-01T22:25:00.000Z</time>
      </trkpt>
      <trkpt lat="44.77142" lon="1.3241">
        <ele>126</ele>
        <time>2019-02-01T22:26:00.000Z</time>
      </trkpt>
      <trkpt lat="44.7718" lon="1.32417">
        <ele>124</ele>
        <time>2019-02-01T22:27:00.000Z</time>
      </trkpt>
      <trkpt lat="44.77214" lon="1.3242">
        <ele>122</ele>
        <time>2019-02-01T22:28:00.000Z</time>
      </trkpt>
      <trkpt lat="44.77236" lon="1.32434">
        <ele>122</ele>
        <time>2019-02-01T22:29:00.000Z</time>
      </trkpt>
      <trkpt lat="44.77257" lon="1.32467">
        <ele>123</ele>
        <time>2019-02-01T22:30:00.000Z</time>
      </trkpt>
      <trkpt lat="44.77278" lon="1.32483">
        <ele>122</ele>
        <time>2019-02-01T22:31:00.000Z</time>
      </trkpt>
      <trkpt lat="44.77298" lon="1.32477">
        <ele>122</ele>
        <time>2019-02-01T22:32:00.000Z</time>
      </trkpt>
      <trkpt lat="44.77324" lon="1.32494">
        <ele>120</ele>
        <time>2019-02-01T22:33:00.000Z</time>
      </trkpt>
      <trkpt lat="44.77358" lon="1.32491">
        <ele>117</ele>
        <time>2019-02-01T22:34:00.000Z</time>
      </trkpt>
      <trkpt lat="44.77397" lon="1.32492">
        <ele>111</ele>
        <time>2019-02-01T22:35:00.000Z</time>
      </trkpt>
      <trkpt lat="44.77427" lon="1.32492">
        <ele>108</ele>
        <time>2019-02-01T22:36:00.000Z</time>
      </trkpt>
      <trkpt lat="44.77453" lon="1.32487">
        <ele>107</ele>
        <time>2019-02-01T22:37:00.000Z</time>
      </trkpt>
      <trkpt lat="44.7747" lon="1.32495">
        <ele>106</ele>
        <time>2019-02-01T22:38:00.000Z</time>
      </trkpt>
      <trkpt lat="44.77477" lon="1.32527">
        <ele>105</ele>
        <time>2019-02-01T22:39:00.000Z</time>
      </trkpt>
      <trkpt lat="44.77491" lon="1.32559">
        <ele>105</ele>
        <time>2019-02-01T22:40:00.000Z</time>
      </trkpt>
      <trkpt lat="44.77498" lon="1.32576">
        <ele>106</ele>
        <time>2019-02-01T22:41:00.000Z</time>
      </trkpt>
      <trkpt lat="44.77512" lon="1.32574">
        <ele>107</ele>
        <time>2019-02-01T22:42:00.000Z</time>
      </trkpt>
      <trkpt lat="44.7752" lon="1.32564">
        <ele>107</ele>
        <time>2019-02-01T22:43:00.000Z</time>
      </trkpt>
      <trkpt lat="44.77538" lon="1.32558">
        <ele>108</ele>
        <time>2019-02-01T22:44:00.000Z</time>
      </trkpt>
      <trkpt lat="44.77553" lon="1.32558">
        <ele>109</ele>
        <time>2019-02-01T22:45:00.000Z</time>
      </trkpt>
      <trkpt lat="44.77572" lon="1.32541">
        <ele>109</ele>
        <time>2019-02-01T22:46:00.000Z</time>
      </trkpt>
      <trkpt lat="44.77645" lon="1.32476">
        <ele>111</ele>
        <time>2019-02-01T22:47:00.000Z</time>
      </trkpt>
      <trkpt lat="44.77664" lon="1.32449">
        <ele>109</ele>
        <time>2019-02-01T22:48:00.000Z</time>
      </trkpt>
      <trkpt lat="44.77681" lon="1.32426">
        <ele>109</ele>
        <time>2019-02-01T22:49:00.000Z</time>
      </trkpt>
      <trkpt lat="44.77709" lon="1.32397">
        <ele>110</ele>
        <time>2019-02-01T22:50:00.000Z</time>
      </trkpt>
      <trkpt lat="44.77725" lon="1.32384">
        <ele>110</ele>
        <time>2019-02-01T22:51:00.000Z</time>
      </trkpt>
      <trkpt lat="44.77749" lon="1.32361">
        <ele>109</ele>
        <time>2019-02-01T22:52:00.000Z</time>
      </trkpt>
      <trkpt lat="44.77775" lon="1.32343">
        <ele>107</ele>
        <time>2019-02-01T22:53:00.000Z</time>
      </trkpt>
      <trkpt lat="44.77805" lon="1.32325">
        <ele>106</ele>
        <time>2019-02-01T22:54:00.000Z</time>
      </trkpt>
      <trkpt lat="44.77832" lon="1.32307">
        <ele>106</ele>
        <time>2019-02-01T22:55:00.000Z</time>
      </trkpt>
      <trkpt lat="44.77862" lon="1.32287">
        <ele>105</ele>
        <time>2019-02-01T22:56:00.000Z</time>
      </trkpt>
      <trkpt lat="44.77894" lon="1.32267">
        <ele>104</ele>
        <time>2019-02-01T22:57:00.000Z</time>
      </trkpt>
      <trkpt lat="44.77923" lon="1.32251">
        <ele>103</ele>
        <time>2019-02-01T22:58:00.000Z</time>
      </trkpt>
      <trkpt lat="44.77946" lon="1.32234">
        <ele>103</ele>
        <time>2019-02-01T22:59:00.000Z</time>
      </trkpt>
      <trkpt lat="44.77972" lon="1.32219">
        <ele>103</ele>
        <time>2019-02-01T23:00:00.000Z</time>
      </trkpt>
      <trkpt lat="44.77996" lon="1.32203">
        <ele>103</ele>
        <time>2019-02-01T23:01:00.000Z</time>
      </trkpt>
      <trkpt lat="44.78005" lon="1.32184">
        <ele>102</ele>
        <time>2019-02-01T23:02:00.000Z</time>
      </trkpt>
      <trkpt lat="44.78" lon="1.32173">
        <ele>101</ele>
        <time>2019-02-01T23:03:00.000Z</time>
      </trkpt>
      <trkpt lat="44.77994" lon="1.3216">
        <ele>100</ele>
        <time>2019-02-01T23:04:00.000Z</time>
      </trkpt>
      <trkpt lat="44.7798" lon="1.32126">
        <ele>99</ele>
        <time>2019-02-01T23:05:00.000Z</time>
      </trkpt>
      <trkpt lat="44.7796" lon="1.32108">
        <ele>99</ele>
        <time>2019-02-01T23:06:00.000Z</time>
      </trkpt>
      <trkpt lat="44.77936" lon="1.32095">
        <ele>99</ele>
        <time>2019-02-01T23:07:00.000Z</time>
      </trkpt>
      <trkpt lat="44.77915" lon="1.32073">
        <ele>101</ele>
        <time>2019-02-01T23:08:00.000Z</time>
      </trkpt>
      <trkpt lat="44.77933" lon="1.32056">
        <ele>102</ele>
        <time>2019-02-01T23:09:00.000Z</time>
      </trkpt>
      <trkpt lat="44.7796" lon="1.32033">
        <ele>103</ele>
        <time>2019-02-01T23:10:00.000Z</time>
      </trkpt>
      <trkpt lat="44.77974" lon="1.3201">
        <ele>103</ele>
        <time>2019-02-01T23:11:00.000Z</time>
      </trkpt>
      <trkpt lat="44.7799" lon="1.3198">
        <ele>103</ele>
        <time>2019-02-01T23:12:00.000Z</time>
      </trkpt>
      <trkpt lat="44.78006" lon="1.31943">
        <ele>104</ele>
        <time>2019-02-01T23:13:00.000Z</time>
      </trkpt>
      <trkpt lat="44.78014" lon="1.31915">
        <ele>104</ele>
        <time>2019-02-01T23:14:00.000Z</time>
      </trkpt>
      <trkpt lat="44.78023" lon="1.31889">
        <ele>105</ele>
        <time>2019-02-01T23:15:00.000Z</time>
      </trkpt>
      <trkpt lat="44.78035" lon="1.31862">
        <ele>105</ele>
        <time>2019-02-01T23:16:00.000Z</time>
      </trkpt>
      <trkpt lat="44.78045" lon="1.31836">
        <ele>105</ele>
        <time>2019-02-01T23:17:00.000Z</time>
      </trkpt>
      <trkpt lat="44.78055" lon="1.31808">
        <ele>104</ele>
        <time>2019-02-01T23:18:00.000Z</time>
      </trkpt>
      <trkpt lat="44.78065" lon="1.31793">
        <ele>103</ele>
        <time>2019-02-01T23:19:00.000Z</time>
      </trkpt>
      <trkpt lat="44.78086" lon="1.3176">
        <ele>102</ele>
        <time>2019-02-01T23:20:00.000Z</time>
      </trkpt>
      <trkpt lat="44.78113" lon="1.31719">
        <ele>100</ele>
        <time>2019-02-01T23:21:00.000Z</time>
      </trkpt>
      <trkpt lat="44.78131" lon="1.31681">
        <ele>100</ele>
        <time>2019-02-01T23:22:00.000Z</time>
      </trkpt>
      <trkpt lat="44.78147" lon="1.31671">
        <ele>99</ele>
        <time>2019-02-01T23:23:00.000Z</time>
      </trkpt>
      <trkpt lat="44.78174" lon="1.31679">
        <ele>99</ele>
        <time>2019-02-01T23:24:00.000Z</time>
      </trkpt>
      <trkpt lat="44.78208" lon="1.31653">
        <ele>99</ele>
        <time>2019-02-01T23:25:00.000Z</time>
      </trkpt>
      <trkpt lat="44.78234" lon="1.31608">
        <ele>101</ele>
        <time>2019-02-01T23:26:00.000Z</time>
      </trkpt>
      <trkpt lat="44.78254" lon="1.31568">
        <ele>104</ele>
        <time>2019-02-01T23:27:00.000Z</time>
      </trkpt>
      <trkpt lat="44.78272" lon="1.31535">
        <ele>106</ele>
        <time>2019-02-01T23:28:00.000Z</time>
      </trkpt>
      <trkpt lat="44.78286" lon="1.31499">
        <ele>106</ele>
        <time>2019-02-01T23:29:00.000Z</time>
      </trkpt>
      <trkpt lat="44.78302" lon="1.31453">
        <ele>103</ele>
        <time>2019-02-01T23:30:00.000Z</time>
      </trkpt>
      <trkpt lat="44.7832" lon="1.31411">
        <ele>101</ele>
        <time>2019-02-01T23:31:00.000Z</time>
      </trkpt>
      <trkpt lat="44.78336" lon="1.3138">
        <ele>103</ele>
        <time>2019-02-01T23:32:00.000Z</time>
      </trkpt>
      <trkpt lat="44.78356" lon="1.31347">
        <ele>105</ele>
        <time>2019-02-01T23:33:00.000Z</time>
      </trkpt>
      <trkpt lat="44.78382" lon="1.31329">
        <ele>106</ele>
        <time>2019-02-01T23:34:00.000Z</time>
      </trkpt>
      <trkpt lat="44.78422" lon="1.31302">
        <ele>109</ele>
        <time>2019-02-01T23:35:00.000Z</time>
      </trkpt>
      <trkpt lat="44.78452" lon="1.31268">
        <ele>110</ele>
        <time>2019-02-01T23:36:00.000Z</time>
      </trkpt>
      <trkpt lat="44.78472" lon="1.31234">
        <ele>111</ele>
        <time>2019-02-01T23:37:00.000Z</time>
      </trkpt>
      <trkpt lat="44.78495" lon="1.31205">
        <ele>112</ele>
        <time>2019-02-01T23:38:00.000Z</time>
      </trkpt>
      <trkpt lat="44.78526" lon="1.31185">
        <ele>112</ele>
        <time>2019-02-01T23:39:00.000Z</time>
      </trkpt>
      <trkpt lat="44.78557" lon="1.31165">
        <ele>111</ele>
        <time>2019-02-01T23:40:00.000Z</time>
      </trkpt>
      <trkpt lat="44.78583" lon="1.31157">
        <ele>110</ele>
        <time>2019-02-01T23:41:00.000Z</time>
      </trkpt>
      <trkpt lat="44.78613" lon="1.31158">
        <ele>108</ele>
        <time>2019-02-01T23:42:00.000Z</time>
      </trkpt>
      <trkpt lat="44.78645" lon="1.31159">
        <ele>107</ele>
        <time>2019-02-01T23:43:00.000Z</time>
      </trkpt>
      <trkpt lat="44.78676" lon="1.31156">
        <ele>106</ele>
        <time>2019-02-01T23:44:00.000Z</time>
      </trkpt>
      <trkpt lat="44.78704" lon="1.31153">
        <ele>105</ele>
        <time>2019-02-01T23:45:00.000Z</time>
      </trkpt>
      <trkpt lat="44.78735" lon="1.31147">
        <ele>104</ele>
        <time>2019-02-01T23:46:00.000Z</time>
      </trkpt>
      <trkpt lat="44.78767" lon="1.3114">
        <ele>103</ele>
        <time>2019-02-01T23:47:00.000Z</time>
      </trkpt>
      <trkpt lat="44.78785" lon="1.31137">
        <ele>101</ele>
        <time>2019-02-01T23:48:00.000Z</time>
      </trkpt>
      <trkpt lat="44.788" lon="1.31127">
        <ele>100</ele>
        <time>2019-02-01T23:49:00.000Z</time>
      </trkpt>
      <trkpt lat="44.78813" lon="1.31109">
        <ele>99</ele>
        <time>2019-02-01T23:50:00.000Z</time>
      </trkpt>
      <trkpt lat="44.78828" lon="1.31091">
        <ele>98</ele>
        <time>2019-02-01T23:51:00.000Z</time>
      </trkpt>
      <trkpt lat="44.78849" lon="1.3107">
        <ele>97</ele>
        <time>2019-02-01T23:52:00.000Z</time>
      </trkpt>
      <trkpt lat="44.78868" lon="1.31043">
        <ele>98</ele>
        <time>2019-02-01T23:53:00.000Z</time>
      </trkpt>
      <trkpt lat="44.78881" lon="1.31013">
        <ele>98</ele>
        <time>2019-02-01T23:54:00.000Z</time>
      </trkpt>
      <trkpt lat="44.78894" lon="1.30985">
        <ele>100</ele>
        <time>2019-02-01T23:55:00.000Z</time>
      </trkpt>
      <trkpt lat="44.78903" lon="1.30966">
        <ele>102</ele>
        <time>2019-02-01T23:56:00.000Z</time>
      </trkpt>
      <trkpt lat="44.78928" lon="1.30905">
        <ele>108</ele>
        <time>2019-02-01T23:57:00.000Z</time>
      </trkpt>
      <trkpt lat="44.78938" lon="1.30881">
        <ele>109</ele>
        <time>2019-02-01T23:58:00.000Z</time>
      </trkpt>
      <trkpt lat="44.7896" lon="1.30826">
        <ele>110</ele>
        <time>2019-02-01T23:59:00.000Z</time>
      </trkpt>
      <trkpt lat="44.78974" lon="1.30791">
        <ele>107</ele>
        <time>2019-02-02T00:00:00.000Z</time>
      </trkpt>
      <trkpt lat="44.78985" lon="1.30758">
        <ele>105</ele>
        <time>2019-02-02T00:01:00.000Z</time>
      </trkpt>
      <trkpt lat="44.78986" lon="1.30702">
        <ele>103</ele>
        <time>2019-02-02T00:02:00.000Z</time>
      </trkpt>
      <trkpt lat="44.78974" lon="1.30645">
        <ele>102</ele>
        <time>2019-02-02T00:03:00.000Z</time>
      </trkpt>
      <trkpt lat="44.78949" lon="1.30591">
        <ele>101</ele>
        <time>2019-02-02T00:04:00.000Z</time>
      </trkpt>
      <trkpt lat="44.78914" lon="1.30555">
        <ele>101</ele>
        <time>2019-02-02T00:05:00.000Z</time>
      </trkpt>
      <trkpt lat="44.7891" lon="1.30489">
        <ele>96</ele>
        <time>2019-02-02T00:06:00.000Z</time>
      </trkpt>
      <trkpt lat="44.78919" lon="1.30425">
        <ele>94</ele>
        <time>2019-02-02T00:07:00.000Z</time>
      </trkpt>
      <trkpt lat="44.78923" lon="1.30382">
        <ele>95</ele>
        <time>2019-02-02T00:08:00.000Z</time>
      </trkpt>
      <trkpt lat="44.78925" lon="1.30344">
        <ele>96</ele>
        <time>2019-02-02T00:09:00.000Z</time>
      </trkpt>
      <trkpt lat="44.78924" lon="1.30308">
        <ele>98</ele>
        <time>2019-02-02T00:10:00.000Z</time>
      </trkpt>
      <trkpt lat="44.78922" lon="1.30283">
        <ele>100</ele>
        <time>2019-02-02T00:11:00.000Z</time>
      </trkpt>
      <trkpt lat="44.78918" lon="1.30252">
        <ele>102</ele>
        <time>2019-02-02T00:12:00.000Z</time>
      </trkpt>
      <trkpt lat="44.78914" lon="1.30229">
        <ele>102</ele>
        <time>2019-02-02T00:13:00.000Z</time>
      </trkpt>
      <trkpt lat="44.7891" lon="1.30205">
        <ele>102</ele>
        <time>2019-02-02T00:14:00.000Z</time>
      </trkpt>
      <trkpt lat="44.78907" lon="1.30177">
        <ele>102</ele>
        <time>2019-02-02T00:15:00.000Z</time>
      </trkpt>
      <trkpt lat="44.78904" lon="1.3015">
        <ele>103</ele>
        <time>2019-02-02T00:16:00.000Z</time>
      </trkpt>
      <trkpt lat="44.78899" lon="1.30104">
        <ele>103</ele>
        <time>2019-02-02T00:17:00.000Z</time>
      </trkpt>
      <trkpt lat="44.78896" lon="1.30085">
        <ele>104</ele>
        <time>2019-02-02T00:18:00.000Z</time>
      </trkpt>
      <trkpt lat="44.78892" lon="1.30066">
        <ele>104</ele>
        <time>2019-02-02T00:19:00.000Z</time>
      </trkpt>
      <trkpt lat="44.7889" lon="1.30042">
        <ele>105</ele>
        <time>2019-02-02T00:20:00.000Z</time>
      </trkpt>
      <trkpt lat="44.7889" lon="1.30021">
        <ele>105</ele>
        <time>2019-02-02T00:21:00.000Z</time>
      </trkpt>
      <trkpt lat="44.78892" lon="1.29994">
        <ele>105</ele>
        <time>2019-02-02T00:22:00.000Z</time>
      </trkpt>
      <trkpt lat="44.78893" lon="1.2994">
        <ele>104</ele>
        <time>2019-02-02T00:23:00.000Z</time>
      </trkpt>
      <trkpt lat="44.78893" lon="1.2991">
        <ele>104</ele>
        <time>2019-02-02T00:24:00.000Z</time>
      </trkpt>
      <trkpt lat="44.78892" lon="1.29878">
        <ele>105</ele>
        <time>2019-02-02T00:25:00.000Z</time>
      </trkpt>
      <trkpt lat="44.78892" lon="1.29845">
        <ele>105</ele>
        <time>2019-02-02T00:26:00.000Z</time>
      </trkpt>
      <trkpt lat="44.78893" lon="1.29812">
        <ele>106</ele>
        <time>2019-02-02T00:27:00.000Z</time>
      </trkpt>
      <trkpt lat="44.78895" lon="1.29784">
        <ele>106</ele>
        <time>2019-02-02T00:28:00.000Z</time>
      </trkpt>
      <trkpt lat="44.78899" lon="1.29752">
        <ele>105</ele>
        <time>2019-02-02T00:29:00.000Z</time>
      </trkpt>
      <trkpt lat="44.78904" lon="1.29725">
        <ele>106</ele>
        <time>2019-02-02T00:30:00.000Z</time>
      </trkpt>
      <trkpt lat="44.78917" lon="1.29661">
        <ele>106</ele>
        <time>2019-02-02T00:31:00.000Z</time>
      </trkpt>
      <trkpt lat="44.78921" lon="1.29636">
        <ele>106</ele>
        <time>2019-02-02T00:32:00.000Z</time>
      </trkpt>
      <trkpt lat="44.78928" lon="1.29607">
        <ele>106</ele>
        <time>2019-02-02T00:33:00.000Z</time>
      </trkpt>
      <trkpt lat="44.78934" lon="1.29582">
        <ele>105</ele>
        <time>2019-02-02T00:34:00.000Z</time>
      </trkpt>
      <trkpt lat="44.78942" lon="1.29547">
        <ele>104</ele>
        <time>2019-02-02T00:35:00.000Z</time>
      </trkpt>
      <trkpt lat="44.78955" lon="1.29506">
        <ele>103</ele>
        <time>2019-02-02T00:36:00.000Z</time>
      </trkpt>
      <trkpt lat="44.78963" lon="1.2947">
        <ele>104</ele>
        <time>2019-02-02T00:37:00.000Z</time>
      </trkpt>
      <trkpt lat="44.78979" lon="1.29389">
        <ele>105</ele>
        <time>2019-02-02T00:38:00.000Z</time>
      </trkpt>
      <trkpt lat="44.78989" lon="1.29354">
        <ele>105</ele>
        <time>2019-02-02T00:39:00.000Z</time>
      </trkpt>
      <trkpt lat="44.79011" lon="1.29343">
        <ele>103</ele>
        <time>2019-02-02T00:40:00.000Z</time>
      </trkpt>
      <trkpt lat="44.7904" lon="1.29343">
        <ele>101</ele>
        <time>2019-02-02T00:41:00.000Z</time>
      </trkpt>
      <trkpt lat="44.79074" lon="1.29354">
        <ele>99</ele>
        <time>2019-02-02T00:42:00.000Z</time>
      </trkpt>
      <trkpt lat="44.79111" lon="1.29368">
        <ele>99</ele>
        <time>2019-02-02T00:43:00.000Z</time>
      </trkpt>
      <trkpt lat="44.79147" lon="1.29384">
        <ele>99</ele>
        <time>2019-02-02T00:44:00.000Z</time>
      </trkpt>
      <trkpt lat="44.79175" lon="1.29394">
        <ele>99</ele>
        <time>2019-02-02T00:45:00.000Z</time>
      </trkpt>
      <trkpt lat="44.792" lon="1.294">
        <ele>101</ele>
        <time>2019-02-02T00:46:00.000Z</time>
      </trkpt>
      <trkpt lat="44.7925" lon="1.29403">
        <ele>103</ele>
        <time>2019-02-02T00:47:00.000Z</time>
      </trkpt>
      <trkpt lat="44.79276" lon="1.29406">
        <ele>104</ele>
        <time>2019-02-02T00:48:00.000Z</time>
      </trkpt>
      <trkpt lat="44.79329" lon="1.29416">
        <ele>107</ele>
        <time>2019-02-02T00:49:00.000Z</time>
      </trkpt>
      <trkpt lat="44.7935" lon="1.29421">
        <ele>107</ele>
        <time>2019-02-02T00:50:00.000Z</time>
      </trkpt>
      <trkpt lat="44.79369" lon="1.29425">
        <ele>108</ele>
        <time>2019-02-02T00:51:00.000Z</time>
      </trkpt>
      <trkpt lat="44.79394" lon="1.29431">
        <ele>109</ele>
        <time>2019-02-02T00:52:00.000Z</time>
      </trkpt>
      <trkpt lat="44.79415" lon="1.29434">
        <ele>109</ele>
        <time>2019-02-02T00:53:00.000Z</time>
      </trkpt>
      <trkpt lat="44.7944" lon="1.29439">
        <ele>107</ele>
        <time>2019-02-02T00:54:00.000Z</time>
      </trkpt>
      <trkpt lat="44.7946" lon="1.29446">
        <ele>106</ele>
        <time>2019-02-02T00:55:00.000Z</time>
      </trkpt>
      <trkpt lat="44.79489" lon="1.29452">
        <ele>104</ele>
        <time>2019-02-02T00:56:00.000Z</time>
      </trkpt>
      <trkpt lat="44.79527" lon="1.29459">
        <ele>102</ele>
        <time>2019-02-02T00:57:00.000Z</time>
      </trkpt>
      <trkpt lat="44.79559" lon="1.29463">
        <ele>101</ele>
        <time>2019-02-02T00:58:00.000Z</time>
      </trkpt>
      <trkpt lat="44.796" lon="1.29469">
        <ele>100</ele>
        <time>2019-02-02T00:59:00.000Z</time>
      </trkpt>
      <trkpt lat="44.7963" lon="1.29472">
        <ele>99</ele>
        <time>2019-02-02T01:00:00.000Z</time>
      </trkpt>
      <trkpt lat="44.79667" lon="1.29472">
        <ele>98</ele>
        <time>2019-02-02T01:01:00.000Z</time>
      </trkpt>
      <trkpt lat="44.79697" lon="1.29464">
        <ele>98</ele>
        <time>2019-02-02T01:02:00.000Z</time>
      </trkpt>
      <trkpt lat="44.7973" lon="1.29439">
        <ele>97</ele>
        <time>2019-02-02T01:03:00.000Z</time>
      </trkpt>
      <trkpt lat="44.79762" lon="1.29413">
        <ele>96</ele>
        <time>2019-02-02T01:04:00.000Z</time>
      </trkpt>
      <trkpt lat="44.79807" lon="1.29388">
        <ele>96</ele>
        <time>2019-02-02T01:05:00.000Z</time>
      </trkpt>
      <trkpt lat="44.79837" lon="1.29363">
        <ele>95</ele>
        <time>2019-02-02T01:06:00.000Z</time>
      </trkpt>
      <trkpt lat="44.79867" lon="1.29355">
        <ele>95</ele>
        <time>2019-02-02T01:07:00.000Z</time>
      </trkpt>
      <trkpt lat="44.79897" lon="1.29361">
        <ele>96</ele>
        <time>2019-02-02T01:08:00.000Z</time>
      </trkpt>
      <trkpt lat="44.79931" lon="1.29368">
        <ele>97</ele>
        <time>2019-02-02T01:09:00.000Z</time>
      </trkpt>
      <trkpt lat="44.7996" lon="1.2938">
        <ele>97</ele>
        <time>2019-02-02T01:10:00.000Z</time>
      </trkpt>
      <trkpt lat="44.79985" lon="1.29387">
        <ele>98</ele>
        <time>2019-02-02T01:11:00.000Z</time>
      </trkpt>
      <trkpt lat="44.80014" lon="1.2939">
        <ele>97</ele>
        <time>2019-02-02T01:12:00.000Z</time>
      </trkpt>
      <trkpt lat="44.80048" lon="1.29397">
        <ele>95</ele>
        <time>2019-02-02T01:13:00.000Z</time>
      </trkpt>
      <trkpt lat="44.80077" lon="1.29402">
        <ele>94</ele>
        <time>2019-02-02T01:14:00.000Z</time>
      </trkpt>
      <trkpt lat="44.80105" lon="1.29409">
        <ele>93</ele>
        <time>2019-02-02T01:15:00.000Z</time>
      </trkpt>
      <trkpt lat="44.80176" lon="1.2942">
        <ele>93</ele>
        <time>2019-02-02T01:16:00.000Z</time>
      </trkpt>
      <trkpt lat="44.80211" lon="1.2942">
        <ele>92</ele>
        <time>2019-02-02T01:17:00.000Z</time>
      </trkpt>
      <trkpt lat="44.80253" lon="1.29414">
        <ele>91</ele>
        <time>2019-02-02T01:18:00.000Z</time>
      </trkpt>
      <trkpt lat="44.80287" lon="1.29397">
        <ele>92</ele>
        <time>2019-02-02T01:19:00.000Z</time>
      </trkpt>
      <trkpt lat="44.80315" lon="1.29389">
        <ele>93</ele>
        <time>2019-02-02T01:20:00.000Z</time>
      </trkpt>
      <trkpt lat="44.80338" lon="1.29393">
        <ele>93</ele>
        <time>2019-02-02T01:21:00.000Z</time>
      </trkpt>
      <trkpt lat="44.80375" lon="1.29404">
        <ele>93</ele>
        <time>2019-02-02T01:22:00.000Z</time>
      </trkpt>
      <trkpt lat="44.804" lon="1.29412">
        <ele>92</ele>
        <time>2019-02-02T01:23:00.000Z</time>
      </trkpt>
      <trkpt lat="44.80425" lon="1.29419">
        <ele>92</ele>
        <time>2019-02-02T01:24:00.000Z</time>
      </trkpt>
      <trkpt lat="44.80483" lon="1.29425">
        <ele>92</ele>
        <time>2019-02-02T01:25:00.000Z</time>
      </trkpt>
      <trkpt lat="44.80514" lon="1.2944">
        <ele>92</ele>
        <time>2019-02-02T01:26:00.000Z</time>
      </trkpt>
      <trkpt lat="44.80538" lon="1.29455">
        <ele>93</ele>
        <time>2019-02-02T01:27:00.000Z</time>
      </trkpt>
      <trkpt lat="44.80567" lon="1.29478">
        <ele>93</ele>
        <time>2019-02-02T01:28:00.000Z</time>
      </trkpt>
      <trkpt lat="44.80588" lon="1.29497">
        <ele>93</ele>
        <time>2019-02-02T01:29:00.000Z</time>
      </trkpt>
      <trkpt lat="44.80601" lon="1.29515">
        <ele>93</ele>
        <time>2019-02-02T01:30:00.000Z</time>
      </trkpt>
      <trkpt lat="44.80611" lon="1.29533">
        <ele>93</ele>
        <time>2019-02-02T01:31:00.000Z</time>
      </trkpt>
      <trkpt lat="44.80627" lon="1.29555">
        <ele>92</ele>
        <time>2019-02-02T01:32:00.000Z</time>
      </trkpt>
      <trkpt lat="44.80661" lon="1.29567">
        <ele>92</ele>
        <time>2019-02-02T01:33:00.000Z</time>
      </trkpt>
      <trkpt lat="44.80688" lon="1.29572">
        <ele>92</ele>
        <time>2019-02-02T01:34:00.000Z</time>
      </trkpt>
      <trkpt lat="44.80704" lon="1.29578">
        <ele>92</ele>
        <time>2019-02-02T01:35:00.000Z</time>
      </trkpt>
      <trkpt lat="44.80706" lon="1.29562">
        <ele>93</ele>
        <time>2019-02-02T01:36:00.000Z</time>
      </trkpt>
      <trkpt lat="44.80706" lon="1.2954">
        <ele>94</ele>
        <time>2019-02-02T01:37:00.000Z</time>
      </trkpt>
      <trkpt lat="44.80711" lon="1.29515">
        <ele>96</ele>
        <time>2019-02-02T01:38:00.000Z</time>
      </trkpt>
      <trkpt lat="44.80724" lon="1.29488">
        <ele>97</ele>
        <time>2019-02-02T01:39:00.000Z</time>
      </trkpt>
      <trkpt lat="44.80732" lon="1.29461">
        <ele>97</ele>
        <time>2019-02-02T01:40:00.000Z</time>
      </trkpt>
      <trkpt lat="44.80735" lon="1.29426">
        <ele>97</ele>
        <time>2019-02-02T01:41:00.000Z</time>
      </trkpt>
      <trkpt lat="44.80737" lon="1.29399">
        <ele>98</ele>
        <time>2019-02-02T01:42:00.000Z</time>
      </trkpt>
      <trkpt lat="44.80739" lon="1.2937">
        <ele>100</ele>
        <time>2019-02-02T01:43:00.000Z</time>
      </trkpt>
      <trkpt lat="44.80739" lon="1.29344">
        <ele>102</ele>
        <time>2019-02-02T01:44:00.000Z</time>
      </trkpt>
      <trkpt lat="44.8073" lon="1.29319">
        <ele>103</ele>
        <time>2019-02-02T01:45:00.000Z</time>
      </trkpt>
      <trkpt lat="44.80715" lon="1.29306">
        <ele>104</ele>
        <time>2019-02-02T01:46:00.000Z</time>
      </trkpt>
      <trkpt lat="44.80695" lon="1.29296">
        <ele>104</ele>
        <time>2019-02-02T01:47:00.000Z</time>
      </trkpt>
      <trkpt lat="44.80676" lon="1.29286">
        <ele>104</ele>
        <time>2019-02-02T01:48:00.000Z</time>
      </trkpt>
      <trkpt lat="44.80659" lon="1.29275">
        <ele>104</ele>
        <time>2019-02-02T01:49:00.000Z</time>
      </trkpt>
      <trkpt lat="44.80646" lon="1.29263">
        <ele>104</ele>
        <time>2019-02-02T01:50:00.000Z</time>
      </trkpt>
      <trkpt lat="44.80617" lon="1.29233">
        <ele>105</ele>
        <time>2019-02-02T01:51:00.000Z</time>
      </trkpt>
      <trkpt lat="44.80602" lon="1.29217">
        <ele>106</ele>
        <time>2019-02-02T01:52:00.000Z</time>
      </trkpt>
      <trkpt lat="44.80589" lon="1.29199">
        <ele>106</ele>
        <time>2019-02-02T01:53:00.000Z</time>
      </trkpt>
      <trkpt lat="44.8058" lon="1.29182">
        <ele>107</ele>
        <time>2019-02-02T01:54:00.000Z</time>
      </trkpt>
      <trkpt lat="44.8057" lon="1.29159">
        <ele>110</ele>
        <time>2019-02-02T01:55:00.000Z</time>
      </trkpt>
      <trkpt lat="44.80559" lon="1.29138">
        <ele>113</ele>
        <time>2019-02-02T01:56:00.000Z</time>
      </trkpt>
      <trkpt lat="44.80551" lon="1.29118">
        <ele>115</ele>
        <time>2019-02-02T01:57:00.000Z</time>
      </trkpt>
      <trkpt lat="44.80547" lon="1.29096">
        <ele>117</ele>
        <time>2019-02-02T01:58:00.000Z</time>
      </trkpt>
      <trkpt lat="44.80549" lon="1.29074">
        <ele>118</ele>
        <time>2019-02-02T01:59:00.000Z</time>
      </trkpt>
      <trkpt lat="44.80557" lon="1.29045">
        <ele>118</ele>
        <time>2019-02-02T02:00:00.000Z</time>
      </trkpt>
      <trkpt lat="44.80563" lon="1.29022">
        <ele>118</ele>
        <time>2019-02-02T02:01:00.000Z</time>
      </trkpt>
      <trkpt lat="44.80572" lon="1.28999">
        <ele>118</ele>
        <time>2019-02-02T02:02:00.000Z</time>
      </trkpt>
      <trkpt lat="44.80579" lon="1.28979">
        <ele>117</ele>
        <time>2019-02-02T02:03:00.000Z</time>
      </trkpt>
      <trkpt lat="44.80584" lon="1.28957">
        <ele>117</ele>
        <time>2019-02-02T02:04:00.000Z</time>
      </trkpt>
      <trkpt lat="44.80585" lon="1.28934">
        <ele>117</ele>
        <time>2019-02-02T02:05:00.000Z</time>
      </trkpt>
      <trkpt lat="44.80583" lon="1.28911">
        <ele>116</ele>
        <time>2019-02-02T02:06:00.000Z</time>
      </trkpt>
      <trkpt lat="44.80585" lon="1.28884">
        <ele>116</ele>
        <time>2019-02-02T02:07:00.000Z</time>
      </trkpt>
      <trkpt lat="44.80588" lon="1.28861">
        <ele>117</ele>
        <time>2019-02-02T02:08:00.000Z</time>
      </trkpt>
      <trkpt lat="44.80596" lon="1.28807">
        <ele>119</ele>
        <time>2019-02-02T02:09:00.000Z</time>
      </trkpt>
      <trkpt lat="44.80604" lon="1.28783">
        <ele>119</ele>
        <time>2019-02-02T02:10:00.000Z</time>
      </trkpt>
      <trkpt lat="44.80608" lon="1.2876">
        <ele>119</ele>
        <time>2019-02-02T02:11:00.000Z</time>
      </trkpt>
      <trkpt lat="44.80606" lon="1.28738">
        <ele>119</ele>
        <time>2019-02-02T02:12:00.000Z</time>
      </trkpt>
      <trkpt lat="44.80599" lon="1.28718">
        <ele>120</ele>
        <time>2019-02-02T02:13:00.000Z</time>
      </trkpt>
      <trkpt lat="44.8059" lon="1.28704">
        <ele>120</ele>
        <time>2019-02-02T02:14:00.000Z</time>
      </trkpt>
      <trkpt lat="44.80578" lon="1.2869">
        <ele>120</ele>
        <time>2019-02-02T02:15:00.000Z</time>
      </trkpt>
      <trkpt lat="44.80566" lon="1.28679">
        <ele>121</ele>
        <time>2019-02-02T02:16:00.000Z</time>
      </trkpt>
      <trkpt lat="44.8055" lon="1.28667">
        <ele>120</ele>
        <time>2019-02-02T02:17:00.000Z</time>
      </trkpt>
      <trkpt lat="44.80536" lon="1.28653">
        <ele>122</ele>
        <time>2019-02-02T02:18:00.000Z</time>
      </trkpt>
      <trkpt lat="44.80523" lon="1.28635">
        <ele>125</ele>
        <time>2019-02-02T02:19:00.000Z</time>
      </trkpt>
      <trkpt lat="44.80509" lon="1.28625">
        <ele>125</ele>
        <time>2019-02-02T02:20:00.000Z</time>
      </trkpt>
      <trkpt lat="44.80492" lon="1.28615">
        <ele>125</ele>
        <time>2019-02-02T02:21:00.000Z</time>
      </trkpt>
      <trkpt lat="44.80479" lon="1.28606">
        <ele>127</ele>
        <time>2019-02-02T02:22:00.000Z</time>
      </trkpt>
      <trkpt lat="44.80469" lon="1.28591">
        <ele>128</ele>
        <time>2019-02-02T02:23:00.000Z</time>
      </trkpt>
      <trkpt lat="44.80459" lon="1.28571">
        <ele>130</ele>
        <time>2019-02-02T02:24:00.000Z</time>
      </trkpt>
      <trkpt lat="44.80455" lon="1.28557">
        <ele>131</ele>
        <time>2019-02-02T02:25:00.000Z</time>
      </trkpt>
      <trkpt lat="44.80453" lon="1.28536">
        <ele>133</ele>
        <time>2019-02-02T02:26:00.000Z</time>
      </trkpt>
      <trkpt lat="44.80457" lon="1.28513">
        <ele>136</ele>
        <time>2019-02-02T02:27:00.000Z</time>
      </trkpt>
      <trkpt lat="44.8046" lon="1.28484">
        <ele>137</ele>
        <time>2019-02-02T02:28:00.000Z</time>
      </trkpt>
      <trkpt lat="44.80461" lon="1.28456">
        <ele>136</ele>
        <time>2019-02-02T02:29:00.000Z</time>
      </trkpt>
      <trkpt lat="44.8047" lon="1.28432">
        <ele>135</ele>
        <time>2019-02-02T02:30:00.000Z</time>
      </trkpt>
      <trkpt lat="44.80479" lon="1.28409">
        <ele>134</ele>
        <time>2019-02-02T02:31:00.000Z</time>
      </trkpt>
      <trkpt lat="44.8049" lon="1.28391">
        <ele>133</ele>
        <time>2019-02-02T02:32:00.000Z</time>
      </trkpt>
      <trkpt lat="44.805" lon="1.28372">
        <ele>132</ele>
        <time>2019-02-02T02:33:00.000Z</time>
      </trkpt>
      <trkpt lat="44.8051" lon="1.28355">
        <ele>133</ele>
        <time>2019-02-02T02:34:00.000Z</time>
      </trkpt>
      <trkpt lat="44.80518" lon="1.2834">
        <ele>134</ele>
        <time>2019-02-02T02:35:00.000Z</time>
      </trkpt>
      <trkpt lat="44.80523" lon="1.28326">
        <ele>134</ele>
        <time>2019-02-02T02:36:00.000Z</time>
      </trkpt>
      <trkpt lat="44.80527" lon="1.28311">
        <ele>134</ele>
        <time>2019-02-02T02:37:00.000Z</time>
      </trkpt>
      <trkpt lat="44.80533" lon="1.2828">
        <ele>135</ele>
        <time>2019-02-02T02:38:00.000Z</time>
      </trkpt>
      <trkpt lat="44.80539" lon="1.28264">
        <ele>135</ele>
        <time>2019-02-02T02:39:00.000Z</time>
      </trkpt>
      <trkpt lat="44.80548" lon="1.28245">
        <ele>136</ele>
        <time>2019-02-02T02:40:00.000Z</time>
      </trkpt>
      <trkpt lat="44.8056" lon="1.28229">
        <ele>138</ele>
        <time>2019-02-02T02:41:00.000Z</time>
      </trkpt>
      <trkpt lat="44.80572" lon="1.28217">
        <ele>139</ele>
        <time>2019-02-02T02:42:00.000Z</time>
      </trkpt>
      <trkpt lat="44.80593" lon="1.28201">
        <ele>141</ele>
        <time>2019-02-02T02:43:00.000Z</time>
      </trkpt>
      <trkpt lat="44.80601" lon="1.28195">
        <ele>141</ele>
        <time>2019-02-02T02:44:00.000Z</time>
      </trkpt>
      <trkpt lat="44.80613" lon="1.28193">
        <ele>142</ele>
        <time>2019-02-02T02:45:00.000Z</time>
      </trkpt>
      <trkpt lat="44.80626" lon="1.28189">
        <ele>142</ele>
        <time>2019-02-02T02:46:00.000Z</time>
      </trkpt>
      <trkpt lat="44.80666" lon="1.28195">
        <ele>145</ele>
        <time>2019-02-02T02:47:00.000Z</time>
      </trkpt>
      <trkpt lat="44.8068" lon="1.28198">
        <ele>146</ele>
        <time>2019-02-02T02:48:00.000Z</time>
      </trkpt>
      <trkpt lat="44.80692" lon="1.28201">
        <ele>146</ele>
        <time>2019-02-02T02:49:00.000Z</time>
      </trkpt>
      <trkpt lat="44.80705" lon="1.28202">
        <ele>146</ele>
        <time>2019-02-02T02:50:00.000Z</time>
      </trkpt>
      <trkpt lat="44.80726" lon="1.28208">
        <ele>147</ele>
        <time>2019-02-02T02:51:00.000Z</time>
      </trkpt>
      <trkpt lat="44.80736" lon="1.28212">
        <ele>147</ele>
        <time>2019-02-02T02:52:00.000Z</time>
      </trkpt>
      <trkpt lat="44.80759" lon="1.28218">
        <ele>148</ele>
        <time>2019-02-02T02:53:00.000Z</time>
      </trkpt>
      <trkpt lat="44.80768" lon="1.28222">
        <ele>149</ele>
        <time>2019-02-02T02:54:00.000Z</time>
      </trkpt>
      <trkpt lat="44.80778" lon="1.28229">
        <ele>151</ele>
        <time>2019-02-02T02:55:00.000Z</time>
      </trkpt>
      <trkpt lat="44.80787" lon="1.28237">
        <ele>152</ele>
        <time>2019-02-02T02:56:00.000Z</time>
      </trkpt>
      <trkpt lat="44.80798" lon="1.2824">
        <ele>152</ele>
        <time>2019-02-02T02:57:00.000Z</time>
      </trkpt>
      <trkpt lat="44.80807" lon="1.28244">
        <ele>153</ele>
        <time>2019-02-02T02:58:00.000Z</time>
      </trkpt>
      <trkpt lat="44.80819" lon="1.28246">
        <ele>153</ele>
        <time>2019-02-02T02:59:00.000Z</time>
      </trkpt>
      <trkpt lat="44.80833" lon="1.28245">
        <ele>154</ele>
        <time>2019-02-02T03:00:00.000Z</time>
      </trkpt>
      <trkpt lat="44.80844" lon="1.28238">
        <ele>156</ele>
        <time>2019-02-02T03:01:00.000Z</time>
      </trkpt>
      <trkpt lat="44.80849" lon="1.28228">
        <ele>156</ele>
        <time>2019-02-02T03:02:00.000Z</time>
      </trkpt>
      <trkpt lat="44.80857" lon="1.28213">
        <ele>157</ele>
        <time>2019-02-02T03:03:00.000Z</time>
      </trkpt>
      <trkpt lat="44.80863" lon="1.28199">
        <ele>157</ele>
        <time>2019-02-02T03:04:00.000Z</time>
      </trkpt>
      <trkpt lat="44.80868" lon="1.28185">
        <ele>157</ele>
        <time>2019-02-02T03:05:00.000Z</time>
      </trkpt>
      <trkpt lat="44.80873" lon="1.28173">
        <ele>158</ele>
        <time>2019-02-02T03:06:00.000Z</time>
      </trkpt>
      <trkpt lat="44.80882" lon="1.28162">
        <ele>159</ele>
        <time>2019-02-02T03:07:00.000Z</time>
      </trkpt>
      <trkpt lat="44.80896" lon="1.28136">
        <ele>163</ele>
        <time>2019-02-02T03:08:00.000Z</time>
      </trkpt>
      <trkpt lat="44.80905" lon="1.2812">
        <ele>165</ele>
        <time>2019-02-02T03:09:00.000Z</time>
      </trkpt>
      <trkpt lat="44.80912" lon="1.28108">
        <ele>166</ele>
        <time>2019-02-02T03:10:00.000Z</time>
      </trkpt>
      <trkpt lat="44.80911" lon="1.28093">
        <ele>166</ele>
        <time>2019-02-02T03:11:00.000Z</time>
      </trkpt>
      <trkpt lat="44.80905" lon="1.28079">
        <ele>165</ele>
        <time>2019-02-02T03:12:00.000Z</time>
      </trkpt>
      <trkpt lat="44.80892" lon="1.28055">
        <ele>165</ele>
        <time>2019-02-02T03:13:00.000Z</time>
      </trkpt>
      <trkpt lat="44.80886" lon="1.28043">
        <ele>165</ele>
        <time>2019-02-02T03:14:00.000Z</time>
      </trkpt>
      <trkpt lat="44.80881" lon="1.28029">
        <ele>165</ele>
        <time>2019-02-02T03:15:00.000Z</time>
      </trkpt>
      <trkpt lat="44.80876" lon="1.2801">
        <ele>166</ele>
        <time>2019-02-02T03:16:00.000Z</time>
      </trkpt>
      <trkpt lat="44.80874" lon="1.27992">
        <ele>167</ele>
        <time>2019-02-02T03:17:00.000Z</time>
      </trkpt>
      <trkpt lat="44.80876" lon="1.27974">
        <ele>169</ele>
        <time>2019-02-02T03:18:00.000Z</time>
      </trkpt>
      <trkpt lat="44.80878" lon="1.27954">
        <ele>171</ele>
        <time>2019-02-02T03:19:00.000Z</time>
      </trkpt>
      <trkpt lat="44.80887" lon="1.27906">
        <ele>178</ele>
        <time>2019-02-02T03:20:00.000Z</time>
      </trkpt>
      <trkpt lat="44.80889" lon="1.27893">
        <ele>181</ele>
        <time>2019-02-02T03:21:00.000Z</time>
      </trkpt>
      <trkpt lat="44.80892" lon="1.2788">
        <ele>183</ele>
        <time>2019-02-02T03:22:00.000Z</time>
      </trkpt>
      <trkpt lat="44.80889" lon="1.27864">
        <ele>185</ele>
        <time>2019-02-02T03:23:00.000Z</time>
      </trkpt>
      <trkpt lat="44.80883" lon="1.27854">
        <ele>185</ele>
        <time>2019-02-02T03:24:00.000Z</time>
      </trkpt>
      <trkpt lat="44.80873" lon="1.27851">
        <ele>185</ele>
        <time>2019-02-02T03:25:00.000Z</time>
      </trkpt>
      <trkpt lat="44.80864" lon="1.27849">
        <ele>184</ele>
        <time>2019-02-02T03:26:00.000Z</time>
      </trkpt>
      <trkpt lat="44.80855" lon="1.27846">
        <ele>184</ele>
        <time>2019-02-02T03:27:00.000Z</time>
      </trkpt>
      <trkpt lat="44.80846" lon="1.27842">
        <ele>184</ele>
        <time>2019-02-02T03:28:00.000Z</time>
      </trkpt>
      <trkpt lat="44.80837" lon="1.27843">
        <ele>183</ele>
        <time>2019-02-02T03:29:00.000Z</time>
      </trkpt>
      <trkpt lat="44.80824" lon="1.27841">
        <ele>182</ele>
        <time>2019-02-02T03:30:00.000Z</time>
      </trkpt>
      <trkpt lat="44.80808" lon="1.2784">
        <ele>181</ele>
        <time>2019-02-02T03:31:00.000Z</time>
      </trkpt>
      <trkpt lat="44.80793" lon="1.27836">
        <ele>181</ele>
        <time>2019-02-02T03:32:00.000Z</time>
      </trkpt>
      <trkpt lat="44.80781" lon="1.27824">
        <ele>182</ele>
        <time>2019-02-02T03:33:00.000Z</time>
      </trkpt>
      <trkpt lat="44.80771" lon="1.27815">
        <ele>183</ele>
        <time>2019-02-02T03:34:00.000Z</time>
      </trkpt>
      <trkpt lat="44.8076" lon="1.27807">
        <ele>183</ele>
        <time>2019-02-02T03:35:00.000Z</time>
      </trkpt>
      <trkpt lat="44.80748" lon="1.27798">
        <ele>184</ele>
        <time>2019-02-02T03:36:00.000Z</time>
      </trkpt>
      <trkpt lat="44.80732" lon="1.27789">
        <ele>183</ele>
        <time>2019-02-02T03:37:00.000Z</time>
      </trkpt>
      <trkpt lat="44.80716" lon="1.2778">
        <ele>182</ele>
        <time>2019-02-02T03:38:00.000Z</time>
      </trkpt>
      <trkpt lat="44.80701" lon="1.27775">
        <ele>181</ele>
        <time>2019-02-02T03:39:00.000Z</time>
      </trkpt>
      <trkpt lat="44.80688" lon="1.27763">
        <ele>180</ele>
        <time>2019-02-02T03:40:00.000Z</time>
      </trkpt>
      <trkpt lat="44.80683" lon="1.27743">
        <ele>181</ele>
        <time>2019-02-02T03:41:00.000Z</time>
      </trkpt>
      <trkpt lat="44.80686" lon="1.27727">
        <ele>181</ele>
        <time>2019-02-02T03:42:00.000Z</time>
      </trkpt>
      <trkpt lat="44.80696" lon="1.27715">
        <ele>182</ele>
        <time>2019-02-02T03:43:00.000Z</time>
      </trkpt>
      <trkpt lat="44.80706" lon="1.27704">
        <ele>184</ele>
        <time>2019-02-02T03:44:00.000Z</time>
      </trkpt>
      <trkpt lat="44.80716" lon="1.27695">
        <ele>185</ele>
        <time>2019-02-02T03:45:00.000Z</time>
      </trkpt>
      <trkpt lat="44.80725" lon="1.27687">
        <ele>187</ele>
        <time>2019-02-02T03:46:00.000Z</time>
      </trkpt>
      <trkpt lat="44.80734" lon="1.2768">
        <ele>188</ele>
        <time>2019-02-02T03:47:00.000Z</time>
      </trkpt>
      <trkpt lat="44.80744" lon="1.27674">
        <ele>189</ele>
        <time>2019-02-02T03:48:00.000Z</time>
      </trkpt>
      <trkpt lat="44.80755" lon="1.27668">
        <ele>191</ele>
        <time>2019-02-02T03:49:00.000Z</time>
      </trkpt>
      <trkpt lat="44.80764" lon="1.27663">
        <ele>191</ele>
        <time>2019-02-02T03:50:00.000Z</time>
      </trkpt>
      <trkpt lat="44.80774" lon="1.27657">
        <ele>192</ele>
        <time>2019-02-02T03:51:00.000Z</time>
      </trkpt>
      <trkpt lat="44.80783" lon="1.27651">
        <ele>193</ele>
        <time>2019-02-02T03:52:00.000Z</time>
      </trkpt>
      <trkpt lat="44.80792" lon="1.27648">
        <ele>193</ele>
        <time>2019-02-02T03:53:00.000Z</time>
      </trkpt>
      <trkpt lat="44.80804" lon="1.27647">
        <ele>194</ele>
        <time>2019-02-02T03:54:00.000Z</time>
      </trkpt>
      <trkpt lat="44.80831" lon="1.27646">
        <ele>197</ele>
        <time>2019-02-02T03:55:00.000Z</time>
      </trkpt>
      <trkpt lat="44.80851" lon="1.27645">
        <ele>199</ele>
        <time>2019-02-02T03:56:00.000Z</time>
      </trkpt>
      <trkpt lat="44.80862" lon="1.2764">
        <ele>200</ele>
        <time>2019-02-02T03:57:00.000Z</time>
      </trkpt>
      <trkpt lat="44.80875" lon="1.27639">
        <ele>201</ele>
        <time>2019-02-02T03:58:00.000Z</time>
      </trkpt>
      <trkpt lat="44.80887" lon="1.27637">
        <ele>202</ele>
        <time>2019-02-02T03:59:00.000Z</time>
      </trkpt>
      <trkpt lat="44.80898" lon="1.27633">
        <ele>203</ele>
        <time>2019-02-02T04:00:00.000Z</time>
      </trkpt>
      <trkpt lat="44.80912" lon="1.27627">
        <ele>204</ele>
        <time>2019-02-02T04:01:00.000Z</time>
      </trkpt>
      <trkpt lat="44.80922" lon="1.27622">
        <ele>204</ele>
        <time>2019-02-02T04:02:00.000Z</time>
      </trkpt>
      <trkpt lat="44.80935" lon="1.27612">
        <ele>205</ele>
        <time>2019-02-02T04:03:00.000Z</time>
      </trkpt>
      <trkpt lat="44.80955" lon="1.27594">
        <ele>207</ele>
        <time>2019-02-02T04:04:00.000Z</time>
      </trkpt>
      <trkpt lat="44.80967" lon="1.27585">
        <ele>209</ele>
        <time>2019-02-02T04:05:00.000Z</time>
      </trkpt>
      <trkpt lat="44.80979" lon="1.27577">
        <ele>210</ele>
        <time>2019-02-02T04:06:00.000Z</time>
      </trkpt>
      <trkpt lat="44.80991" lon="1.27569">
        <ele>213</ele>
        <time>2019-02-02T04:07:00.000Z</time>
      </trkpt>
      <trkpt lat="44.81002" lon="1.27555">
        <ele>215</ele>
        <time>2019-02-02T04:08:00.000Z</time>
      </trkpt>
      <trkpt lat="44.81006" lon="1.27538">
        <ele>216</ele>
        <time>2019-02-02T04:09:00.000Z</time>
      </trkpt>
      <trkpt lat="44.81002" lon="1.27523">
        <ele>215</ele>
        <time>2019-02-02T04:10:00.000Z</time>
      </trkpt>
      <trkpt lat="44.80999" lon="1.27507">
        <ele>214</ele>
        <time>2019-02-02T04:11:00.000Z</time>
      </trkpt>
      <trkpt lat="44.81001" lon="1.2749">
        <ele>214</ele>
        <time>2019-02-02T04:12:00.000Z</time>
      </trkpt>
      <trkpt lat="44.81002" lon="1.27476">
        <ele>215</ele>
        <time>2019-02-02T04:13:00.000Z</time>
      </trkpt>
      <trkpt lat="44.81001" lon="1.27459">
        <ele>215</ele>
        <time>2019-02-02T04:14:00.000Z</time>
      </trkpt>
      <trkpt lat="44.81008" lon="1.27442">
        <ele>217</ele>
        <time>2019-02-02T04:15:00.000Z</time>
      </trkpt>
      <trkpt lat="44.8101" lon="1.27424">
        <ele>218</ele>
        <time>2019-02-02T04:16:00.000Z</time>
      </trkpt>
      <trkpt lat="44.81015" lon="1.27406">
        <ele>220</ele>
        <time>2019-02-02T04:17:00.000Z</time>
      </trkpt>
      <trkpt lat="44.81018" lon="1.27389">
        <ele>222</ele>
        <time>2019-02-02T04:18:00.000Z</time>
      </trkpt>
      <trkpt lat="44.81019" lon="1.27375">
        <ele>222</ele>
        <time>2019-02-02T04:19:00.000Z</time>
      </trkpt>
      <trkpt lat="44.81019" lon="1.27359">
        <ele>223</ele>
        <time>2019-02-02T04:20:00.000Z</time>
      </trkpt>
      <trkpt lat="44.81017" lon="1.27329">
        <ele>224</ele>
        <time>2019-02-02T04:21:00.000Z</time>
      </trkpt>
      <trkpt lat="44.81013" lon="1.27311">
        <ele>225</ele>
        <time>2019-02-02T04:22:00.000Z</time>
      </trkpt>
      <trkpt lat="44.81003" lon="1.27296">
        <ele>225</ele>
        <time>2019-02-02T04:23:00.000Z</time>
      </trkpt>
      <trkpt lat="44.80991" lon="1.27294">
        <ele>224</ele>
        <time>2019-02-02T04:24:00.000Z</time>
      </trkpt>
      <trkpt lat="44.80978" lon="1.273">
        <ele>223</ele>
        <time>2019-02-02T04:25:00.000Z</time>
      </trkpt>
      <trkpt lat="44.80957" lon="1.27312">
        <ele>221</ele>
        <time>2019-02-02T04:26:00.000Z</time>
      </trkpt>
      <trkpt lat="44.80948" lon="1.27317">
        <ele>220</ele>
        <time>2019-02-02T04:27:00.000Z</time>
      </trkpt>
      <trkpt lat="44.80915" lon="1.27327">
        <ele>218</ele>
        <time>2019-02-02T04:28:00.000Z</time>
      </trkpt>
      <trkpt lat="44.80898" lon="1.27326">
        <ele>219</ele>
        <time>2019-02-02T04:29:00.000Z</time>
      </trkpt>
      <trkpt lat="44.80881" lon="1.27318">
        <ele>220</ele>
        <time>2019-02-02T04:30:00.000Z</time>
      </trkpt>
      <trkpt lat="44.80868" lon="1.27306">
        <ele>221</ele>
        <time>2019-02-02T04:31:00.000Z</time>
      </trkpt>
      <trkpt lat="44.8086" lon="1.27288">
        <ele>222</ele>
        <time>2019-02-02T04:32:00.000Z</time>
      </trkpt>
      <trkpt lat="44.80856" lon="1.27271">
        <ele>223</ele>
        <time>2019-02-02T04:33:00.000Z</time>
      </trkpt>
      <trkpt lat="44.80857" lon="1.27249">
        <ele>225</ele>
        <time>2019-02-02T04:34:00.000Z</time>
      </trkpt>
      <trkpt lat="44.80859" lon="1.27231">
        <ele>225</ele>
        <time>2019-02-02T04:35:00.000Z</time>
      </trkpt>
      <trkpt lat="44.8087" lon="1.2717">
        <ele>229</ele>
        <time>2019-02-02T04:36:00.000Z</time>
      </trkpt>
      <trkpt lat="44.80875" lon="1.27149">
        <ele>230</ele>
        <time>2019-02-02T04:37:00.000Z</time>
      </trkpt>
      <trkpt lat="44.80881" lon="1.27108">
        <ele>233</ele>
        <time>2019-02-02T04:38:00.000Z</time>
      </trkpt>
      <trkpt lat="44.80883" lon="1.27093">
        <ele>233</ele>
        <time>2019-02-02T04:39:00.000Z</time>
      </trkpt>
      <trkpt lat="44.80885" lon="1.27077">
        <ele>234</ele>
        <time>2019-02-02T04:40:00.000Z</time>
      </trkpt>
      <trkpt lat="44.80878" lon="1.2705">
        <ele>234</ele>
        <time>2019-02-02T04:41:00.000Z</time>
      </trkpt>
      <trkpt lat="44.80872" lon="1.27029">
        <ele>234</ele>
        <time>2019-02-02T04:42:00.000Z</time>
      </trkpt>
      <trkpt lat="44.80862" lon="1.27012">
        <ele>233</ele>
        <time>2019-02-02T04:43:00.000Z</time>
      </trkpt>
      <trkpt lat="44.8085" lon="1.26985">
        <ele>233</ele>
        <time>2019-02-02T04:44:00.000Z</time>
      </trkpt>
      <trkpt lat="44.8084" lon="1.26959">
        <ele>232</ele>
        <time>2019-02-02T04:45:00.000Z</time>
      </trkpt>
      <trkpt lat="44.80835" lon="1.26933">
        <ele>233</ele>
        <time>2019-02-02T04:46:00.000Z</time>
      </trkpt>
      <trkpt lat="44.80832" lon="1.26906">
        <ele>233</ele>
        <time>2019-02-02T04:47:00.000Z</time>
      </trkpt>
      <trkpt lat="44.80828" lon="1.26878">
        <ele>232</ele>
        <time>2019-02-02T04:48:00.000Z</time>
      </trkpt>
      <trkpt lat="44.80822" lon="1.26854">
        <ele>232</ele>
        <time>2019-02-02T04:49:00.000Z</time>
      </trkpt>
      <trkpt lat="44.80802" lon="1.26798">
        <ele>230</ele>
        <time>2019-02-02T04:50:00.000Z</time>
      </trkpt>
      <trkpt lat="44.8079" lon="1.26768">
        <ele>230</ele>
        <time>2019-02-02T04:51:00.000Z</time>
      </trkpt>
      <trkpt lat="44.8078" lon="1.2674">
        <ele>230</ele>
        <time>2019-02-02T04:52:00.000Z</time>
      </trkpt>
      <trkpt lat="44.80772" lon="1.26717">
        <ele>231</ele>
        <time>2019-02-02T04:53:00.000Z</time>
      </trkpt>
      <trkpt lat="44.80763" lon="1.26694">
        <ele>231</ele>
        <time>2019-02-02T04:54:00.000Z</time>
      </trkpt>
      <trkpt lat="44.80752" lon="1.26653">
        <ele>230</ele>
        <time>2019-02-02T04:55:00.000Z</time>
      </trkpt>
      <trkpt lat="44.80735" lon="1.26593">
        <ele>227</ele>
        <time>2019-02-02T04:56:00.000Z</time>
      </trkpt>
      <trkpt lat="44.8071" lon="1.26526">
        <ele>227</ele>
        <time>2019-02-02T04:57:00.000Z</time>
      </trkpt>
      <trkpt lat="44.80683" lon="1.26495">
        <ele>228</ele>
        <time>2019-02-02T04:58:00.000Z</time>
      </trkpt>
      <trkpt lat="44.80664" lon="1.26485">
        <ele>229</ele>
        <time>2019-02-02T04:59:00.000Z</time>
      </trkpt>
      <trkpt lat="44.80646" lon="1.26475">
        <ele>229</ele>
        <time>2019-02-02T05:00:00.000Z</time>
      </trkpt>
      <trkpt lat="44.8063" lon="1.26463">
        <ele>229</ele>
        <time>2019-02-02T05:01:00.000Z</time>
      </trkpt>
      <trkpt lat="44.80593" lon="1.26437">
        <ele>230</ele>
        <time>2019-02-02T05:02:00.000Z</time>
      </trkpt>
      <trkpt lat="44.80574" lon="1.26424">
        <ele>232</ele>
        <time>2019-02-02T05:03:00.000Z</time>
      </trkpt>
      <trkpt lat="44.80559" lon="1.26412">
        <ele>235</ele>
        <time>2019-02-02T05:04:00.000Z</time>
      </trkpt>
      <trkpt lat="44.80545" lon="1.26401">
        <ele>238</ele>
        <time>2019-02-02T05:05:00.000Z</time>
      </trkpt>
      <trkpt lat="44.80534" lon="1.26391">
        <ele>241</ele>
        <time>2019-02-02T05:06:00.000Z</time>
      </trkpt>
      <trkpt lat="44.80527" lon="1.26377">
        <ele>243</ele>
        <time>2019-02-02T05:07:00.000Z</time>
      </trkpt>
      <trkpt lat="44.80523" lon="1.26354">
        <ele>245</ele>
        <time>2019-02-02T05:08:00.000Z</time>
      </trkpt>
      <trkpt lat="44.80525" lon="1.26328">
        <ele>247</ele>
        <time>2019-02-02T05:09:00.000Z</time>
      </trkpt>
      <trkpt lat="44.80533" lon="1.26311">
        <ele>246</ele>
        <time>2019-02-02T05:10:00.000Z</time>
      </trkpt>
      <trkpt lat="44.8054" lon="1.26295">
        <ele>246</ele>
        <time>2019-02-02T05:11:00.000Z</time>
      </trkpt>
      <trkpt lat="44.80547" lon="1.26276">
        <ele>246</ele>
        <time>2019-02-02T05:12:00.000Z</time>
      </trkpt>
      <trkpt lat="44.80552" lon="1.26256">
        <ele>246</ele>
        <time>2019-02-02T05:13:00.000Z</time>
      </trkpt>
      <trkpt lat="44.80556" lon="1.26234">
        <ele>247</ele>
        <time>2019-02-02T05:14:00.000Z</time>
      </trkpt>
      <trkpt lat="44.80563" lon="1.26212">
        <ele>247</ele>
        <time>2019-02-02T05:15:00.000Z</time>
      </trkpt>
      <trkpt lat="44.80568" lon="1.26188">
        <ele>247</ele>
        <time>2019-02-02T05:16:00.000Z</time>
      </trkpt>
      <trkpt lat="44.80572" lon="1.26162">
        <ele>248</ele>
        <time>2019-02-02T05:17:00.000Z</time>
      </trkpt>
      <trkpt lat="44.80575" lon="1.26139">
        <ele>247</ele>
        <time>2019-02-02T05:18:00.000Z</time>
      </trkpt>
      <trkpt lat="44.80577" lon="1.26116">
        <ele>247</ele>
        <time>2019-02-02T05:19:00.000Z</time>
      </trkpt>
      <trkpt lat="44.80578" lon="1.2609">
        <ele>247</ele>
        <time>2019-02-02T05:20:00.000Z</time>
      </trkpt>
      <trkpt lat="44.80582" lon="1.26071">
        <ele>248</ele>
        <time>2019-02-02T05:21:00.000Z</time>
      </trkpt>
      <trkpt lat="44.80587" lon="1.26053">
        <ele>249</ele>
        <time>2019-02-02T05:22:00.000Z</time>
      </trkpt>
      <trkpt lat="44.80593" lon="1.26036">
        <ele>249</ele>
        <time>2019-02-02T05:23:00.000Z</time>
      </trkpt>
      <trkpt lat="44.80606" lon="1.26011">
        <ele>249</ele>
        <time>2019-02-02T05:24:00.000Z</time>
      </trkpt>
      <trkpt lat="44.80616" lon="1.25984">
        <ele>249</ele>
        <time>2019-02-02T05:25:00.000Z</time>
      </trkpt>
      <trkpt lat="44.8063" lon="1.2596">
        <ele>248</ele>
        <time>2019-02-02T05:26:00.000Z</time>
      </trkpt>
      <trkpt lat="44.80646" lon="1.25941">
        <ele>245</ele>
        <time>2019-02-02T05:27:00.000Z</time>
      </trkpt>
      <trkpt lat="44.80652" lon="1.25911">
        <ele>245</ele>
        <time>2019-02-02T05:28:00.000Z</time>
      </trkpt>
      <trkpt lat="44.80647" lon="1.25871">
        <ele>248</ele>
        <time>2019-02-02T05:29:00.000Z</time>
      </trkpt>
      <trkpt lat="44.8064" lon="1.25837">
        <ele>251</ele>
        <time>2019-02-02T05:30:00.000Z</time>
      </trkpt>
      <trkpt lat="44.80637" lon="1.25797">
        <ele>252</ele>
        <time>2019-02-02T05:31:00.000Z</time>
      </trkpt>
      <trkpt lat="44.80642" lon="1.2576">
        <ele>250</ele>
        <time>2019-02-02T05:32:00.000Z</time>
      </trkpt>
      <trkpt lat="44.80662" lon="1.25735">
        <ele>246</ele>
        <time>2019-02-02T05:33:00.000Z</time>
      </trkpt>
      <trkpt lat="44.80692" lon="1.25709">
        <ele>240</ele>
        <time>2019-02-02T05:34:00.000Z</time>
      </trkpt>
      <trkpt lat="44.80722" lon="1.25667">
        <ele>235</ele>
        <time>2019-02-02T05:35:00.000Z</time>
      </trkpt>
      <trkpt lat="44.8073" lon="1.25614">
        <ele>237</ele>
        <time>2019-02-02T05:36:00.000Z</time>
      </trkpt>
      <trkpt lat="44.8075" lon="1.25552">
        <ele>236</ele>
        <time>2019-02-02T05:37:00.000Z</time>
      </trkpt>
      <trkpt lat="44.80783" lon="1.25515">
        <ele>231</ele>
        <time>2019-02-02T05:38:00.000Z</time>
      </trkpt>
      <trkpt lat="44.80823" lon="1.2547">
        <ele>227</ele>
        <time>2019-02-02T05:39:00.000Z</time>
      </trkpt>
      <trkpt lat="44.80832" lon="1.25397">
        <ele>228</ele>
        <time>2019-02-02T05:40:00.000Z</time>
      </trkpt>
      <trkpt lat="44.80816" lon="1.25329">
        <ele>225</ele>
        <time>2019-02-02T05:41:00.000Z</time>
      </trkpt>
      <trkpt lat="44.80766" lon="1.25295">
        <ele>224</ele>
        <time>2019-02-02T05:42:00.000Z</time>
      </trkpt>
      <trkpt lat="44.80738" lon="1.25258">
        <ele>223</ele>
        <time>2019-02-02T05:43:00.000Z</time>
      </trkpt>
      <trkpt lat="44.80743" lon="1.25188">
        <ele>217</ele>
        <time>2019-02-02T05:44:00.000Z</time>
      </trkpt>
      <trkpt lat="44.80738" lon="1.25119">
        <ele>215</ele>
        <time>2019-02-02T05:45:00.000Z</time>
      </trkpt>
      <trkpt lat="44.80726" lon="1.25051">
        <ele>214</ele>
        <time>2019-02-02T05:46:00.000Z</time>
      </trkpt>
      <trkpt lat="44.80736" lon="1.2497">
        <ele>212</ele>
        <time>2019-02-02T05:47:00.000Z</time>
      </trkpt>
      <trkpt lat="44.80699" lon="1.24903">
        <ele>210</ele>
        <time>2019-02-02T05:48:00.000Z</time>
      </trkpt>
      <trkpt lat="44.80666" lon="1.24827">
        <ele>204</ele>
        <time>2019-02-02T05:49:00.000Z</time>
      </trkpt>
      <trkpt lat="44.80634" lon="1.24758">
        <ele>204</ele>
        <time>2019-02-02T05:50:00.000Z</time>
      </trkpt>
      <trkpt lat="44.806" lon="1.24703">
        <ele>197</ele>
        <time>2019-02-02T05:51:00.000Z</time>
      </trkpt>
      <trkpt lat="44.80597" lon="1.24643">
        <ele>194</ele>
        <time>2019-02-02T05:52:00.000Z</time>
      </trkpt>
      <trkpt lat="44.80616" lon="1.24568">
        <ele>192</ele>
        <time>2019-02-02T05:53:00.000Z</time>
      </trkpt>
      <trkpt lat="44.80643" lon="1.24523">
        <ele>190</ele>
        <time>2019-02-02T05:54:00.000Z</time>
      </trkpt>
      <trkpt lat="44.80665" lon="1.24478">
        <ele>187</ele>
        <time>2019-02-02T05:55:00.000Z</time>
      </trkpt>
      <trkpt lat="44.80686" lon="1.2442">
        <ele>184</ele>
        <time>2019-02-02T05:56:00.000Z</time>
      </trkpt>
      <trkpt lat="44.80709" lon="1.24358">
        <ele>181</ele>
        <time>2019-02-02T05:57:00.000Z</time>
      </trkpt>
      <trkpt lat="44.80705" lon="1.24288">
        <ele>184</ele>
        <time>2019-02-02T05:58:00.000Z</time>
      </trkpt>
      <trkpt lat="44.80668" lon="1.24246">
        <ele>182</ele>
        <time>2019-02-02T05:59:00.000Z</time>
      </trkpt>
      <trkpt lat="44.80667" lon="1.24197">
        <ele>183</ele>
        <time>2019-02-02T06:00:00.000Z</time>
      </trkpt>
      <trkpt lat="44.80674" lon="1.24158">
        <ele>186</ele>
        <time>2019-02-02T06:01:00.000Z</time>
      </trkpt>
      <trkpt lat="44.80675" lon="1.24127">
        <ele>187</ele>
        <time>2019-02-02T06:02:00.000Z</time>
      </trkpt>
      <trkpt lat="44.80672" lon="1.24097">
        <ele>187</ele>
        <time>2019-02-02T06:03:00.000Z</time>
      </trkpt>
      <trkpt lat="44.80668" lon="1.24072">
        <ele>186</ele>
        <time>2019-02-02T06:04:00.000Z</time>
      </trkpt>
      <trkpt lat="44.80661" lon="1.24041">
        <ele>186</ele>
        <time>2019-02-02T06:05:00.000Z</time>
      </trkpt>
      <trkpt lat="44.80653" lon="1.23994">
        <ele>186</ele>
        <time>2019-02-02T06:06:00.000Z</time>
      </trkpt>
      <trkpt lat="44.80642" lon="1.23956">
        <ele>184</ele>
        <time>2019-02-02T06:07:00.000Z</time>
      </trkpt>
      <trkpt lat="44.80633" lon="1.23918">
        <ele>182</ele>
        <time>2019-02-02T06:08:00.000Z</time>
      </trkpt>
      <trkpt lat="44.80619" lon="1.23877">
        <ele>179</ele>
        <time>2019-02-02T06:09:00.000Z</time>
      </trkpt>
      <trkpt lat="44.80608" lon="1.23841">
        <ele>177</ele>
        <time>2019-02-02T06:10:00.000Z</time>
      </trkpt>
      <trkpt lat="44.80609" lon="1.23797">
        <ele>177</ele>
        <time>2019-02-02T06:11:00.000Z</time>
      </trkpt>
      <trkpt lat="44.80634" lon="1.23771">
        <ele>180</ele>
        <time>2019-02-02T06:12:00.000Z</time>
      </trkpt>
      <trkpt lat="44.80616" lon="1.23713">
        <ele>178</ele>
        <time>2019-02-02T06:13:00.000Z</time>
      </trkpt>
      <trkpt lat="44.80588" lon="1.23683">
        <ele>173</ele>
        <time>2019-02-02T06:14:00.000Z</time>
      </trkpt>
      <trkpt lat="44.8057" lon="1.23661">
        <ele>171</ele>
        <time>2019-02-02T06:15:00.000Z</time>
      </trkpt>
      <trkpt lat="44.80565" lon="1.23647">
        <ele>170</ele>
        <time>2019-02-02T06:16:00.000Z</time>
      </trkpt>
      <trkpt lat="44.80585" lon="1.23534">
        <ele>167</ele>
        <time>2019-02-02T06:17:00.000Z</time>
      </trkpt>
      <trkpt lat="44.8066" lon="1.23414">
        <ele>164</ele>
        <time>2019-02-02T06:18:00.000Z</time>
      </trkpt>
      <trkpt lat="44.80675" lon="1.2323">
        <ele>159</ele>
        <time>2019-02-02T06:19:00.000Z</time>
      </trkpt>
      <trkpt lat="44.80643" lon="1.23089">
        <ele>148</ele>
        <time>2019-02-02T06:20:00.000Z</time>
      </trkpt>
      <trkpt lat="44.8057" lon="1.23048">
        <ele>145</ele>
        <time>2019-02-02T06:21:00.000Z</time>
      </trkpt>
      <trkpt lat="44.8053" lon="1.23003">
        <ele>148</ele>
        <time>2019-02-02T06:22:00.000Z</time>
      </trkpt>
      <trkpt lat="44.80492" lon="1.2296">
        <ele>147</ele>
        <time>2019-02-02T06:23:00.000Z</time>
      </trkpt>
      <trkpt lat="44.80445" lon="1.22906">
        <ele>143</ele>
        <time>2019-02-02T06:24:00.000Z</time>
      </trkpt>
      <trkpt lat="44.80397" lon="1.22924">
        <ele>150</ele>
        <time>2019-02-02T06:25:00.000Z</time>
      </trkpt>
      <trkpt lat="44.80353" lon="1.22951">
        <ele>153</ele>
        <time>2019-02-02T06:26:00.000Z</time>
      </trkpt>
      <trkpt lat="44.80336" lon="1.23052">
        <ele>159</ele>
        <time>2019-02-02T06:27:00.000Z</time>
      </trkpt>
      <trkpt lat="44.80272" lon="1.23048">
        <ele>165</ele>
        <time>2019-02-02T06:28:00.000Z</time>
      </trkpt>
      <trkpt lat="44.80255" lon="1.22984">
        <ele>161</ele>
        <time>2019-02-02T06:29:00.000Z</time>
      </trkpt>
      <trkpt lat="44.80239" lon="1.22926">
        <ele>166</ele>
        <time>2019-02-02T06:30:00.000Z</time>
      </trkpt>
      <trkpt lat="44.80249" lon="1.22878">
        <ele>168</ele>
        <time>2019-02-02T06:31:00.000Z</time>
      </trkpt>
      <trkpt lat="44.8029" lon="1.22812">
        <ele>162</ele>
        <time>2019-02-02T06:32:00.000Z</time>
      </trkpt>
      <trkpt lat="44.8027" lon="1.22759">
        <ele>167</ele>
        <time>2019-02-02T06:33:00.000Z</time>
      </trkpt>
      <trkpt lat="44.8026" lon="1.22716">
        <ele>171</ele>
        <time>2019-02-02T06:34:00.000Z</time>
      </trkpt>
      <trkpt lat="44.80301" lon="1.22683">
        <ele>168</ele>
        <time>2019-02-02T06:35:00.000Z</time>
      </trkpt>
      <trkpt lat="44.80323" lon="1.22634">
        <ele>171</ele>
        <time>2019-02-02T06:36:00.000Z</time>
      </trkpt>
      <trkpt lat="44.80352" lon="1.22581">
        <ele>170</ele>
        <time>2019-02-02T06:37:00.000Z</time>
      </trkpt>
      <trkpt lat="44.80342" lon="1.22505">
        <ele>176</ele>
        <time>2019-02-02T06:38:00.000Z</time>
      </trkpt>
      <trkpt lat="44.80348" lon="1.22434">
        <ele>177</ele>
        <time>2019-02-02T06:39:00.000Z</time>
      </trkpt>
      <trkpt lat="44.80339" lon="1.22372">
        <ele>181</ele>
        <time>2019-02-02T06:40:00.000Z</time>
      </trkpt>
      <trkpt lat="44.80348" lon="1.22295">
        <ele>179</ele>
        <time>2019-02-02T06:41:00.000Z</time>
      </trkpt>
      <trkpt lat="44.80311" lon="1.22259">
        <ele>180</ele>
        <time>2019-02-02T06:42:00.000Z</time>
      </trkpt>
      <trkpt lat="44.80258" lon="1.22192">
        <ele>174</ele>
        <time>2019-02-02T06:43:00.000Z</time>
      </trkpt>
      <trkpt lat="44.80211" lon="1.22101">
        <ele>173</ele>
        <time>2019-02-02T06:44:00.000Z</time>
      </trkpt>
      <trkpt lat="44.80192" lon="1.2205">
        <ele>177</ele>
        <time>2019-02-02T06:45:00.000Z</time>
      </trkpt>
      <trkpt lat="44.80167" lon="1.21979">
        <ele>181</ele>
        <time>2019-02-02T06:46:00.000Z</time>
      </trkpt>
      <trkpt lat="44.80148" lon="1.21937">
        <ele>177</ele>
        <time>2019-02-02T06:47:00.000Z</time>
      </trkpt>
      <trkpt lat="44.80165" lon="1.21873">
        <ele>177</ele>
        <time>2019-02-02T06:48:00.000Z</time>
      </trkpt>
      <trkpt lat="44.80187" lon="1.21827">
        <ele>176</ele>
        <time>2019-02-02T06:49:00.000Z</time>
      </trkpt>
      <trkpt lat="44.80211" lon="1.21801">
        <ele>178</ele>
        <time>2019-02-02T06:50:00.000Z</time>
      </trkpt>
      <trkpt lat="44.80237" lon="1.21762">
        <ele>185</ele>
        <time>2019-02-02T06:51:00.000Z</time>
      </trkpt>
      <trkpt lat="44.80237" lon="1.21721">
        <ele>191</ele>
        <time>2019-02-02T06:52:00.000Z</time>
      </trkpt>
      <trkpt lat="44.80225" lon="1.21703">
        <ele>192</ele>
        <time>2019-02-02T06:53:00.000Z</time>
      </trkpt>
      <trkpt lat="44.8021" lon="1.21684">
        <ele>193</ele>
        <time>2019-02-02T06:54:00.000Z</time>
      </trkpt>
      <trkpt lat="44.8019" lon="1.21667">
        <ele>193</ele>
        <time>2019-02-02T06:55:00.000Z</time>
      </trkpt>
      <trkpt lat="44.80189" lon="1.21641">
        <ele>195</ele>
        <time>2019-02-02T06:56:00.000Z</time>
      </trkpt>
      <trkpt lat="44.80191" lon="1.21665">
        <ele>193</ele>
        <time>2019-02-02T06:57:00.000Z</time>
      </trkpt>
      <trkpt lat="44.80174" lon="1.21632">
        <ele>194</ele>
        <time>2019-02-02T06:58:00.000Z</time>
      </trkpt>
      <trkpt lat="44.80177" lon="1.21617">
        <ele>196</ele>
        <time>2019-02-02T06:59:00.000Z</time>
      </trkpt>
      <trkpt lat="44.80195" lon="1.21618">
        <ele>198</ele>
        <time>2019-02-02T07:00:00.000Z</time>
      </trkpt>
      <trkpt lat="44.802" lon="1.21594">
        <ele>202</ele>
        <time>2019-02-02T07:01:00.000Z</time>
      </trkpt>
      <trkpt lat="44.80186" lon="1.21572">
        <ele>201</ele>
        <time>2019-02-02T07:02:00.000Z</time>
      </trkpt>
      <trkpt lat="44.80183" lon="1.21549">
        <ele>202</ele>
        <time>2019-02-02T07:03:00.000Z</time>
      </trkpt>
      <trkpt lat="44.80186" lon="1.21536">
        <ele>203</ele>
        <time>2019-02-02T07:04:00.000Z</time>
      </trkpt>
      <trkpt lat="44.80176" lon="1.2152">
        <ele>202</ele>
        <time>2019-02-02T07:05:00.000Z</time>
      </trkpt>
      <trkpt lat="44.80168" lon="1.21491">
        <ele>202</ele>
        <time>2019-02-02T07:06:00.000Z</time>
      </trkpt>
      <trkpt lat="44.80191" lon="1.2149">
        <ele>205</ele>
        <time>2019-02-02T07:07:00.000Z</time>
      </trkpt>
      <trkpt lat="44.80212" lon="1.21481">
        <ele>207</ele>
        <time>2019-02-02T07:08:00.000Z</time>
      </trkpt>
      <trkpt lat="44.80225" lon="1.21474">
        <ele>208</ele>
        <time>2019-02-02T07:09:00.000Z</time>
      </trkpt>
      <trkpt lat="44.80237" lon="1.2146">
        <ele>209</ele>
        <time>2019-02-02T07:10:00.000Z</time>
      </trkpt>
      <trkpt lat="44.80244" lon="1.21483">
        <ele>210</ele>
        <time>2019-02-02T07:11:00.000Z</time>
      </trkpt>
      <trkpt lat="44.80241" lon="1.21496">
        <ele>210</ele>
        <time>2019-02-02T07:12:00.000Z</time>
      </trkpt>
      <trkpt lat="44.80251" lon="1.21509">
        <ele>211</ele>
        <time>2019-02-02T07:13:00.000Z</time>
      </trkpt>
      <trkpt lat="44.80243" lon="1.21537">
        <ele>210</ele>
        <time>2019-02-02T07:14:00.000Z</time>
      </trkpt>
      <trkpt lat="44.8026" lon="1.21554">
        <ele>211</ele>
        <time>2019-02-02T07:15:00.000Z</time>
      </trkpt>
      <trkpt lat="44.80273" lon="1.21559">
        <ele>212</ele>
        <time>2019-02-02T07:16:00.000Z</time>
      </trkpt>
      <trkpt lat="44.80303" lon="1.21551">
        <ele>214</ele>
        <time>2019-02-02T07:17:00.000Z</time>
      </trkpt>
      <trkpt lat="44.80333" lon="1.21513">
        <ele>217</ele>
        <time>2019-02-02T07:18:00.000Z</time>
      </trkpt>
      <trkpt lat="44.80329" lon="1.21494">
        <ele>216</ele>
        <time>2019-02-02T07:19:00.000Z</time>
      </trkpt>
      <trkpt lat="44.80339" lon="1.21475">
        <ele>214</ele>
        <time>2019-02-02T07:20:00.000Z</time>
      </trkpt>
      <trkpt lat="44.80329" lon="1.2145">
        <ele>214</ele>
        <time>2019-02-02T07:21:00.000Z</time>
      </trkpt>
      <trkpt lat="44.80335" lon="1.21435">
        <ele>213</ele>
        <time>2019-02-02T07:22:00.000Z</time>
      </trkpt>
      <trkpt lat="44.80308" lon="1.21427">
        <ele>212</ele>
        <time>2019-02-02T07:23:00.000Z</time>
      </trkpt>
      <trkpt lat="44.80299" lon="1.21431">
        <ele>212</ele>
        <time>2019-02-02T07:24:00.000Z</time>
      </trkpt>
      <trkpt lat="44.80271" lon="1.21452">
        <ele>212</ele>
        <time>2019-02-02T07:25:00.000Z</time>
      </trkpt>
      <trkpt lat="44.80253" lon="1.21462">
        <ele>211</ele>
        <time>2019-02-02T07:26:00.000Z</time>
      </trkpt>
      <trkpt lat="44.80235" lon="1.21479">
        <ele>209</ele>
        <time>2019-02-02T07:27:00.000Z</time>
      </trkpt>
      <trkpt lat="44.80242" lon="1.21447">
        <ele>209</ele>
        <time>2019-02-02T07:28:00.000Z</time>
      </trkpt>
      <trkpt lat="44.80224" lon="1.21459">
        <ele>208</ele>
        <time>2019-02-02T07:29:00.000Z</time>
      </trkpt>
      <trkpt lat="44.80213" lon="1.21483">
        <ele>207</ele>
        <time>2019-02-02T07:30:00.000Z</time>
      </trkpt>
      <trkpt lat="44.80205" lon="1.2149">
        <ele>206</ele>
        <time>2019-02-02T07:31:00.000Z</time>
      </trkpt>
      <trkpt lat="44.80229" lon="1.21472">
        <ele>208</ele>
        <time>2019-02-02T07:32:00.000Z</time>
      </trkpt>
      <trkpt lat="44.80249" lon="1.21471">
        <ele>211</ele>
        <time>2019-02-02T07:33:00.000Z</time>
      </trkpt>
      <trkpt lat="44.80275" lon="1.21443">
        <ele>212</ele>
        <time>2019-02-02T07:34:00.000Z</time>
      </trkpt>
      <trkpt lat="44.80293" lon="1.21442">
        <ele>212</ele>
        <time>2019-02-02T07:35:00.000Z</time>
      </trkpt>
      <trkpt lat="44.80299" lon="1.21431">
        <ele>212</ele>
        <time>2019-02-02T07:36:00.000Z</time>
      </trkpt>
      <trkpt lat="44.80318" lon="1.21447">
        <ele>214</ele>
        <time>2019-02-02T07:37:00.000Z</time>
      </trkpt>
      <trkpt lat="44.8034" lon="1.21429">
        <ele>210</ele>
        <time>2019-02-02T07:38:00.000Z</time>
      </trkpt>
      <trkpt lat="44.80369" lon="1.21433">
        <ele>197</ele>
        <time>2019-02-02T07:39:00.000Z</time>
      </trkpt>
      <trkpt lat="44.80376" lon="1.2142">
        <ele>192</ele>
        <time>2019-02-02T07:40:00.000Z</time>
      </trkpt>
      <trkpt lat="44.80374" lon="1.21433">
        <ele>195</ele>
        <time>2019-02-02T07:41:00.000Z</time>
      </trkpt>
      <trkpt lat="44.80363" lon="1.21421">
        <ele>199</ele>
        <time>2019-02-02T07:42:00.000Z</time>
      </trkpt>
      <trkpt lat="44.80375" lon="1.21443">
        <ele>196</ele>
        <time>2019-02-02T07:43:00.000Z</time>
      </trkpt>
      <trkpt lat="44.80373" lon="1.21417">
        <ele>194</ele>
        <time>2019-02-02T07:44:00.000Z</time>
      </trkpt>
      <trkpt lat="44.80375" lon="1.21432">
        <ele>194</ele>
        <time>2019-02-02T07:45:00.000Z</time>
      </trkpt>
      <trkpt lat="44.80356" lon="1.21422">
        <ele>202</ele>
        <time>2019-02-02T07:46:00.000Z</time>
      </trkpt>
      <trkpt lat="44.80341" lon="1.21423">
        <ele>210</ele>
        <time>2019-02-02T07:47:00.000Z</time>
      </trkpt>
      <trkpt lat="44.80328" lon="1.21428">
        <ele>213</ele>
        <time>2019-02-02T07:48:00.000Z</time>
      </trkpt>
      <trkpt lat="44.80318" lon="1.21438">
        <ele>213</ele>
        <time>2019-02-02T07:49:00.000Z</time>
      </trkpt>
      <trkpt lat="44.80301" lon="1.21425">
        <ele>212</ele>
        <time>2019-02-02T07:50:00.000Z</time>
      </trkpt>
      <trkpt lat="44.80278" lon="1.21415">
        <ele>211</ele>
        <time>2019-02-02T07:51:00.000Z</time>
      </trkpt>
      <trkpt lat="44.80292" lon="1.21439">
        <ele>212</ele>
        <time>2019-02-02T07:52:00.000Z</time>
      </trkpt>
      <trkpt lat="44.80307" lon="1.21423">
        <ele>212</ele>
        <time>2019-02-02T07:53:00.000Z</time>
      </trkpt>
      <trkpt lat="44.80315" lon="1.21449">
        <ele>214</ele>
        <time>2019-02-02T07:54:00.000Z</time>
      </trkpt>
      <trkpt lat="44.80322" lon="1.21425">
        <ele>213</ele>
        <time>2019-02-02T07:55:00.000Z</time>
      </trkpt>
      <trkpt lat="44.80307" lon="1.21434">
        <ele>213</ele>
        <time>2019-02-02T07:56:00.000Z</time>
      </trkpt>
      <trkpt lat="44.80301" lon="1.21424">
        <ele>212</ele>
        <time>2019-02-02T07:57:00.000Z</time>
      </trkpt>
      <trkpt lat="44.8029" lon="1.21442">
        <ele>212</ele>
        <time>2019-02-02T07:58:00.000Z</time>
      </trkpt>
      <trkpt lat="44.80232" lon="1.2149">
        <ele>209</ele>
        <time>2019-02-02T07:59:00.000Z</time>
      </trkpt>
      <trkpt lat="44.80195" lon="1.215">
        <ele>205</ele>
        <time>2019-02-02T08:00:00.000Z</time>
      </trkpt>
      <trkpt lat="44.80168" lon="1.21495">
        <ele>202</ele>
        <time>2019-02-02T08:01:00.000Z</time>
      </trkpt>
      <trkpt lat="44.80147" lon="1.21462">
        <ele>199</ele>
        <time>2019-02-02T08:02:00.000Z</time>
      </trkpt>
      <trkpt lat="44.80151" lon="1.21417">
        <ele>199</ele>
        <time>2019-02-02T08:03:00.000Z</time>
      </trkpt>
      <trkpt lat="44.8017" lon="1.21398">
        <ele>201</ele>
        <time>2019-02-02T08:04:00.000Z</time>
      </trkpt>
      <trkpt lat="44.80121" lon="1.21372">
        <ele>192</ele>
        <time>2019-02-02T08:05:00.000Z</time>
      </trkpt>
      <trkpt lat="44.80116" lon="1.21341">
        <ele>188</ele>
        <time>2019-02-02T08:06:00.000Z</time>
      </trkpt>
      <trkpt lat="44.80146" lon="1.21213">
        <ele>179</ele>
        <time>2019-02-02T08:07:00.000Z</time>
      </trkpt>
      <trkpt lat="44.8019" lon="1.20879">
        <ele>172</ele>
        <time>2019-02-02T08:08:00.000Z</time>
      </trkpt>
      <trkpt lat="44.80095" lon="1.20713">
        <ele>160</ele>
        <time>2019-02-02T08:09:00.000Z</time>
      </trkpt>
      <trkpt lat="44.80128" lon="1.20568">
        <ele>146</ele>
        <time>2019-02-02T08:10:00.000Z</time>
      </trkpt>
      <trkpt lat="44.80252" lon="1.20688">
        <ele>146</ele>
        <time>2019-02-02T08:11:00.000Z</time>
      </trkpt>
      <trkpt lat="44.80356" lon="1.20893">
        <ele>138</ele>
        <time>2019-02-02T08:12:00.000Z</time>
      </trkpt>
      <trkpt lat="44.80429" lon="1.21092">
        <ele>135</ele>
        <time>2019-02-02T08:13:00.000Z</time>
      </trkpt>
      <trkpt lat="44.80422" lon="1.20935">
        <ele>111</ele>
        <time>2019-02-02T08:14:00.000Z</time>
      </trkpt>
      <trkpt lat="44.80345" lon="1.20686">
        <ele>93</ele>
        <time>2019-02-02T08:15:00.000Z</time>
      </trkpt>
      <trkpt lat="44.80257" lon="1.20474">
        <ele>96</ele>
        <time>2019-02-02T08:16:00.000Z</time>
      </trkpt>
      <trkpt lat="44.80208" lon="1.20339">
        <ele>80</ele>
        <time>2019-02-02T08:17:00.000Z</time>
      </trkpt>
      <trkpt lat="44.80249" lon="1.20321">
        <ele>78</ele>
        <time>2019-02-02T08:18:00.000Z</time>
      </trkpt>
      <trkpt lat="44.80342" lon="1.20382">
        <ele>74</ele>
        <time>2019-02-02T08:19:00.000Z</time>
      </trkpt>
      <trkpt lat="44.80414" lon="1.204">
        <ele>72</ele>
        <time>2019-02-02T08:20:00.000Z</time>
      </trkpt>
      <trkpt lat="44.80482" lon="1.20439">
        <ele>73</ele>
        <time>2019-02-02T08:21:00.000Z</time>
      </trkpt>
      <trkpt lat="44.80547" lon="1.20453">
        <ele>71</ele>
        <time>2019-02-02T08:22:00.000Z</time>
      </trkpt>
      <trkpt lat="44.80601" lon="1.20479">
        <ele>70</ele>
        <time>2019-02-02T08:23:00.000Z</time>
      </trkpt>
      <trkpt lat="44.80676" lon="1.20504">
        <ele>72</ele>
        <time>2019-02-02T08:24:00.000Z</time>
      </trkpt>
      <trkpt lat="44.80759" lon="1.20525">
        <ele>73</ele>
        <time>2019-02-02T08:25:00.000Z</time>
      </trkpt>
      <trkpt lat="44.80846" lon="1.2057">
        <ele>76</ele>
        <time>2019-02-02T08:26:00.000Z</time>
      </trkpt>
      <trkpt lat="44.80933" lon="1.20617">
        <ele>79</ele>
        <time>2019-02-02T08:27:00.000Z</time>
      </trkpt>
      <trkpt lat="44.81054" lon="1.20531">
        <ele>78</ele>
        <time>2019-02-02T08:28:00.000Z</time>
      </trkpt>
      <trkpt lat="44.81104" lon="1.20481">
        <ele>77</ele>
        <time>2019-02-02T08:29:00.000Z</time>
      </trkpt>
      <trkpt lat="44.81135" lon="1.20429">
        <ele>78</ele>
        <time>2019-02-02T08:30:00.000Z</time>
      </trkpt>
      <trkpt lat="44.81186" lon="1.20374">
        <ele>81</ele>
        <time>2019-02-02T08:31:00.000Z</time>
      </trkpt>
      <trkpt lat="44.81228" lon="1.20322">
        <ele>83</ele>
        <time>2019-02-02T08:32:00.000Z</time>
      </trkpt>
      <trkpt lat="44.81275" lon="1.20254">
        <ele>84</ele>
        <time>2019-02-02T08:33:00.000Z</time>
      </trkpt>
      <trkpt lat="44.813" lon="1.2023">
        <ele>85</ele>
        <time>2019-02-02T08:34:00.000Z</time>
      </trkpt>
      <trkpt lat="44.8134" lon="1.20194">
        <ele>89</ele>
        <time>2019-02-02T08:35:00.000Z</time>
      </trkpt>
      <trkpt lat="44.81356" lon="1.20159">
        <ele>91</ele>
        <time>2019-02-02T08:36:00.000Z</time>
      </trkpt>
      <trkpt lat="44.8138" lon="1.20125">
        <ele>94</ele>
        <time>2019-02-02T08:37:00.000Z</time>
      </trkpt>
      <trkpt lat="44.81392" lon="1.2009">
        <ele>95</ele>
        <time>2019-02-02T08:38:00.000Z</time>
      </trkpt>
      <trkpt lat="44.81403" lon="1.20011">
        <ele>95</ele>
        <time>2019-02-02T08:39:00.000Z</time>
      </trkpt>
      <trkpt lat="44.81421" lon="1.19936">
        <ele>97</ele>
        <time>2019-02-02T08:40:00.000Z</time>
      </trkpt>
      <trkpt lat="44.81445" lon="1.19864">
        <ele>98</ele>
        <time>2019-02-02T08:41:00.000Z</time>
      </trkpt>
      <trkpt lat="44.81487" lon="1.19786">
        <ele>103</ele>
        <time>2019-02-02T08:42:00.000Z</time>
      </trkpt>
      <trkpt lat="44.81498" lon="1.19742">
        <ele>105</ele>
        <time>2019-02-02T08:43:00.000Z</time>
      </trkpt>
      <trkpt lat="44.81514" lon="1.19693">
        <ele>106</ele>
        <time>2019-02-02T08:44:00.000Z</time>
      </trkpt>
      <trkpt lat="44.81541" lon="1.19649">
        <ele>107</ele>
        <time>2019-02-02T08:45:00.000Z</time>
      </trkpt>
      <trkpt lat="44.81568" lon="1.19618">
        <ele>108</ele>
        <time>2019-02-02T08:46:00.000Z</time>
      </trkpt>
      <trkpt lat="44.8161" lon="1.19577">
        <ele>109</ele>
        <time>2019-02-02T08:47:00.000Z</time>
      </trkpt>
      <trkpt lat="44.81642" lon="1.1955">
        <ele>109</ele>
        <time>2019-02-02T08:48:00.000Z</time>
      </trkpt>
      <trkpt lat="44.81688" lon="1.19529">
        <ele>111</ele>
        <time>2019-02-02T08:49:00.000Z</time>
      </trkpt>
      <trkpt lat="44.81785" lon="1.19442">
        <ele>100</ele>
        <time>2019-02-02T08:50:00.000Z</time>
      </trkpt>
      <trkpt lat="44.81947" lon="1.19307">
        <ele>93</ele>
        <time>2019-02-02T08:51:00.000Z</time>
      </trkpt>
      <trkpt lat="44.82015" lon="1.19203">
        <ele>85</ele>
        <time>2019-02-02T08:52:00.000Z</time>
      </trkpt>
      <trkpt lat="44.82081" lon="1.19093">
        <ele>81</ele>
        <time>2019-02-02T08:53:00.000Z</time>
      </trkpt>
      <trkpt lat="44.82153" lon="1.19025">
        <ele>79</ele>
        <time>2019-02-02T08:54:00.000Z</time>
      </trkpt>
      <trkpt lat="44.82235" lon="1.18951">
        <ele>78</ele>
        <time>2019-02-02T08:55:00.000Z</time>
      </trkpt>
      <trkpt lat="44.82305" lon="1.18918">
        <ele>80</ele>
        <time>2019-02-02T08:56:00.000Z</time>
      </trkpt>
      <trkpt lat="44.82359" lon="1.18824">
        <ele>76</ele>
        <time>2019-02-02T08:57:00.000Z</time>
      </trkpt>
      <trkpt lat="44.82407" lon="1.18715">
        <ele>74</ele>
        <time>2019-02-02T08:58:00.000Z</time>
      </trkpt>
      <trkpt lat="44.82451" lon="1.18655">
        <ele>80</ele>
        <time>2019-02-02T08:59:00.000Z</time>
      </trkpt>
      <trkpt lat="44.82434" lon="1.18629">
        <ele>75</ele>
        <time>2019-02-02T09:00:00.000Z</time>
      </trkpt>
      <trkpt lat="44.82416" lon="1.18596">
        <ele>69</ele>
        <time>2019-02-02T09:01:00.000Z</time>
      </trkpt>
      <trkpt lat="44.82448" lon="1.18542">
        <ele>75</ele>
        <time>2019-02-02T09:02:00.000Z</time>
      </trkpt>
      <trkpt lat="44.82504" lon="1.18468">
        <ele>80</ele>
        <time>2019-02-02T09:03:00.000Z</time>
      </trkpt>
      <trkpt lat="44.82523" lon="1.184">
        <ele>83</ele>
        <time>2019-02-02T09:04:00.000Z</time>
      </trkpt>
      <trkpt lat="44.82537" lon="1.18324">
        <ele>78</ele>
        <time>2019-02-02T09:05:00.000Z</time>
      </trkpt>
      <trkpt lat="44.82581" lon="1.18253">
        <ele>77</ele>
        <time>2019-02-02T09:06:00.000Z</time>
      </trkpt>
      <trkpt lat="44.82611" lon="1.18239">
        <ele>97</ele>
        <time>2019-02-02T09:07:00.000Z</time>
      </trkpt>
      <trkpt lat="44.82627" lon="1.18149">
        <ele>92</ele>
        <time>2019-02-02T09:08:00.000Z</time>
      </trkpt>
      <trkpt lat="44.82644" lon="1.18085">
        <ele>83</ele>
        <time>2019-02-02T09:09:00.000Z</time>
      </trkpt>
      <trkpt lat="44.82658" lon="1.18018">
        <ele>75</ele>
        <time>2019-02-02T09:10:00.000Z</time>
      </trkpt>
      <trkpt lat="44.82702" lon="1.1796">
        <ele>80</ele>
        <time>2019-02-02T09:11:00.000Z</time>
      </trkpt>
      <trkpt lat="44.82721" lon="1.17895">
        <ele>81</ele>
        <time>2019-02-02T09:12:00.000Z</time>
      </trkpt>
      <trkpt lat="44.82707" lon="1.17856">
        <ele>80</ele>
        <time>2019-02-02T09:13:00.000Z</time>
      </trkpt>
      <trkpt lat="44.82705" lon="1.17795">
        <ele>88</ele>
        <time>2019-02-02T09:14:00.000Z</time>
      </trkpt>
      <trkpt lat="44.82692" lon="1.17693">
        <ele>99</ele>
        <time>2019-02-02T09:15:00.000Z</time>
      </trkpt>
      <trkpt lat="44.82665" lon="1.17618">
        <ele>108</ele>
        <time>2019-02-02T09:16:00.000Z</time>
      </trkpt>
      <trkpt lat="44.82614" lon="1.17561">
        <ele>98</ele>
        <time>2019-02-02T09:17:00.000Z</time>
      </trkpt>
      <trkpt lat="44.82548" lon="1.17492">
        <ele>84</ele>
        <time>2019-02-02T09:18:00.000Z</time>
      </trkpt>
      <trkpt lat="44.82526" lon="1.17395">
        <ele>84</ele>
        <time>2019-02-02T09:19:00.000Z</time>
      </trkpt>
      <trkpt lat="44.82528" lon="1.17311">
        <ele>95</ele>
        <time>2019-02-02T09:20:00.000Z</time>
      </trkpt>
      <trkpt lat="44.8252" lon="1.17226">
        <ele>99</ele>
        <time>2019-02-02T09:21:00.000Z</time>
      </trkpt>
      <trkpt lat="44.82497" lon="1.17117">
        <ele>96</ele>
        <time>2019-02-02T09:22:00.000Z</time>
      </trkpt>
      <trkpt lat="44.82477" lon="1.17027">
        <ele>99</ele>
        <time>2019-02-02T09:23:00.000Z</time>
      </trkpt>
      <trkpt lat="44.82438" lon="1.1692">
        <ele>91</ele>
        <time>2019-02-02T09:24:00.000Z</time>
      </trkpt>
      <trkpt lat="44.8241" lon="1.16829">
        <ele>87</ele>
        <time>2019-02-02T09:25:00.000Z</time>
      </trkpt>
      <trkpt lat="44.8237" lon="1.16704">
        <ele>94</ele>
        <time>2019-02-02T09:26:00.000Z</time>
      </trkpt>
      <trkpt lat="44.82341" lon="1.16618">
        <ele>95</ele>
        <time>2019-02-02T09:27:00.000Z</time>
      </trkpt>
      <trkpt lat="44.82288" lon="1.16522">
        <ele>91</ele>
        <time>2019-02-02T09:28:00.000Z</time>
      </trkpt>
      <trkpt lat="44.82241" lon="1.16418">
        <ele>82</ele>
        <time>2019-02-02T09:29:00.000Z</time>
      </trkpt>
      <trkpt lat="44.82208" lon="1.16296">
        <ele>85</ele>
        <time>2019-02-02T09:30:00.000Z</time>
      </trkpt>
      <trkpt lat="44.82188" lon="1.1618">
        <ele>82</ele>
        <time>2019-02-02T09:31:00.000Z</time>
      </trkpt>
      <trkpt lat="44.82186" lon="1.16078">
        <ele>80</ele>
        <time>2019-02-02T09:32:00.000Z</time>
      </trkpt>
      <trkpt lat="44.82184" lon="1.15994">
        <ele>77</ele>
        <time>2019-02-02T09:33:00.000Z</time>
      </trkpt>
      <trkpt lat="44.82204" lon="1.15908">
        <ele>79</ele>
        <time>2019-02-02T09:34:00.000Z</time>
      </trkpt>
      <trkpt lat="44.82233" lon="1.15841">
        <ele>80</ele>
        <time>2019-02-02T09:35:00.000Z</time>
      </trkpt>
      <trkpt lat="44.82276" lon="1.15793">
        <ele>83</ele>
        <time>2019-02-02T09:36:00.000Z</time>
      </trkpt>
      <trkpt lat="44.82296" lon="1.15749">
        <ele>81</ele>
        <time>2019-02-02T09:37:00.000Z</time>
      </trkpt>
      <trkpt lat="44.82343" lon="1.15716">
        <ele>83</ele>
        <time>2019-02-02T09:38:00.000Z</time>
      </trkpt>
      <trkpt lat="44.82377" lon="1.1567">
        <ele>80</ele>
        <time>2019-02-02T09:39:00.000Z</time>
      </trkpt>
      <trkpt lat="44.82418" lon="1.15597">
        <ele>78</ele>
        <time>2019-02-02T09:40:00.000Z</time>
      </trkpt>
      <trkpt lat="44.8246" lon="1.15543">
        <ele>79</ele>
        <time>2019-02-02T09:41:00.000Z</time>
      </trkpt>
      <trkpt lat="44.82515" lon="1.15492">
        <ele>79</ele>
        <time>2019-02-02T09:42:00.000Z</time>
      </trkpt>
      <trkpt lat="44.82586" lon="1.15457">
        <ele>78</ele>
        <time>2019-02-02T09:43:00.000Z</time>
      </trkpt>
      <trkpt lat="44.8267" lon="1.15405">
        <ele>74</ele>
        <time>2019-02-02T09:44:00.000Z</time>
      </trkpt>
      <trkpt lat="44.8276" lon="1.15372">
        <ele>77</ele>
        <time>2019-02-02T09:45:00.000Z</time>
      </trkpt>
      <trkpt lat="44.82847" lon="1.15347">
        <ele>77</ele>
        <time>2019-02-02T09:46:00.000Z</time>
      </trkpt>
      <trkpt lat="44.82915" lon="1.15296">
        <ele>73</ele>
        <time>2019-02-02T09:47:00.000Z</time>
      </trkpt>
      <trkpt lat="44.83006" lon="1.15281">
        <ele>71</ele>
        <time>2019-02-02T09:48:00.000Z</time>
      </trkpt>
      <trkpt lat="44.8309" lon="1.15278">
        <ele>68</ele>
        <time>2019-02-02T09:49:00.000Z</time>
      </trkpt>
      <trkpt lat="44.83198" lon="1.15268">
        <ele>69</ele>
        <time>2019-02-02T09:50:00.000Z</time>
      </trkpt>
      <trkpt lat="44.83258" lon="1.1533">
        <ele>69</ele>
        <time>2019-02-02T09:51:00.000Z</time>
      </trkpt>
      <trkpt lat="44.83323" lon="1.15401">
        <ele>68</ele>
        <time>2019-02-02T09:52:00.000Z</time>
      </trkpt>
      <trkpt lat="44.83376" lon="1.15369">
        <ele>68</ele>
        <time>2019-02-02T09:53:00.000Z</time>
      </trkpt>
      <trkpt lat="44.83406" lon="1.15256">
        <ele>66</ele>
        <time>2019-02-02T09:54:00.000Z</time>
      </trkpt>
      <trkpt lat="44.83484" lon="1.15206">
        <ele>67</ele>
        <time>2019-02-02T09:55:00.000Z</time>
      </trkpt>
      <trkpt lat="44.83574" lon="1.15173">
        <ele>68</ele>
        <time>2019-02-02T09:56:00.000Z</time>
      </trkpt>
      <trkpt lat="44.8366" lon="1.1515">
        <ele>69</ele>
        <time>2019-02-02T09:57:00.000Z</time>
      </trkpt>
      <trkpt lat="44.83738" lon="1.15075">
        <ele>66</ele>
        <time>2019-02-02T09:58:00.000Z</time>
      </trkpt>
      <trkpt lat="44.83785" lon="1.14991">
        <ele>66</ele>
        <time>2019-02-02T09:59:00.000Z</time>
      </trkpt>
      <trkpt lat="44.83797" lon="1.14927">
        <ele>65</ele>
        <time>2019-02-02T10:00:00.000Z</time>
      </trkpt>
      <trkpt lat="44.83805" lon="1.14919">
        <ele>65</ele>
        <time>2019-02-02T10:01:00.000Z</time>
      </trkpt>
      <trkpt lat="44.83813" lon="1.14894">
        <ele>65</ele>
        <time>2019-02-02T10:02:00.000Z</time>
      </trkpt>
      <trkpt lat="44.83825" lon="1.14863">
        <ele>66</ele>
        <time>2019-02-02T10:03:00.000Z</time>
      </trkpt>
      <trkpt lat="44.83852" lon="1.14808">
        <ele>67</ele>
        <time>2019-02-02T10:04:00.000Z</time>
      </trkpt>
      <trkpt lat="44.83865" lon="1.14784">
        <ele>68</ele>
        <time>2019-02-02T10:05:00.000Z</time>
      </trkpt>
      <trkpt lat="44.83878" lon="1.14759">
        <ele>69</ele>
        <time>2019-02-02T10:06:00.000Z</time>
      </trkpt>
      <trkpt lat="44.83885" lon="1.14746">
        <ele>70</ele>
        <time>2019-02-02T10:07:00.000Z</time>
      </trkpt>
      <trkpt lat="44.8389" lon="1.14732">
        <ele>72</ele>
        <time>2019-02-02T10:08:00.000Z</time>
      </trkpt>
      <trkpt lat="44.83895" lon="1.14721">
        <ele>73</ele>
        <time>2019-02-02T10:09:00.000Z</time>
      </trkpt>
      <trkpt lat="44.83905" lon="1.147">
        <ele>76</ele>
        <time>2019-02-02T10:10:00.000Z</time>
      </trkpt>
      <trkpt lat="44.83915" lon="1.14677">
        <ele>79</ele>
        <time>2019-02-02T10:11:00.000Z</time>
      </trkpt>
      <trkpt lat="44.8392" lon="1.14652">
        <ele>82</ele>
        <time>2019-02-02T10:12:00.000Z</time>
      </trkpt>
      <trkpt lat="44.83922" lon="1.1463">
        <ele>84</ele>
        <time>2019-02-02T10:13:00.000Z</time>
      </trkpt>
      <trkpt lat="44.83926" lon="1.14605">
        <ele>88</ele>
        <time>2019-02-02T10:14:00.000Z</time>
      </trkpt>
      <trkpt lat="44.83931" lon="1.14575">
        <ele>91</ele>
        <time>2019-02-02T10:15:00.000Z</time>
      </trkpt>
      <trkpt lat="44.83934" lon="1.1455">
        <ele>93</ele>
        <time>2019-02-02T10:16:00.000Z</time>
      </trkpt>
      <trkpt lat="44.83935" lon="1.14518">
        <ele>93</ele>
        <time>2019-02-02T10:17:00.000Z</time>
      </trkpt>
      <trkpt lat="44.83936" lon="1.14491">
        <ele>93</ele>
        <time>2019-02-02T10:18:00.000Z</time>
      </trkpt>
      <trkpt lat="44.83936" lon="1.14464">
        <ele>91</ele>
        <time>2019-02-02T10:19:00.000Z</time>
      </trkpt>
      <trkpt lat="44.83936" lon="1.14433">
        <ele>89</ele>
        <time>2019-02-02T10:20:00.000Z</time>
      </trkpt>
      <trkpt lat="44.83938" lon="1.14402">
        <ele>86</ele>
        <time>2019-02-02T10:21:00.000Z</time>
      </trkpt>
      <trkpt lat="44.8394" lon="1.14371">
        <ele>83</ele>
        <time>2019-02-02T10:22:00.000Z</time>
      </trkpt>
      <trkpt lat="44.83944" lon="1.1434">
        <ele>81</ele>
        <time>2019-02-02T10:23:00.000Z</time>
      </trkpt>
      <trkpt lat="44.83953" lon="1.14311">
        <ele>80</ele>
        <time>2019-02-02T10:24:00.000Z</time>
      </trkpt>
      <trkpt lat="44.83962" lon="1.14285">
        <ele>78</ele>
        <time>2019-02-02T10:25:00.000Z</time>
      </trkpt>
      <trkpt lat="44.83969" lon="1.14263">
        <ele>76</ele>
        <time>2019-02-02T10:26:00.000Z</time>
      </trkpt>
      <trkpt lat="44.83977" lon="1.1424">
        <ele>74</ele>
        <time>2019-02-02T10:27:00.000Z</time>
      </trkpt>
      <trkpt lat="44.8398" lon="1.14228">
        <ele>75</ele>
        <time>2019-02-02T10:28:00.000Z</time>
      </trkpt>
      <trkpt lat="44.83986" lon="1.14214">
        <ele>75</ele>
        <time>2019-02-02T10:29:00.000Z</time>
      </trkpt>
      <trkpt lat="44.83993" lon="1.14206">
        <ele>75</ele>
        <time>2019-02-02T10:30:00.000Z</time>
      </trkpt>
      <trkpt lat="44.84002" lon="1.14217">
        <ele>77</ele>
        <time>2019-02-02T10:31:00.000Z</time>
      </trkpt>
      <trkpt lat="44.84014" lon="1.14225">
        <ele>80</ele>
        <time>2019-02-02T10:32:00.000Z</time>
      </trkpt>
      <trkpt lat="44.84037" lon="1.14235">
        <ele>85</ele>
        <time>2019-02-02T10:33:00.000Z</time>
      </trkpt>
      <trkpt lat="44.84059" lon="1.14248">
        <ele>88</ele>
        <time>2019-02-02T10:34:00.000Z</time>
      </trkpt>
      <trkpt lat="44.84071" lon="1.14258">
        <ele>91</ele>
        <time>2019-02-02T10:35:00.000Z</time>
      </trkpt>
      <trkpt lat="44.8408" lon="1.14267">
        <ele>93</ele>
        <time>2019-02-02T10:36:00.000Z</time>
      </trkpt>
      <trkpt lat="44.84085" lon="1.14278">
        <ele>95</ele>
        <time>2019-02-02T10:37:00.000Z</time>
      </trkpt>
      <trkpt lat="44.84092" lon="1.14287">
        <ele>97</ele>
        <time>2019-02-02T10:38:00.000Z</time>
      </trkpt>
      <trkpt lat="44.841" lon="1.14294">
        <ele>99</ele>
        <time>2019-02-02T10:39:00.000Z</time>
      </trkpt>
      <trkpt lat="44.84106" lon="1.14304">
        <ele>100</ele>
        <time>2019-02-02T10:40:00.000Z</time>
      </trkpt>
      <trkpt lat="44.84115" lon="1.14313">
        <ele>101</ele>
        <time>2019-02-02T10:41:00.000Z</time>
      </trkpt>
      <trkpt lat="44.84126" lon="1.14323">
        <ele>102</ele>
        <time>2019-02-02T10:42:00.000Z</time>
      </trkpt>
      <trkpt lat="44.84133" lon="1.14335">
        <ele>101</ele>
        <time>2019-02-02T10:43:00.000Z</time>
      </trkpt>
      <trkpt lat="44.8414" lon="1.14345">
        <ele>102</ele>
        <time>2019-02-02T10:44:00.000Z</time>
      </trkpt>
      <trkpt lat="44.84149" lon="1.14353">
        <ele>103</ele>
        <time>2019-02-02T10:45:00.000Z</time>
      </trkpt>
      <trkpt lat="44.84159" lon="1.14359">
        <ele>103</ele>
        <time>2019-02-02T10:46:00.000Z</time>
      </trkpt>
      <trkpt lat="44.84168" lon="1.14363">
        <ele>103</ele>
        <time>2019-02-02T10:47:00.000Z</time>
      </trkpt>
      <trkpt lat="44.84176" lon="1.14369">
        <ele>105</ele>
        <time>2019-02-02T10:48:00.000Z</time>
      </trkpt>
      <trkpt lat="44.84185" lon="1.14376">
        <ele>106</ele>
        <time>2019-02-02T10:49:00.000Z</time>
      </trkpt>
      <trkpt lat="44.84193" lon="1.14384">
        <ele>107</ele>
        <time>2019-02-02T10:50:00.000Z</time>
      </trkpt>
      <trkpt lat="44.84201" lon="1.14393">
        <ele>107</ele>
        <time>2019-02-02T10:51:00.000Z</time>
      </trkpt>
      <trkpt lat="44.84209" lon="1.144">
        <ele>107</ele>
        <time>2019-02-02T10:52:00.000Z</time>
      </trkpt>
      <trkpt lat="44.84218" lon="1.14407">
        <ele>107</ele>
        <time>2019-02-02T10:53:00.000Z</time>
      </trkpt>
      <trkpt lat="44.84236" lon="1.14418">
        <ele>106</ele>
        <time>2019-02-02T10:54:00.000Z</time>
      </trkpt>
      <trkpt lat="44.84245" lon="1.14423">
        <ele>107</ele>
        <time>2019-02-02T10:55:00.000Z</time>
      </trkpt>
      <trkpt lat="44.84254" lon="1.14425">
        <ele>108</ele>
        <time>2019-02-02T10:56:00.000Z</time>
      </trkpt>
      <trkpt lat="44.84264" lon="1.14428">
        <ele>109</ele>
        <time>2019-02-02T10:57:00.000Z</time>
      </trkpt>
      <trkpt lat="44.84273" lon="1.14432">
        <ele>110</ele>
        <time>2019-02-02T10:58:00.000Z</time>
      </trkpt>
      <trkpt lat="44.84282" lon="1.1443">
        <ele>111</ele>
        <time>2019-02-02T10:59:00.000Z</time>
      </trkpt>
      <trkpt lat="44.84295" lon="1.14431">
        <ele>112</ele>
        <time>2019-02-02T11:00:00.000Z</time>
      </trkpt>
      <trkpt lat="44.84305" lon="1.14434">
        <ele>113</ele>
        <time>2019-02-02T11:01:00.000Z</time>
      </trkpt>
      <trkpt lat="44.84316" lon="1.14433">
        <ele>114</ele>
        <time>2019-02-02T11:02:00.000Z</time>
      </trkpt>
      <trkpt lat="44.84326" lon="1.14434">
        <ele>115</ele>
        <time>2019-02-02T11:03:00.000Z</time>
      </trkpt>
      <trkpt lat="44.84336" lon="1.14438">
        <ele>116</ele>
        <time>2019-02-02T11:04:00.000Z</time>
      </trkpt>
      <trkpt lat="44.84346" lon="1.14441">
        <ele>116</ele>
        <time>2019-02-02T11:05:00.000Z</time>
      </trkpt>
      <trkpt lat="44.84354" lon="1.14447">
        <ele>117</ele>
        <time>2019-02-02T11:06:00.000Z</time>
      </trkpt>
      <trkpt lat="44.84364" lon="1.14452">
        <ele>117</ele>
        <time>2019-02-02T11:07:00.000Z</time>
      </trkpt>
      <trkpt lat="44.84373" lon="1.14459">
        <ele>117</ele>
        <time>2019-02-02T11:08:00.000Z</time>
      </trkpt>
      <trkpt lat="44.84383" lon="1.14465">
        <ele>117</ele>
        <time>2019-02-02T11:09:00.000Z</time>
      </trkpt>
      <trkpt lat="44.84393" lon="1.14472">
        <ele>117</ele>
        <time>2019-02-02T11:10:00.000Z</time>
      </trkpt>
      <trkpt lat="44.84415" lon="1.14484">
        <ele>117</ele>
        <time>2019-02-02T11:11:00.000Z</time>
      </trkpt>
      <trkpt lat="44.84423" lon="1.1449">
        <ele>117</ele>
        <time>2019-02-02T11:12:00.000Z</time>
      </trkpt>
      <trkpt lat="44.84443" lon="1.1451">
        <ele>118</ele>
        <time>2019-02-02T11:13:00.000Z</time>
      </trkpt>
      <trkpt lat="44.84464" lon="1.14523">
        <ele>120</ele>
        <time>2019-02-02T11:14:00.000Z</time>
      </trkpt>
      <trkpt lat="44.84475" lon="1.14526">
        <ele>120</ele>
        <time>2019-02-02T11:15:00.000Z</time>
      </trkpt>
      <trkpt lat="44.84487" lon="1.14532">
        <ele>121</ele>
        <time>2019-02-02T11:16:00.000Z</time>
      </trkpt>
      <trkpt lat="44.84495" lon="1.1454">
        <ele>120</ele>
        <time>2019-02-02T11:17:00.000Z</time>
      </trkpt>
      <trkpt lat="44.84505" lon="1.14552">
        <ele>120</ele>
        <time>2019-02-02T11:18:00.000Z</time>
      </trkpt>
      <trkpt lat="44.84515" lon="1.14564">
        <ele>119</ele>
        <time>2019-02-02T11:19:00.000Z</time>
      </trkpt>
      <trkpt lat="44.84527" lon="1.14577">
        <ele>118</ele>
        <time>2019-02-02T11:20:00.000Z</time>
      </trkpt>
      <trkpt lat="44.84541" lon="1.14586">
        <ele>118</ele>
        <time>2019-02-02T11:21:00.000Z</time>
      </trkpt>
      <trkpt lat="44.84554" lon="1.14592">
        <ele>119</ele>
        <time>2019-02-02T11:22:00.000Z</time>
      </trkpt>
      <trkpt lat="44.84536" lon="1.1463">
        <ele>119</ele>
        <time>2019-02-02T11:23:00.000Z</time>
      </trkpt>
      <trkpt lat="44.84495" lon="1.1464">
        <ele>119</ele>
        <time>2019-02-02T11:24:00.000Z</time>
      </trkpt>
      <trkpt lat="44.84489" lon="1.14629">
        <ele>119</ele>
        <time>2019-02-02T11:25:00.000Z</time>
      </trkpt>
      <trkpt lat="44.84431" lon="1.14633">
        <ele>124</ele>
        <time>2019-02-02T11:26:00.000Z</time>
      </trkpt>
      <trkpt lat="44.84399" lon="1.14627">
        <ele>127</ele>
        <time>2019-02-02T11:27:00.000Z</time>
      </trkpt>
      <trkpt lat="44.84368" lon="1.14673">
        <ele>137</ele>
        <time>2019-02-02T11:28:00.000Z</time>
      </trkpt>
      <trkpt lat="44.84338" lon="1.14707">
        <ele>143</ele>
        <time>2019-02-02T11:29:00.000Z</time>
      </trkpt>
      <trkpt lat="44.84318" lon="1.14701">
        <ele>145</ele>
        <time>2019-02-02T11:30:00.000Z</time>
      </trkpt>
      <trkpt lat="44.843" lon="1.147">
        <ele>147</ele>
        <time>2019-02-02T11:31:00.000Z</time>
      </trkpt>
      <trkpt lat="44.84288" lon="1.14691">
        <ele>148</ele>
        <time>2019-02-02T11:32:00.000Z</time>
      </trkpt>
      <trkpt lat="44.84244" lon="1.14703">
        <ele>153</ele>
        <time>2019-02-02T11:33:00.000Z</time>
      </trkpt>
      <trkpt lat="44.84221" lon="1.14667">
        <ele>152</ele>
        <time>2019-02-02T11:34:00.000Z</time>
      </trkpt>
      <trkpt lat="44.84177" lon="1.14659">
        <ele>152</ele>
        <time>2019-02-02T11:35:00.000Z</time>
      </trkpt>
      <trkpt lat="44.84136" lon="1.14651">
        <ele>152</ele>
        <time>2019-02-02T11:36:00.000Z</time>
      </trkpt>
      <trkpt lat="44.84099" lon="1.14672">
        <ele>155</ele>
        <time>2019-02-02T11:37:00.000Z</time>
      </trkpt>
      <trkpt lat="44.84086" lon="1.14701">
        <ele>159</ele>
        <time>2019-02-02T11:38:00.000Z</time>
      </trkpt>
      <trkpt lat="44.84073" lon="1.14689">
        <ele>153</ele>
        <time>2019-02-02T11:39:00.000Z</time>
      </trkpt>
      <trkpt lat="44.84064" lon="1.14704">
        <ele>150</ele>
        <time>2019-02-02T11:40:00.000Z</time>
      </trkpt>
      <trkpt lat="44.84052" lon="1.14686">
        <ele>144</ele>
        <time>2019-02-02T11:41:00.000Z</time>
      </trkpt>
      <trkpt lat="44.84057" lon="1.14671">
        <ele>145</ele>
        <time>2019-02-02T11:42:00.000Z</time>
      </trkpt>
      <trkpt lat="44.83992" lon="1.14652">
        <ele>119</ele>
        <time>2019-02-02T11:43:00.000Z</time>
      </trkpt>
      <trkpt lat="44.84038" lon="1.1463">
        <ele>137</ele>
        <time>2019-02-02T11:44:00.000Z</time>
      </trkpt>
      <trkpt lat="44.84034" lon="1.14613">
        <ele>136</ele>
        <time>2019-02-02T11:45:00.000Z</time>
      </trkpt>
      <trkpt lat="44.84047" lon="1.14605">
        <ele>140</ele>
        <time>2019-02-02T11:46:00.000Z</time>
      </trkpt>
      <trkpt lat="44.84032" lon="1.14581">
        <ele>135</ele>
        <time>2019-02-02T11:47:00.000Z</time>
      </trkpt>
      <trkpt lat="44.84039" lon="1.14595">
        <ele>137</ele>
        <time>2019-02-02T11:48:00.000Z</time>
      </trkpt>
      <trkpt lat="44.84054" lon="1.14588">
        <ele>142</ele>
        <time>2019-02-02T11:49:00.000Z</time>
      </trkpt>
      <trkpt lat="44.8406" lon="1.14563">
        <ele>142</ele>
        <time>2019-02-02T11:50:00.000Z</time>
      </trkpt>
      <trkpt lat="44.84059" lon="1.14544">
        <ele>141</ele>
        <time>2019-02-02T11:51:00.000Z</time>
      </trkpt>
      <trkpt lat="44.84075" lon="1.14514">
        <ele>144</ele>
        <time>2019-02-02T11:52:00.000Z</time>
      </trkpt>
      <trkpt lat="44.84077" lon="1.14484">
        <ele>140</ele>
        <time>2019-02-02T11:53:00.000Z</time>
      </trkpt>
      <trkpt lat="44.8409" lon="1.14476">
        <ele>137</ele>
        <time>2019-02-02T11:54:00.000Z</time>
      </trkpt>
      <trkpt lat="44.84095" lon="1.14454">
        <ele>130</ele>
        <time>2019-02-02T11:55:00.000Z</time>
      </trkpt>
      <trkpt lat="44.84088" lon="1.14436">
        <ele>126</ele>
        <time>2019-02-02T11:56:00.000Z</time>
      </trkpt>
      <trkpt lat="44.84073" lon="1.14428">
        <ele>123</ele>
        <time>2019-02-02T11:57:00.000Z</time>
      </trkpt>
      <trkpt lat="44.84077" lon="1.14415">
        <ele>121</ele>
        <time>2019-02-02T11:58:00.000Z</time>
      </trkpt>
      <trkpt lat="44.84056" lon="1.14403">
        <ele>115</ele>
        <time>2019-02-02T11:59:00.000Z</time>
      </trkpt>
      <trkpt lat="44.84071" lon="1.14391">
        <ele>113</ele>
        <time>2019-02-02T12:00:00.000Z</time>
      </trkpt>
      <trkpt lat="44.84124" lon="1.14439">
        <ele>118</ele>
        <time>2019-02-02T12:01:00.000Z</time>
      </trkpt>
      <trkpt lat="44.84182" lon="1.14451">
        <ele>110</ele>
        <time>2019-02-02T12:02:00.000Z</time>
      </trkpt>
      <trkpt lat="44.84225" lon="1.14458">
        <ele>110</ele>
        <time>2019-02-02T12:03:00.000Z</time>
      </trkpt>
      <trkpt lat="44.84222" lon="1.14438">
        <ele>108</ele>
        <time>2019-02-02T12:04:00.000Z</time>
      </trkpt>
      <trkpt lat="44.84269" lon="1.14442">
        <ele>110</ele>
        <time>2019-02-02T12:05:00.000Z</time>
      </trkpt>
      <trkpt lat="44.84222" lon="1.14396">
        <ele>109</ele>
        <time>2019-02-02T12:06:00.000Z</time>
      </trkpt>
      <trkpt lat="44.8414" lon="1.14342">
        <ele>102</ele>
        <time>2019-02-02T12:07:00.000Z</time>
      </trkpt>
      <trkpt lat="44.8406" lon="1.14298">
        <ele>94</ele>
        <time>2019-02-02T12:08:00.000Z</time>
      </trkpt>
      <trkpt lat="44.84007" lon="1.1422">
        <ele>78</ele>
        <time>2019-02-02T12:09:00.000Z</time>
      </trkpt>
      <trkpt lat="44.83973" lon="1.14237">
        <ele>74</ele>
        <time>2019-02-02T12:10:00.000Z</time>
      </trkpt>
      <trkpt lat="44.8397" lon="1.14314">
        <ele>85</ele>
        <time>2019-02-02T12:11:00.000Z</time>
      </trkpt>
      <trkpt lat="44.83941" lon="1.14377">
        <ele>84</ele>
        <time>2019-02-02T12:12:00.000Z</time>
      </trkpt>
      <trkpt lat="44.83936" lon="1.14494">
        <ele>93</ele>
        <time>2019-02-02T12:13:00.000Z</time>
      </trkpt>
      <trkpt lat="44.83928" lon="1.14581">
        <ele>90</ele>
        <time>2019-02-02T12:14:00.000Z</time>
      </trkpt>
      <trkpt lat="44.83914" lon="1.14663">
        <ele>80</ele>
        <time>2019-02-02T12:15:00.000Z</time>
      </trkpt>
      <trkpt lat="44.8388" lon="1.14745">
        <ele>70</ele>
        <time>2019-02-02T12:16:00.000Z</time>
      </trkpt>
      <trkpt lat="44.83831" lon="1.14861">
        <ele>66</ele>
        <time>2019-02-02T12:17:00.000Z</time>
      </trkpt>
      <trkpt lat="44.83786" lon="1.14961">
        <ele>66</ele>
        <time>2019-02-02T12:18:00.000Z</time>
      </trkpt>
      <trkpt lat="44.83735" lon="1.1507">
        <ele>66</ele>
        <time>2019-02-02T12:19:00.000Z</time>
      </trkpt>
      <trkpt lat="44.83657" lon="1.15137">
        <ele>68</ele>
        <time>2019-02-02T12:20:00.000Z</time>
      </trkpt>
      <trkpt lat="44.83571" lon="1.15183">
        <ele>67</ele>
        <time>2019-02-02T12:21:00.000Z</time>
      </trkpt>
      <trkpt lat="44.83474" lon="1.15209">
        <ele>67</ele>
        <time>2019-02-02T12:22:00.000Z</time>
      </trkpt>
      <trkpt lat="44.83398" lon="1.15266">
        <ele>67</ele>
        <time>2019-02-02T12:23:00.000Z</time>
      </trkpt>
      <trkpt lat="44.83359" lon="1.15388">
        <ele>68</ele>
        <time>2019-02-02T12:24:00.000Z</time>
      </trkpt>
      <trkpt lat="44.83284" lon="1.15343">
        <ele>69</ele>
        <time>2019-02-02T12:25:00.000Z</time>
      </trkpt>
      <trkpt lat="44.8322" lon="1.15281">
        <ele>69</ele>
        <time>2019-02-02T12:26:00.000Z</time>
      </trkpt>
      <trkpt lat="44.83128" lon="1.15286">
        <ele>68</ele>
        <time>2019-02-02T12:27:00.000Z</time>
      </trkpt>
      <trkpt lat="44.83025" lon="1.15285">
        <ele>70</ele>
        <time>2019-02-02T12:28:00.000Z</time>
      </trkpt>
      <trkpt lat="44.82956" lon="1.15296">
        <ele>72</ele>
        <time>2019-02-02T12:29:00.000Z</time>
      </trkpt>
      <trkpt lat="44.82905" lon="1.15323">
        <ele>74</ele>
        <time>2019-02-02T12:30:00.000Z</time>
      </trkpt>
      <trkpt lat="44.82816" lon="1.15355">
        <ele>77</ele>
        <time>2019-02-02T12:31:00.000Z</time>
      </trkpt>
      <trkpt lat="44.82739" lon="1.15387">
        <ele>76</ele>
        <time>2019-02-02T12:32:00.000Z</time>
      </trkpt>
      <trkpt lat="44.82655" lon="1.15422">
        <ele>74</ele>
        <time>2019-02-02T12:33:00.000Z</time>
      </trkpt>
      <trkpt lat="44.82592" lon="1.15453">
        <ele>77</ele>
        <time>2019-02-02T12:34:00.000Z</time>
      </trkpt>
      <trkpt lat="44.82533" lon="1.15491">
        <ele>79</ele>
        <time>2019-02-02T12:35:00.000Z</time>
      </trkpt>
      <trkpt lat="44.82439" lon="1.15565">
        <ele>78</ele>
        <time>2019-02-02T12:36:00.000Z</time>
      </trkpt>
      <trkpt lat="44.82377" lon="1.15654">
        <ele>79</ele>
        <time>2019-02-02T12:37:00.000Z</time>
      </trkpt>
      <trkpt lat="44.8231" lon="1.15738">
        <ele>82</ele>
        <time>2019-02-02T12:38:00.000Z</time>
      </trkpt>
      <trkpt lat="44.82205" lon="1.15716">
        <ele>73</ele>
        <time>2019-02-02T12:39:00.000Z</time>
      </trkpt>
      <trkpt lat="44.82058" lon="1.15627">
        <ele>69</ele>
        <time>2019-02-02T12:40:00.000Z</time>
      </trkpt>
      <trkpt lat="44.81938" lon="1.15541">
        <ele>71</ele>
        <time>2019-02-02T12:41:00.000Z</time>
      </trkpt>
      <trkpt lat="44.81841" lon="1.15469">
        <ele>68</ele>
        <time>2019-02-02T12:42:00.000Z</time>
      </trkpt>
      <trkpt lat="44.81742" lon="1.154">
        <ele>66</ele>
        <time>2019-02-02T12:43:00.000Z</time>
      </trkpt>
      <trkpt lat="44.81661" lon="1.15336">
        <ele>67</ele>
        <time>2019-02-02T12:44:00.000Z</time>
      </trkpt>
      <trkpt lat="44.81601" lon="1.15295">
        <ele>66</ele>
        <time>2019-02-02T12:45:00.000Z</time>
      </trkpt>
      <trkpt lat="44.81545" lon="1.15255">
        <ele>65</ele>
        <time>2019-02-02T12:46:00.000Z</time>
      </trkpt>
      <trkpt lat="44.81482" lon="1.15207">
        <ele>65</ele>
        <time>2019-02-02T12:47:00.000Z</time>
      </trkpt>
      <trkpt lat="44.81402" lon="1.15159">
        <ele>72</ele>
        <time>2019-02-02T12:48:00.000Z</time>
      </trkpt>
      <trkpt lat="44.81369" lon="1.1513">
        <ele>80</ele>
        <time>2019-02-02T12:49:00.000Z</time>
      </trkpt>
      <trkpt lat="44.8136" lon="1.15134">
        <ele>80</ele>
        <time>2019-02-02T12:50:00.000Z</time>
      </trkpt>
      <trkpt lat="44.81353" lon="1.15145">
        <ele>79</ele>
        <time>2019-02-02T12:51:00.000Z</time>
      </trkpt>
      <trkpt lat="44.81357" lon="1.15132">
        <ele>81</ele>
        <time>2019-02-02T12:52:00.000Z</time>
      </trkpt>
      <trkpt lat="44.81364" lon="1.15121">
        <ele>82</ele>
        <time>2019-02-02T12:53:00.000Z</time>
      </trkpt>
      <trkpt lat="44.81373" lon="1.15097">
        <ele>85</ele>
        <time>2019-02-02T12:54:00.000Z</time>
      </trkpt>
      <trkpt lat="44.81378" lon="1.15085">
        <ele>86</ele>
        <time>2019-02-02T12:55:00.000Z</time>
      </trkpt>
      <trkpt lat="44.81385" lon="1.15076">
        <ele>87</ele>
        <time>2019-02-02T12:56:00.000Z</time>
      </trkpt>
      <trkpt lat="44.8138" lon="1.15086">
        <ele>86</ele>
        <time>2019-02-02T12:57:00.000Z</time>
      </trkpt>
      <trkpt lat="44.8137" lon="1.151">
        <ele>85</ele>
        <time>2019-02-02T12:58:00.000Z</time>
      </trkpt>
      <trkpt lat="44.81361" lon="1.15116">
        <ele>84</ele>
        <time>2019-02-02T12:59:00.000Z</time>
      </trkpt>
      <trkpt lat="44.8135" lon="1.15135">
        <ele>81</ele>
        <time>2019-02-02T13:00:00.000Z</time>
      </trkpt>
      <trkpt lat="44.81339" lon="1.15149">
        <ele>79</ele>
        <time>2019-02-02T13:01:00.000Z</time>
      </trkpt>
      <trkpt lat="44.81309" lon="1.15167">
        <ele>81</ele>
        <time>2019-02-02T13:02:00.000Z</time>
      </trkpt>
      <trkpt lat="44.81292" lon="1.15182">
        <ele>82</ele>
        <time>2019-02-02T13:03:00.000Z</time>
      </trkpt>
      <trkpt lat="44.81279" lon="1.15192">
        <ele>82</ele>
        <time>2019-02-02T13:04:00.000Z</time>
      </trkpt>
      <trkpt lat="44.81267" lon="1.15182">
        <ele>86</ele>
        <time>2019-02-02T13:05:00.000Z</time>
      </trkpt>
      <trkpt lat="44.81278" lon="1.15167">
        <ele>87</ele>
        <time>2019-02-02T13:06:00.000Z</time>
      </trkpt>
      <trkpt lat="44.81287" lon="1.15161">
        <ele>87</ele>
        <time>2019-02-02T13:07:00.000Z</time>
      </trkpt>
      <trkpt lat="44.81294" lon="1.15154">
        <ele>88</ele>
        <time>2019-02-02T13:08:00.000Z</time>
      </trkpt>
      <trkpt lat="44.81304" lon="1.15149">
        <ele>87</ele>
        <time>2019-02-02T13:09:00.000Z</time>
      </trkpt>
      <trkpt lat="44.81313" lon="1.15144">
        <ele>86</ele>
        <time>2019-02-02T13:10:00.000Z</time>
      </trkpt>
      <trkpt lat="44.81321" lon="1.15135">
        <ele>87</ele>
        <time>2019-02-02T13:11:00.000Z</time>
      </trkpt>
      <trkpt lat="44.81328" lon="1.15127">
        <ele>87</ele>
        <time>2019-02-02T13:12:00.000Z</time>
      </trkpt>
      <trkpt lat="44.81335" lon="1.15116">
        <ele>87</ele>
        <time>2019-02-02T13:13:00.000Z</time>
      </trkpt>
      <trkpt lat="44.8134" lon="1.15105">
        <ele>89</ele>
        <time>2019-02-02T13:14:00.000Z</time>
      </trkpt>
      <trkpt lat="44.81343" lon="1.15092">
        <ele>91</ele>
        <time>2019-02-02T13:15:00.000Z</time>
      </trkpt>
      <trkpt lat="44.81344" lon="1.15079">
        <ele>94</ele>
        <time>2019-02-02T13:16:00.000Z</time>
      </trkpt>
      <trkpt lat="44.81345" lon="1.15066">
        <ele>95</ele>
        <time>2019-02-02T13:17:00.000Z</time>
      </trkpt>
      <trkpt lat="44.81346" lon="1.15051">
        <ele>98</ele>
        <time>2019-02-02T13:18:00.000Z</time>
      </trkpt>
      <trkpt lat="44.81344" lon="1.15037">
        <ele>100</ele>
        <time>2019-02-02T13:19:00.000Z</time>
      </trkpt>
      <trkpt lat="44.81343" lon="1.15022">
        <ele>103</ele>
        <time>2019-02-02T13:20:00.000Z</time>
      </trkpt>
      <trkpt lat="44.81342" lon="1.1501">
        <ele>105</ele>
        <time>2019-02-02T13:21:00.000Z</time>
      </trkpt>
      <trkpt lat="44.81341" lon="1.14995">
        <ele>106</ele>
        <time>2019-02-02T13:22:00.000Z</time>
      </trkpt>
      <trkpt lat="44.81342" lon="1.14982">
        <ele>107</ele>
        <time>2019-02-02T13:23:00.000Z</time>
      </trkpt>
      <trkpt lat="44.8134" lon="1.14969">
        <ele>108</ele>
        <time>2019-02-02T13:24:00.000Z</time>
      </trkpt>
      <trkpt lat="44.81337" lon="1.14955">
        <ele>108</ele>
        <time>2019-02-02T13:25:00.000Z</time>
      </trkpt>
      <trkpt lat="44.81336" lon="1.14942">
        <ele>109</ele>
        <time>2019-02-02T13:26:00.000Z</time>
      </trkpt>
      <trkpt lat="44.81334" lon="1.14929">
        <ele>110</ele>
        <time>2019-02-02T13:27:00.000Z</time>
      </trkpt>
      <trkpt lat="44.81335" lon="1.14915">
        <ele>110</ele>
        <time>2019-02-02T13:28:00.000Z</time>
      </trkpt>
      <trkpt lat="44.81334" lon="1.14901">
        <ele>110</ele>
        <time>2019-02-02T13:29:00.000Z</time>
      </trkpt>
      <trkpt lat="44.81332" lon="1.14887">
        <ele>110</ele>
        <time>2019-02-02T13:30:00.000Z</time>
      </trkpt>
      <trkpt lat="44.81328" lon="1.14861">
        <ele>111</ele>
        <time>2019-02-02T13:31:00.000Z</time>
      </trkpt>
      <trkpt lat="44.81323" lon="1.1485">
        <ele>113</ele>
        <time>2019-02-02T13:32:00.000Z</time>
      </trkpt>
      <trkpt lat="44.81319" lon="1.14838">
        <ele>115</ele>
        <time>2019-02-02T13:33:00.000Z</time>
      </trkpt>
      <trkpt lat="44.81316" lon="1.14825">
        <ele>117</ele>
        <time>2019-02-02T13:34:00.000Z</time>
      </trkpt>
      <trkpt lat="44.81311" lon="1.14813">
        <ele>121</ele>
        <time>2019-02-02T13:35:00.000Z</time>
      </trkpt>
      <trkpt lat="44.81307" lon="1.14801">
        <ele>123</ele>
        <time>2019-02-02T13:36:00.000Z</time>
      </trkpt>
      <trkpt lat="44.81303" lon="1.14788">
        <ele>126</ele>
        <time>2019-02-02T13:37:00.000Z</time>
      </trkpt>
      <trkpt lat="44.81301" lon="1.14775">
        <ele>128</ele>
        <time>2019-02-02T13:38:00.000Z</time>
      </trkpt>
      <trkpt lat="44.81302" lon="1.14761">
        <ele>128</ele>
        <time>2019-02-02T13:39:00.000Z</time>
      </trkpt>
      <trkpt lat="44.81304" lon="1.14748">
        <ele>128</ele>
        <time>2019-02-02T13:40:00.000Z</time>
      </trkpt>
      <trkpt lat="44.81305" lon="1.14719">
        <ele>130</ele>
        <time>2019-02-02T13:41:00.000Z</time>
      </trkpt>
      <trkpt lat="44.81305" lon="1.14704">
        <ele>131</ele>
        <time>2019-02-02T13:42:00.000Z</time>
      </trkpt>
      <trkpt lat="44.81306" lon="1.14689">
        <ele>132</ele>
        <time>2019-02-02T13:43:00.000Z</time>
      </trkpt>
      <trkpt lat="44.81307" lon="1.14661">
        <ele>134</ele>
        <time>2019-02-02T13:44:00.000Z</time>
      </trkpt>
      <trkpt lat="44.81305" lon="1.14647">
        <ele>136</ele>
        <time>2019-02-02T13:45:00.000Z</time>
      </trkpt>
      <trkpt lat="44.81304" lon="1.14632">
        <ele>138</ele>
        <time>2019-02-02T13:46:00.000Z</time>
      </trkpt>
      <trkpt lat="44.81304" lon="1.14618">
        <ele>140</ele>
        <time>2019-02-02T13:47:00.000Z</time>
      </trkpt>
      <trkpt lat="44.81305" lon="1.14605">
        <ele>141</ele>
        <time>2019-02-02T13:48:00.000Z</time>
      </trkpt>
      <trkpt lat="44.81308" lon="1.14592">
        <ele>141</ele>
        <time>2019-02-02T13:49:00.000Z</time>
      </trkpt>
      <trkpt lat="44.81311" lon="1.14579">
        <ele>141</ele>
        <time>2019-02-02T13:50:00.000Z</time>
      </trkpt>
      <trkpt lat="44.81316" lon="1.14552">
        <ele>143</ele>
        <time>2019-02-02T13:51:00.000Z</time>
      </trkpt>
      <trkpt lat="44.81319" lon="1.14539">
        <ele>143</ele>
        <time>2019-02-02T13:52:00.000Z</time>
      </trkpt>
      <trkpt lat="44.81323" lon="1.14527">
        <ele>143</ele>
        <time>2019-02-02T13:53:00.000Z</time>
      </trkpt>
      <trkpt lat="44.81326" lon="1.14513">
        <ele>144</ele>
        <time>2019-02-02T13:54:00.000Z</time>
      </trkpt>
      <trkpt lat="44.8133" lon="1.14501">
        <ele>144</ele>
        <time>2019-02-02T13:55:00.000Z</time>
      </trkpt>
      <trkpt lat="44.81337" lon="1.1449">
        <ele>145</ele>
        <time>2019-02-02T13:56:00.000Z</time>
      </trkpt>
      <trkpt lat="44.81346" lon="1.14485">
        <ele>147</ele>
        <time>2019-02-02T13:57:00.000Z</time>
      </trkpt>
      <trkpt lat="44.81356" lon="1.14483">
        <ele>149</ele>
        <time>2019-02-02T13:58:00.000Z</time>
      </trkpt>
      <trkpt lat="44.81366" lon="1.14482">
        <ele>151</ele>
        <time>2019-02-02T13:59:00.000Z</time>
      </trkpt>
      <trkpt lat="44.81375" lon="1.1448">
        <ele>153</ele>
        <time>2019-02-02T14:00:00.000Z</time>
      </trkpt>
      <trkpt lat="44.81381" lon="1.14454">
        <ele>155</ele>
        <time>2019-02-02T14:01:00.000Z</time>
      </trkpt>
      <trkpt lat="44.81381" lon="1.14438">
        <ele>156</ele>
        <time>2019-02-02T14:02:00.000Z</time>
      </trkpt>
      <trkpt lat="44.81381" lon="1.14424">
        <ele>156</ele>
        <time>2019-02-02T14:03:00.000Z</time>
      </trkpt>
      <trkpt lat="44.81382" lon="1.14411">
        <ele>157</ele>
        <time>2019-02-02T14:04:00.000Z</time>
      </trkpt>
      <trkpt lat="44.81383" lon="1.14398">
        <ele>158</ele>
        <time>2019-02-02T14:05:00.000Z</time>
      </trkpt>
      <trkpt lat="44.81382" lon="1.14383">
        <ele>158</ele>
        <time>2019-02-02T14:06:00.000Z</time>
      </trkpt>
      <trkpt lat="44.81384" lon="1.14369">
        <ele>159</ele>
        <time>2019-02-02T14:07:00.000Z</time>
      </trkpt>
      <trkpt lat="44.81383" lon="1.14355">
        <ele>159</ele>
        <time>2019-02-02T14:08:00.000Z</time>
      </trkpt>
      <trkpt lat="44.81382" lon="1.14341">
        <ele>160</ele>
        <time>2019-02-02T14:09:00.000Z</time>
      </trkpt>
      <trkpt lat="44.81384" lon="1.14328">
        <ele>161</ele>
        <time>2019-02-02T14:10:00.000Z</time>
      </trkpt>
      <trkpt lat="44.81382" lon="1.14315">
        <ele>161</ele>
        <time>2019-02-02T14:11:00.000Z</time>
      </trkpt>
      <trkpt lat="44.81381" lon="1.14302">
        <ele>162</ele>
        <time>2019-02-02T14:12:00.000Z</time>
      </trkpt>
      <trkpt lat="44.81379" lon="1.14275">
        <ele>163</ele>
        <time>2019-02-02T14:13:00.000Z</time>
      </trkpt>
      <trkpt lat="44.81379" lon="1.14261">
        <ele>164</ele>
        <time>2019-02-02T14:14:00.000Z</time>
      </trkpt>
      <trkpt lat="44.81377" lon="1.14248">
        <ele>165</ele>
        <time>2019-02-02T14:15:00.000Z</time>
      </trkpt>
      <trkpt lat="44.81375" lon="1.14235">
        <ele>166</ele>
        <time>2019-02-02T14:16:00.000Z</time>
      </trkpt>
      <trkpt lat="44.81371" lon="1.14222">
        <ele>166</ele>
        <time>2019-02-02T14:17:00.000Z</time>
      </trkpt>
      <trkpt lat="44.81368" lon="1.14208">
        <ele>167</ele>
        <time>2019-02-02T14:18:00.000Z</time>
      </trkpt>
      <trkpt lat="44.81365" lon="1.14196">
        <ele>167</ele>
        <time>2019-02-02T14:19:00.000Z</time>
      </trkpt>
      <trkpt lat="44.81361" lon="1.14183">
        <ele>167</ele>
        <time>2019-02-02T14:20:00.000Z</time>
      </trkpt>
      <trkpt lat="44.81358" lon="1.1417">
        <ele>168</ele>
        <time>2019-02-02T14:21:00.000Z</time>
      </trkpt>
      <trkpt lat="44.81353" lon="1.14159">
        <ele>167</ele>
        <time>2019-02-02T14:22:00.000Z</time>
      </trkpt>
      <trkpt lat="44.8135" lon="1.14131">
        <ele>167</ele>
        <time>2019-02-02T14:23:00.000Z</time>
      </trkpt>
      <trkpt lat="44.8135" lon="1.14118">
        <ele>168</ele>
        <time>2019-02-02T14:24:00.000Z</time>
      </trkpt>
      <trkpt lat="44.81351" lon="1.14104">
        <ele>169</ele>
        <time>2019-02-02T14:25:00.000Z</time>
      </trkpt>
      <trkpt lat="44.81354" lon="1.1409">
        <ele>170</ele>
        <time>2019-02-02T14:26:00.000Z</time>
      </trkpt>
      <trkpt lat="44.8136" lon="1.14064">
        <ele>172</ele>
        <time>2019-02-02T14:27:00.000Z</time>
      </trkpt>
      <trkpt lat="44.81361" lon="1.1405">
        <ele>173</ele>
        <time>2019-02-02T14:28:00.000Z</time>
      </trkpt>
      <trkpt lat="44.81361" lon="1.14036">
        <ele>174</ele>
        <time>2019-02-02T14:29:00.000Z</time>
      </trkpt>
      <trkpt lat="44.81358" lon="1.14022">
        <ele>174</ele>
        <time>2019-02-02T14:30:00.000Z</time>
      </trkpt>
      <trkpt lat="44.81354" lon="1.14009">
        <ele>175</ele>
        <time>2019-02-02T14:31:00.000Z</time>
      </trkpt>
      <trkpt lat="44.81343" lon="1.13987">
        <ele>175</ele>
        <time>2019-02-02T14:32:00.000Z</time>
      </trkpt>
      <trkpt lat="44.81338" lon="1.13974">
        <ele>176</ele>
        <time>2019-02-02T14:33:00.000Z</time>
      </trkpt>
      <trkpt lat="44.81332" lon="1.13965">
        <ele>177</ele>
        <time>2019-02-02T14:34:00.000Z</time>
      </trkpt>
      <trkpt lat="44.81325" lon="1.13954">
        <ele>179</ele>
        <time>2019-02-02T14:35:00.000Z</time>
      </trkpt>
      <trkpt lat="44.81317" lon="1.13945">
        <ele>180</ele>
        <time>2019-02-02T14:36:00.000Z</time>
      </trkpt>
      <trkpt lat="44.81311" lon="1.13934">
        <ele>182</ele>
        <time>2019-02-02T14:37:00.000Z</time>
      </trkpt>
      <trkpt lat="44.81303" lon="1.13927">
        <ele>183</ele>
        <time>2019-02-02T14:38:00.000Z</time>
      </trkpt>
      <trkpt lat="44.81295" lon="1.13918">
        <ele>185</ele>
        <time>2019-02-02T14:39:00.000Z</time>
      </trkpt>
      <trkpt lat="44.81287" lon="1.13912">
        <ele>185</ele>
        <time>2019-02-02T14:40:00.000Z</time>
      </trkpt>
      <trkpt lat="44.81278" lon="1.13907">
        <ele>186</ele>
        <time>2019-02-02T14:41:00.000Z</time>
      </trkpt>
      <trkpt lat="44.81268" lon="1.13909">
        <ele>186</ele>
        <time>2019-02-02T14:42:00.000Z</time>
      </trkpt>
      <trkpt lat="44.81258" lon="1.13908">
        <ele>187</ele>
        <time>2019-02-02T14:43:00.000Z</time>
      </trkpt>
      <trkpt lat="44.81248" lon="1.13906">
        <ele>188</ele>
        <time>2019-02-02T14:44:00.000Z</time>
      </trkpt>
      <trkpt lat="44.81239" lon="1.13906">
        <ele>189</ele>
        <time>2019-02-02T14:45:00.000Z</time>
      </trkpt>
      <trkpt lat="44.81229" lon="1.13906">
        <ele>189</ele>
        <time>2019-02-02T14:46:00.000Z</time>
      </trkpt>
      <trkpt lat="44.8121" lon="1.13901">
        <ele>191</ele>
        <time>2019-02-02T14:47:00.000Z</time>
      </trkpt>
      <trkpt lat="44.81202" lon="1.13896">
        <ele>192</ele>
        <time>2019-02-02T14:48:00.000Z</time>
      </trkpt>
      <trkpt lat="44.81193" lon="1.13892">
        <ele>193</ele>
        <time>2019-02-02T14:49:00.000Z</time>
      </trkpt>
      <trkpt lat="44.81183" lon="1.13889">
        <ele>194</ele>
        <time>2019-02-02T14:50:00.000Z</time>
      </trkpt>
      <trkpt lat="44.81172" lon="1.13885">
        <ele>195</ele>
        <time>2019-02-02T14:51:00.000Z</time>
      </trkpt>
      <trkpt lat="44.81163" lon="1.13882">
        <ele>196</ele>
        <time>2019-02-02T14:52:00.000Z</time>
      </trkpt>
      <trkpt lat="44.81154" lon="1.13879">
        <ele>196</ele>
        <time>2019-02-02T14:53:00.000Z</time>
      </trkpt>
      <trkpt lat="44.81144" lon="1.1388">
        <ele>197</ele>
        <time>2019-02-02T14:54:00.000Z</time>
      </trkpt>
      <trkpt lat="44.81134" lon="1.13877">
        <ele>198</ele>
        <time>2019-02-02T14:55:00.000Z</time>
      </trkpt>
      <trkpt lat="44.81125" lon="1.13878">
        <ele>198</ele>
        <time>2019-02-02T14:56:00.000Z</time>
      </trkpt>
      <trkpt lat="44.81105" lon="1.13879">
        <ele>200</ele>
        <time>2019-02-02T14:57:00.000Z</time>
      </trkpt>
      <trkpt lat="44.81095" lon="1.13882">
        <ele>201</ele>
        <time>2019-02-02T14:58:00.000Z</time>
      </trkpt>
      <trkpt lat="44.81085" lon="1.13886">
        <ele>201</ele>
        <time>2019-02-02T14:59:00.000Z</time>
      </trkpt>
      <trkpt lat="44.81075" lon="1.1389">
        <ele>202</ele>
        <time>2019-02-02T15:00:00.000Z</time>
      </trkpt>
      <trkpt lat="44.81065" lon="1.13893">
        <ele>203</ele>
        <time>2019-02-02T15:01:00.000Z</time>
      </trkpt>
      <trkpt lat="44.81056" lon="1.13897">
        <ele>204</ele>
        <time>2019-02-02T15:02:00.000Z</time>
      </trkpt>
      <trkpt lat="44.81046" lon="1.139">
        <ele>205</ele>
        <time>2019-02-02T15:03:00.000Z</time>
      </trkpt>
      <trkpt lat="44.81038" lon="1.13904">
        <ele>205</ele>
        <time>2019-02-02T15:04:00.000Z</time>
      </trkpt>
      <trkpt lat="44.81029" lon="1.13909">
        <ele>206</ele>
        <time>2019-02-02T15:05:00.000Z</time>
      </trkpt>
      <trkpt lat="44.81019" lon="1.13912">
        <ele>207</ele>
        <time>2019-02-02T15:06:00.000Z</time>
      </trkpt>
      <trkpt lat="44.81011" lon="1.13917">
        <ele>208</ele>
        <time>2019-02-02T15:07:00.000Z</time>
      </trkpt>
      <trkpt lat="44.80992" lon="1.13921">
        <ele>210</ele>
        <time>2019-02-02T15:08:00.000Z</time>
      </trkpt>
      <trkpt lat="44.80982" lon="1.13925">
        <ele>211</ele>
        <time>2019-02-02T15:09:00.000Z</time>
      </trkpt>
      <trkpt lat="44.80963" lon="1.13934">
        <ele>213</ele>
        <time>2019-02-02T15:10:00.000Z</time>
      </trkpt>
      <trkpt lat="44.80954" lon="1.13937">
        <ele>214</ele>
        <time>2019-02-02T15:11:00.000Z</time>
      </trkpt>
      <trkpt lat="44.80945" lon="1.13937">
        <ele>215</ele>
        <time>2019-02-02T15:12:00.000Z</time>
      </trkpt>
      <trkpt lat="44.80925" lon="1.13934">
        <ele>217</ele>
        <time>2019-02-02T15:13:00.000Z</time>
      </trkpt>
      <trkpt lat="44.80916" lon="1.13932">
        <ele>218</ele>
        <time>2019-02-02T15:14:00.000Z</time>
      </trkpt>
      <trkpt lat="44.80905" lon="1.13931">
        <ele>219</ele>
        <time>2019-02-02T15:15:00.000Z</time>
      </trkpt>
      <trkpt lat="44.80895" lon="1.13927">
        <ele>220</ele>
        <time>2019-02-02T15:16:00.000Z</time>
      </trkpt>
      <trkpt lat="44.80875" lon="1.13924">
        <ele>221</ele>
        <time>2019-02-02T15:17:00.000Z</time>
      </trkpt>
      <trkpt lat="44.80866" lon="1.13921">
        <ele>222</ele>
        <time>2019-02-02T15:18:00.000Z</time>
      </trkpt>
      <trkpt lat="44.80857" lon="1.13917">
        <ele>222</ele>
        <time>2019-02-02T15:19:00.000Z</time>
      </trkpt>
      <trkpt lat="44.80847" lon="1.13918">
        <ele>223</ele>
        <time>2019-02-02T15:20:00.000Z</time>
      </trkpt>
      <trkpt lat="44.80838" lon="1.13921">
        <ele>224</ele>
        <time>2019-02-02T15:21:00.000Z</time>
      </trkpt>
      <trkpt lat="44.8083" lon="1.13926">
        <ele>224</ele>
        <time>2019-02-02T15:22:00.000Z</time>
      </trkpt>
      <trkpt lat="44.80821" lon="1.13934">
        <ele>223</ele>
        <time>2019-02-02T15:23:00.000Z</time>
      </trkpt>
      <trkpt lat="44.80812" lon="1.13935">
        <ele>222</ele>
        <time>2019-02-02T15:24:00.000Z</time>
      </trkpt>
      <trkpt lat="44.80799" lon="1.13931">
        <ele>222</ele>
        <time>2019-02-02T15:25:00.000Z</time>
      </trkpt>
      <trkpt lat="44.80771" lon="1.13918">
        <ele>220</ele>
        <time>2019-02-02T15:26:00.000Z</time>
      </trkpt>
      <trkpt lat="44.80747" lon="1.13884">
        <ele>219</ele>
        <time>2019-02-02T15:27:00.000Z</time>
      </trkpt>
      <trkpt lat="44.80719" lon="1.13834">
        <ele>219</ele>
        <time>2019-02-02T15:28:00.000Z</time>
      </trkpt>
      <trkpt lat="44.80719" lon="1.13798">
        <ele>220</ele>
        <time>2019-02-02T15:29:00.000Z</time>
      </trkpt>
      <trkpt lat="44.80739" lon="1.13786">
        <ele>219</ele>
        <time>2019-02-02T15:30:00.000Z</time>
      </trkpt>
      <trkpt lat="44.80749" lon="1.13779">
        <ele>219</ele>
        <time>2019-02-02T15:31:00.000Z</time>
      </trkpt>
      <trkpt lat="44.80769" lon="1.13765">
        <ele>219</ele>
        <time>2019-02-02T15:32:00.000Z</time>
      </trkpt>
      <trkpt lat="44.80793" lon="1.13751">
        <ele>218</ele>
        <time>2019-02-02T15:33:00.000Z</time>
      </trkpt>
      <trkpt lat="44.80808" lon="1.13732">
        <ele>216</ele>
        <time>2019-02-02T15:34:00.000Z</time>
      </trkpt>
      <trkpt lat="44.80825" lon="1.13687">
        <ele>214</ele>
        <time>2019-02-02T15:35:00.000Z</time>
      </trkpt>
      <trkpt lat="44.8084" lon="1.13638">
        <ele>213</ele>
        <time>2019-02-02T15:36:00.000Z</time>
      </trkpt>
      <trkpt lat="44.80857" lon="1.13588">
        <ele>214</ele>
        <time>2019-02-02T15:37:00.000Z</time>
      </trkpt>
      <trkpt lat="44.80871" lon="1.13558">
        <ele>217</ele>
        <time>2019-02-02T15:38:00.000Z</time>
      </trkpt>
      <trkpt lat="44.80879" lon="1.13545">
        <ele>218</ele>
        <time>2019-02-02T15:39:00.000Z</time>
      </trkpt>
      <trkpt lat="44.80886" lon="1.13531">
        <ele>219</ele>
        <time>2019-02-02T15:40:00.000Z</time>
      </trkpt>
      <trkpt lat="44.80895" lon="1.13515">
        <ele>220</ele>
        <time>2019-02-02T15:41:00.000Z</time>
      </trkpt>
      <trkpt lat="44.80911" lon="1.13505">
        <ele>219</ele>
        <time>2019-02-02T15:42:00.000Z</time>
      </trkpt>
      <trkpt lat="44.80956" lon="1.13528">
        <ele>212</ele>
        <time>2019-02-02T15:43:00.000Z</time>
      </trkpt>
      <trkpt lat="44.81012" lon="1.13548">
        <ele>207</ele>
        <time>2019-02-02T15:44:00.000Z</time>
      </trkpt>
      <trkpt lat="44.81061" lon="1.13537">
        <ele>206</ele>
        <time>2019-02-02T15:45:00.000Z</time>
      </trkpt>
      <trkpt lat="44.81098" lon="1.13523">
        <ele>207</ele>
        <time>2019-02-02T15:46:00.000Z</time>
      </trkpt>
      <trkpt lat="44.81132" lon="1.135">
        <ele>209</ele>
        <time>2019-02-02T15:47:00.000Z</time>
      </trkpt>
      <trkpt lat="44.81149" lon="1.13491">
        <ele>210</ele>
        <time>2019-02-02T15:48:00.000Z</time>
      </trkpt>
      <trkpt lat="44.81158" lon="1.13473">
        <ele>211</ele>
        <time>2019-02-02T15:49:00.000Z</time>
      </trkpt>
      <trkpt lat="44.8116" lon="1.13454">
        <ele>212</ele>
        <time>2019-02-02T15:50:00.000Z</time>
      </trkpt>
      <trkpt lat="44.81159" lon="1.13439">
        <ele>213</ele>
        <time>2019-02-02T15:51:00.000Z</time>
      </trkpt>
      <trkpt lat="44.81157" lon="1.13393">
        <ele>214</ele>
        <time>2019-02-02T15:52:00.000Z</time>
      </trkpt>
      <trkpt lat="44.81155" lon="1.13367">
        <ele>214</ele>
        <time>2019-02-02T15:53:00.000Z</time>
      </trkpt>
      <trkpt lat="44.81159" lon="1.13354">
        <ele>215</ele>
        <time>2019-02-02T15:54:00.000Z</time>
      </trkpt>
      <trkpt lat="44.81169" lon="1.13339">
        <ele>216</ele>
        <time>2019-02-02T15:55:00.000Z</time>
      </trkpt>
      <trkpt lat="44.8118" lon="1.13325">
        <ele>215</ele>
        <time>2019-02-02T15:56:00.000Z</time>
      </trkpt>
      <trkpt lat="44.81201" lon="1.133">
        <ele>214</ele>
        <time>2019-02-02T15:57:00.000Z</time>
      </trkpt>
      <trkpt lat="44.81235" lon="1.13258">
        <ele>214</ele>
        <time>2019-02-02T15:58:00.000Z</time>
      </trkpt>
      <trkpt lat="44.81269" lon="1.13219">
        <ele>212</ele>
        <time>2019-02-02T15:59:00.000Z</time>
      </trkpt>
      <trkpt lat="44.81301" lon="1.13196">
        <ele>210</ele>
        <time>2019-02-02T16:00:00.000Z</time>
      </trkpt>
      <trkpt lat="44.81334" lon="1.13169">
        <ele>211</ele>
        <time>2019-02-02T16:01:00.000Z</time>
      </trkpt>
      <trkpt lat="44.81356" lon="1.1314">
        <ele>211</ele>
        <time>2019-02-02T16:02:00.000Z</time>
      </trkpt>
      <trkpt lat="44.81373" lon="1.13124">
        <ele>211</ele>
        <time>2019-02-02T16:03:00.000Z</time>
      </trkpt>
      <trkpt lat="44.8139" lon="1.13112">
        <ele>211</ele>
        <time>2019-02-02T16:04:00.000Z</time>
      </trkpt>
      <trkpt lat="44.81409" lon="1.13092">
        <ele>212</ele>
        <time>2019-02-02T16:05:00.000Z</time>
      </trkpt>
      <trkpt lat="44.81439" lon="1.1307">
        <ele>212</ele>
        <time>2019-02-02T16:06:00.000Z</time>
      </trkpt>
      <trkpt lat="44.81469" lon="1.1304">
        <ele>211</ele>
        <time>2019-02-02T16:07:00.000Z</time>
      </trkpt>
      <trkpt lat="44.815" lon="1.13008">
        <ele>211</ele>
        <time>2019-02-02T16:08:00.000Z</time>
      </trkpt>
      <trkpt lat="44.81535" lon="1.12991">
        <ele>209</ele>
        <time>2019-02-02T16:09:00.000Z</time>
      </trkpt>
      <trkpt lat="44.81565" lon="1.12972">
        <ele>207</ele>
        <time>2019-02-02T16:10:00.000Z</time>
      </trkpt>
      <trkpt lat="44.81593" lon="1.12957">
        <ele>205</ele>
        <time>2019-02-02T16:11:00.000Z</time>
      </trkpt>
      <trkpt lat="44.81617" lon="1.12947">
        <ele>204</ele>
        <time>2019-02-02T16:12:00.000Z</time>
      </trkpt>
      <trkpt lat="44.81646" lon="1.12951">
        <ele>204</ele>
        <time>2019-02-02T16:13:00.000Z</time>
      </trkpt>
      <trkpt lat="44.81675" lon="1.12963">
        <ele>204</ele>
        <time>2019-02-02T16:14:00.000Z</time>
      </trkpt>
      <trkpt lat="44.81705" lon="1.12976">
        <ele>204</ele>
        <time>2019-02-02T16:15:00.000Z</time>
      </trkpt>
      <trkpt lat="44.81734" lon="1.12987">
        <ele>205</ele>
        <time>2019-02-02T16:16:00.000Z</time>
      </trkpt>
      <trkpt lat="44.81772" lon="1.12969">
        <ele>203</ele>
        <time>2019-02-02T16:17:00.000Z</time>
      </trkpt>
      <trkpt lat="44.81812" lon="1.12945">
        <ele>202</ele>
        <time>2019-02-02T16:18:00.000Z</time>
      </trkpt>
      <trkpt lat="44.81847" lon="1.12922">
        <ele>203</ele>
        <time>2019-02-02T16:19:00.000Z</time>
      </trkpt>
      <trkpt lat="44.81866" lon="1.129">
        <ele>205</ele>
        <time>2019-02-02T16:20:00.000Z</time>
      </trkpt>
      <trkpt lat="44.81876" lon="1.1286">
        <ele>206</ele>
        <time>2019-02-02T16:21:00.000Z</time>
      </trkpt>
      <trkpt lat="44.81883" lon="1.12827">
        <ele>206</ele>
        <time>2019-02-02T16:22:00.000Z</time>
      </trkpt>
      <trkpt lat="44.81885" lon="1.12799">
        <ele>206</ele>
        <time>2019-02-02T16:23:00.000Z</time>
      </trkpt>
      <trkpt lat="44.81887" lon="1.12769">
        <ele>206</ele>
        <time>2019-02-02T16:24:00.000Z</time>
      </trkpt>
      <trkpt lat="44.81891" lon="1.12743">
        <ele>206</ele>
        <time>2019-02-02T16:25:00.000Z</time>
      </trkpt>
      <trkpt lat="44.81892" lon="1.12717">
        <ele>204</ele>
        <time>2019-02-02T16:26:00.000Z</time>
      </trkpt>
      <trkpt lat="44.8192" lon="1.12661">
        <ele>202</ele>
        <time>2019-02-02T16:27:00.000Z</time>
      </trkpt>
      <trkpt lat="44.81949" lon="1.12618">
        <ele>195</ele>
        <time>2019-02-02T16:28:00.000Z</time>
      </trkpt>
      <trkpt lat="44.8197" lon="1.1258">
        <ele>190</ele>
        <time>2019-02-02T16:29:00.000Z</time>
      </trkpt>
      <trkpt lat="44.81974" lon="1.12525">
        <ele>184</ele>
        <time>2019-02-02T16:30:00.000Z</time>
      </trkpt>
      <trkpt lat="44.81976" lon="1.12481">
        <ele>180</ele>
        <time>2019-02-02T16:31:00.000Z</time>
      </trkpt>
      <trkpt lat="44.8201" lon="1.12449">
        <ele>180</ele>
        <time>2019-02-02T16:32:00.000Z</time>
      </trkpt>
      <trkpt lat="44.82027" lon="1.12385">
        <ele>174</ele>
        <time>2019-02-02T16:33:00.000Z</time>
      </trkpt>
      <trkpt lat="44.8204" lon="1.12334">
        <ele>168</ele>
        <time>2019-02-02T16:34:00.000Z</time>
      </trkpt>
      <trkpt lat="44.82056" lon="1.12287">
        <ele>161</ele>
        <time>2019-02-02T16:35:00.000Z</time>
      </trkpt>
      <trkpt lat="44.82099" lon="1.12248">
        <ele>162</ele>
        <time>2019-02-02T16:36:00.000Z</time>
      </trkpt>
      <trkpt lat="44.82138" lon="1.12217">
        <ele>156</ele>
        <time>2019-02-02T16:37:00.000Z</time>
      </trkpt>
      <trkpt lat="44.82182" lon="1.12188">
        <ele>149</ele>
        <time>2019-02-02T16:38:00.000Z</time>
      </trkpt>
      <trkpt lat="44.82216" lon="1.12173">
        <ele>142</ele>
        <time>2019-02-02T16:39:00.000Z</time>
      </trkpt>
      <trkpt lat="44.82255" lon="1.12166">
        <ele>136</ele>
        <time>2019-02-02T16:40:00.000Z</time>
      </trkpt>
      <trkpt lat="44.8229" lon="1.12186">
        <ele>138</ele>
        <time>2019-02-02T16:41:00.000Z</time>
      </trkpt>
      <trkpt lat="44.82325" lon="1.12184">
        <ele>132</ele>
        <time>2019-02-02T16:42:00.000Z</time>
      </trkpt>
      <trkpt lat="44.82361" lon="1.12162">
        <ele>123</ele>
        <time>2019-02-02T16:43:00.000Z</time>
      </trkpt>
      <trkpt lat="44.82409" lon="1.12155">
        <ele>121</ele>
        <time>2019-02-02T16:44:00.000Z</time>
      </trkpt>
      <trkpt lat="44.82448" lon="1.12151">
        <ele>123</ele>
        <time>2019-02-02T16:45:00.000Z</time>
      </trkpt>
      <trkpt lat="44.82472" lon="1.1212">
        <ele>119</ele>
        <time>2019-02-02T16:46:00.000Z</time>
      </trkpt>
      <trkpt lat="44.82485" lon="1.12078">
        <ele>111</ele>
        <time>2019-02-02T16:47:00.000Z</time>
      </trkpt>
      <trkpt lat="44.825" lon="1.12035">
        <ele>105</ele>
        <time>2019-02-02T16:48:00.000Z</time>
      </trkpt>
      <trkpt lat="44.82532" lon="1.11979">
        <ele>101</ele>
        <time>2019-02-02T16:49:00.000Z</time>
      </trkpt>
      <trkpt lat="44.8256" lon="1.11932">
        <ele>95</ele>
        <time>2019-02-02T16:50:00.000Z</time>
      </trkpt>
      <trkpt lat="44.82579" lon="1.1187">
        <ele>86</ele>
        <time>2019-02-02T16:51:00.000Z</time>
      </trkpt>
      <trkpt lat="44.82589" lon="1.1182">
        <ele>80</ele>
        <time>2019-02-02T16:52:00.000Z</time>
      </trkpt>
      <trkpt lat="44.82618" lon="1.1178">
        <ele>77</ele>
        <time>2019-02-02T16:53:00.000Z</time>
      </trkpt>
      <trkpt lat="44.82638" lon="1.11755">
        <ele>73</ele>
        <time>2019-02-02T16:54:00.000Z</time>
      </trkpt>
      <trkpt lat="44.82666" lon="1.1175">
        <ele>71</ele>
        <time>2019-02-02T16:55:00.000Z</time>
      </trkpt>
      <trkpt lat="44.82663" lon="1.11733">
        <ele>70</ele>
        <time>2019-02-02T16:56:00.000Z</time>
      </trkpt>
      <trkpt lat="44.82648" lon="1.11713">
        <ele>70</ele>
        <time>2019-02-02T16:57:00.000Z</time>
      </trkpt>
      <trkpt lat="44.82636" lon="1.11693">
        <ele>69</ele>
        <time>2019-02-02T16:58:00.000Z</time>
      </trkpt>
      <trkpt lat="44.82615" lon="1.11666">
        <ele>68</ele>
        <time>2019-02-02T16:59:00.000Z</time>
      </trkpt>
      <trkpt lat="44.82595" lon="1.1164">
        <ele>69</ele>
        <time>2019-02-02T17:00:00.000Z</time>
      </trkpt>
      <trkpt lat="44.8258" lon="1.11619">
        <ele>69</ele>
        <time>2019-02-02T17:01:00.000Z</time>
      </trkpt>
      <trkpt lat="44.82563" lon="1.11595">
        <ele>71</ele>
        <time>2019-02-02T17:02:00.000Z</time>
      </trkpt>
      <trkpt lat="44.82548" lon="1.11578">
        <ele>73</ele>
        <time>2019-02-02T17:03:00.000Z</time>
      </trkpt>
      <trkpt lat="44.82538" lon="1.11578">
        <ele>75</ele>
        <time>2019-02-02T17:04:00.000Z</time>
      </trkpt>
      <trkpt lat="44.82543" lon="1.11566">
        <ele>74</ele>
        <time>2019-02-02T17:05:00.000Z</time>
      </trkpt>
      <trkpt lat="44.82539" lon="1.11538">
        <ele>75</ele>
        <time>2019-02-02T17:06:00.000Z</time>
      </trkpt>
      <trkpt lat="44.82532" lon="1.11508">
        <ele>77</ele>
        <time>2019-02-02T17:07:00.000Z</time>
      </trkpt>
      <trkpt lat="44.82521" lon="1.11479">
        <ele>77</ele>
        <time>2019-02-02T17:08:00.000Z</time>
      </trkpt>
      <trkpt lat="44.82512" lon="1.11461">
        <ele>77</ele>
        <time>2019-02-02T17:09:00.000Z</time>
      </trkpt>
      <trkpt lat="44.82504" lon="1.1144">
        <ele>76</ele>
        <time>2019-02-02T17:10:00.000Z</time>
      </trkpt>
      <trkpt lat="44.82479" lon="1.11389">
        <ele>80</ele>
        <time>2019-02-02T17:11:00.000Z</time>
      </trkpt>
      <trkpt lat="44.8247" lon="1.11367">
        <ele>81</ele>
        <time>2019-02-02T17:12:00.000Z</time>
      </trkpt>
      <trkpt lat="44.82464" lon="1.11345">
        <ele>81</ele>
        <time>2019-02-02T17:13:00.000Z</time>
      </trkpt>
      <trkpt lat="44.82449" lon="1.11299">
        <ele>80</ele>
        <time>2019-02-02T17:14:00.000Z</time>
      </trkpt>
      <trkpt lat="44.8244" lon="1.11272">
        <ele>79</ele>
        <time>2019-02-02T17:15:00.000Z</time>
      </trkpt>
      <trkpt lat="44.82428" lon="1.11237">
        <ele>76</ele>
        <time>2019-02-02T17:16:00.000Z</time>
      </trkpt>
      <trkpt lat="44.82429" lon="1.11203">
        <ele>73</ele>
        <time>2019-02-02T17:17:00.000Z</time>
      </trkpt>
      <trkpt lat="44.82422" lon="1.1117">
        <ele>71</ele>
        <time>2019-02-02T17:18:00.000Z</time>
      </trkpt>
      <trkpt lat="44.82404" lon="1.11144">
        <ele>74</ele>
        <time>2019-02-02T17:19:00.000Z</time>
      </trkpt>
      <trkpt lat="44.82392" lon="1.11123">
        <ele>76</ele>
        <time>2019-02-02T17:20:00.000Z</time>
      </trkpt>
      <trkpt lat="44.82373" lon="1.11093">
        <ele>79</ele>
        <time>2019-02-02T17:21:00.000Z</time>
      </trkpt>
      <trkpt lat="44.82355" lon="1.11068">
        <ele>81</ele>
        <time>2019-02-02T17:22:00.000Z</time>
      </trkpt>
      <trkpt lat="44.82344" lon="1.11049">
        <ele>82</ele>
        <time>2019-02-02T17:23:00.000Z</time>
      </trkpt>
      <trkpt lat="44.82331" lon="1.11017">
        <ele>81</ele>
        <time>2019-02-02T17:24:00.000Z</time>
      </trkpt>
      <trkpt lat="44.82321" lon="1.10978">
        <ele>80</ele>
        <time>2019-02-02T17:25:00.000Z</time>
      </trkpt>
      <trkpt lat="44.82318" lon="1.10952">
        <ele>77</ele>
        <time>2019-02-02T17:26:00.000Z</time>
      </trkpt>
      <trkpt lat="44.82311" lon="1.10928">
        <ele>76</ele>
        <time>2019-02-02T17:27:00.000Z</time>
      </trkpt>
      <trkpt lat="44.82306" lon="1.10904">
        <ele>75</ele>
        <time>2019-02-02T17:28:00.000Z</time>
      </trkpt>
      <trkpt lat="44.82288" lon="1.10886">
        <ele>79</ele>
        <time>2019-02-02T17:29:00.000Z</time>
      </trkpt>
      <trkpt lat="44.82271" lon="1.10883">
        <ele>83</ele>
        <time>2019-02-02T17:30:00.000Z</time>
      </trkpt>
      <trkpt lat="44.8226" lon="1.10886">
        <ele>86</ele>
        <time>2019-02-02T17:31:00.000Z</time>
      </trkpt>
      <trkpt lat="44.82248" lon="1.10892">
        <ele>89</ele>
        <time>2019-02-02T17:32:00.000Z</time>
      </trkpt>
      <trkpt lat="44.82234" lon="1.10897">
        <ele>90</ele>
        <time>2019-02-02T17:33:00.000Z</time>
      </trkpt>
      <trkpt lat="44.8222" lon="1.109">
        <ele>91</ele>
        <time>2019-02-02T17:34:00.000Z</time>
      </trkpt>
      <trkpt lat="44.82208" lon="1.10901">
        <ele>91</ele>
        <time>2019-02-02T17:35:00.000Z</time>
      </trkpt>
      <trkpt lat="44.82197" lon="1.10902">
        <ele>92</ele>
        <time>2019-02-02T17:36:00.000Z</time>
      </trkpt>
      <trkpt lat="44.82184" lon="1.10903">
        <ele>92</ele>
        <time>2019-02-02T17:37:00.000Z</time>
      </trkpt>
      <trkpt lat="44.82174" lon="1.10903">
        <ele>93</ele>
        <time>2019-02-02T17:38:00.000Z</time>
      </trkpt>
      <trkpt lat="44.82164" lon="1.10906">
        <ele>93</ele>
        <time>2019-02-02T17:39:00.000Z</time>
      </trkpt>
      <trkpt lat="44.82153" lon="1.10908">
        <ele>93</ele>
        <time>2019-02-02T17:40:00.000Z</time>
      </trkpt>
      <trkpt lat="44.82143" lon="1.10911">
        <ele>93</ele>
        <time>2019-02-02T17:41:00.000Z</time>
      </trkpt>
      <trkpt lat="44.82133" lon="1.10914">
        <ele>92</ele>
        <time>2019-02-02T17:42:00.000Z</time>
      </trkpt>
      <trkpt lat="44.82101" lon="1.10923">
        <ele>92</ele>
        <time>2019-02-02T17:43:00.000Z</time>
      </trkpt>
      <trkpt lat="44.82091" lon="1.10924">
        <ele>92</ele>
        <time>2019-02-02T17:44:00.000Z</time>
      </trkpt>
      <trkpt lat="44.8208" lon="1.10926">
        <ele>93</ele>
        <time>2019-02-02T17:45:00.000Z</time>
      </trkpt>
      <trkpt lat="44.8207" lon="1.10927">
        <ele>93</ele>
        <time>2019-02-02T17:46:00.000Z</time>
      </trkpt>
      <trkpt lat="44.82059" lon="1.10931">
        <ele>94</ele>
        <time>2019-02-02T17:47:00.000Z</time>
      </trkpt>
      <trkpt lat="44.82049" lon="1.10928">
        <ele>94</ele>
        <time>2019-02-02T17:48:00.000Z</time>
      </trkpt>
      <trkpt lat="44.82042" lon="1.10915">
        <ele>94</ele>
        <time>2019-02-02T17:49:00.000Z</time>
      </trkpt>
      <trkpt lat="44.82041" lon="1.10899">
        <ele>95</ele>
        <time>2019-02-02T17:50:00.000Z</time>
      </trkpt>
      <trkpt lat="44.82043" lon="1.10886">
        <ele>95</ele>
        <time>2019-02-02T17:51:00.000Z</time>
      </trkpt>
      <trkpt lat="44.82052" lon="1.1088">
        <ele>95</ele>
        <time>2019-02-02T17:52:00.000Z</time>
      </trkpt>
      <trkpt lat="44.82061" lon="1.10875">
        <ele>95</ele>
        <time>2019-02-02T17:53:00.000Z</time>
      </trkpt>
      <trkpt lat="44.82069" lon="1.10868">
        <ele>96</ele>
        <time>2019-02-02T17:54:00.000Z</time>
      </trkpt>
      <trkpt lat="44.82077" lon="1.10861">
        <ele>96</ele>
        <time>2019-02-02T17:55:00.000Z</time>
      </trkpt>
      <trkpt lat="44.82084" lon="1.10852">
        <ele>96</ele>
        <time>2019-02-02T17:56:00.000Z</time>
      </trkpt>
      <trkpt lat="44.8209" lon="1.10841">
        <ele>97</ele>
        <time>2019-02-02T17:57:00.000Z</time>
      </trkpt>
      <trkpt lat="44.82095" lon="1.10829">
        <ele>98</ele>
        <time>2019-02-02T17:58:00.000Z</time>
      </trkpt>
      <trkpt lat="44.82099" lon="1.10815">
        <ele>99</ele>
        <time>2019-02-02T17:59:00.000Z</time>
      </trkpt>
      <trkpt lat="44.82104" lon="1.10802">
        <ele>99</ele>
        <time>2019-02-02T18:00:00.000Z</time>
      </trkpt>
      <trkpt lat="44.82108" lon="1.10789">
        <ele>100</ele>
        <time>2019-02-02T18:01:00.000Z</time>
      </trkpt>
      <trkpt lat="44.82121" lon="1.10748">
        <ele>102</ele>
        <time>2019-02-02T18:02:00.000Z</time>
      </trkpt>
      <trkpt lat="44.82124" lon="1.10735">
        <ele>101</ele>
        <time>2019-02-02T18:03:00.000Z</time>
      </trkpt>
      <trkpt lat="44.82126" lon="1.10716">
        <ele>101</ele>
        <time>2019-02-02T18:04:00.000Z</time>
      </trkpt>
      <trkpt lat="44.82127" lon="1.10694">
        <ele>100</ele>
        <time>2019-02-02T18:05:00.000Z</time>
      </trkpt>
      <trkpt lat="44.82131" lon="1.1059">
        <ele>98</ele>
        <time>2019-02-02T18:06:00.000Z</time>
      </trkpt>
      <trkpt lat="44.82125" lon="1.10547">
        <ele>99</ele>
        <time>2019-02-02T18:07:00.000Z</time>
      </trkpt>
      <trkpt lat="44.82105" lon="1.10489">
        <ele>101</ele>
        <time>2019-02-02T18:08:00.000Z</time>
      </trkpt>
      <trkpt lat="44.82098" lon="1.10468">
        <ele>102</ele>
        <time>2019-02-02T18:09:00.000Z</time>
      </trkpt>
      <trkpt lat="44.82094" lon="1.10449">
        <ele>103</ele>
        <time>2019-02-02T18:10:00.000Z</time>
      </trkpt>
      <trkpt lat="44.82091" lon="1.10434">
        <ele>103</ele>
        <time>2019-02-02T18:11:00.000Z</time>
      </trkpt>
      <trkpt lat="44.8209" lon="1.10416">
        <ele>104</ele>
        <time>2019-02-02T18:12:00.000Z</time>
      </trkpt>
      <trkpt lat="44.82088" lon="1.10399">
        <ele>104</ele>
        <time>2019-02-02T18:13:00.000Z</time>
      </trkpt>
      <trkpt lat="44.82082" lon="1.10388">
        <ele>104</ele>
        <time>2019-02-02T18:14:00.000Z</time>
      </trkpt>
      <trkpt lat="44.82074" lon="1.10378">
        <ele>104</ele>
        <time>2019-02-02T18:15:00.000Z</time>
      </trkpt>
      <trkpt lat="44.82064" lon="1.10369">
        <ele>105</ele>
        <time>2019-02-02T18:16:00.000Z</time>
      </trkpt>
      <trkpt lat="44.82053" lon="1.1036">
        <ele>105</ele>
        <time>2019-02-02T18:17:00.000Z</time>
      </trkpt>
      <trkpt lat="44.82044" lon="1.10353">
        <ele>106</ele>
        <time>2019-02-02T18:18:00.000Z</time>
      </trkpt>
      <trkpt lat="44.82025" lon="1.10338">
        <ele>107</ele>
        <time>2019-02-02T18:19:00.000Z</time>
      </trkpt>
      <trkpt lat="44.82016" lon="1.10328">
        <ele>107</ele>
        <time>2019-02-02T18:20:00.000Z</time>
      </trkpt>
      <trkpt lat="44.82007" lon="1.10315">
        <ele>108</ele>
        <time>2019-02-02T18:21:00.000Z</time>
      </trkpt>
      <trkpt lat="44.82" lon="1.10303">
        <ele>108</ele>
        <time>2019-02-02T18:22:00.000Z</time>
      </trkpt>
      <trkpt lat="44.81993" lon="1.10286">
        <ele>108</ele>
        <time>2019-02-02T18:23:00.000Z</time>
      </trkpt>
      <trkpt lat="44.81991" lon="1.10258">
        <ele>109</ele>
        <time>2019-02-02T18:24:00.000Z</time>
      </trkpt>
      <trkpt lat="44.81996" lon="1.10223">
        <ele>108</ele>
        <time>2019-02-02T18:25:00.000Z</time>
      </trkpt>
      <trkpt lat="44.82001" lon="1.10179">
        <ele>106</ele>
        <time>2019-02-02T18:26:00.000Z</time>
      </trkpt>
      <trkpt lat="44.81998" lon="1.10124">
        <ele>106</ele>
        <time>2019-02-02T18:27:00.000Z</time>
      </trkpt>
      <trkpt lat="44.8198" lon="1.10058">
        <ele>104</ele>
        <time>2019-02-02T18:28:00.000Z</time>
      </trkpt>
      <trkpt lat="44.81944" lon="1.10027">
        <ele>100</ele>
        <time>2019-02-02T18:29:00.000Z</time>
      </trkpt>
      <trkpt lat="44.81929" lon="1.09953">
        <ele>96</ele>
        <time>2019-02-02T18:30:00.000Z</time>
      </trkpt>
      <trkpt lat="44.81933" lon="1.09893">
        <ele>95</ele>
        <time>2019-02-02T18:31:00.000Z</time>
      </trkpt>
      <trkpt lat="44.81936" lon="1.09824">
        <ele>94</ele>
        <time>2019-02-02T18:32:00.000Z</time>
      </trkpt>
      <trkpt lat="44.81932" lon="1.0977">
        <ele>91</ele>
        <time>2019-02-02T18:33:00.000Z</time>
      </trkpt>
      <trkpt lat="44.81928" lon="1.09697">
        <ele>87</ele>
        <time>2019-02-02T18:34:00.000Z</time>
      </trkpt>
      <trkpt lat="44.81897" lon="1.09626">
        <ele>86</ele>
        <time>2019-02-02T18:35:00.000Z</time>
      </trkpt>
      <trkpt lat="44.81899" lon="1.09558">
        <ele>90</ele>
        <time>2019-02-02T18:36:00.000Z</time>
      </trkpt>
      <trkpt lat="44.81884" lon="1.09524">
        <ele>97</ele>
        <time>2019-02-02T18:37:00.000Z</time>
      </trkpt>
      <trkpt lat="44.81867" lon="1.09521">
        <ele>97</ele>
        <time>2019-02-02T18:38:00.000Z</time>
      </trkpt>
      <trkpt lat="44.8184" lon="1.09522">
        <ele>97</ele>
        <time>2019-02-02T18:39:00.000Z</time>
      </trkpt>
      <trkpt lat="44.81818" lon="1.09521">
        <ele>97</ele>
        <time>2019-02-02T18:40:00.000Z</time>
      </trkpt>
      <trkpt lat="44.81797" lon="1.09517">
        <ele>96</ele>
        <time>2019-02-02T18:41:00.000Z</time>
      </trkpt>
      <trkpt lat="44.81777" lon="1.0951">
        <ele>96</ele>
        <time>2019-02-02T18:42:00.000Z</time>
      </trkpt>
      <trkpt lat="44.81754" lon="1.09503">
        <ele>96</ele>
        <time>2019-02-02T18:43:00.000Z</time>
      </trkpt>
      <trkpt lat="44.81735" lon="1.095">
        <ele>96</ele>
        <time>2019-02-02T18:44:00.000Z</time>
      </trkpt>
      <trkpt lat="44.81718" lon="1.09498">
        <ele>97</ele>
        <time>2019-02-02T18:45:00.000Z</time>
      </trkpt>
      <trkpt lat="44.81698" lon="1.09496">
        <ele>97</ele>
        <time>2019-02-02T18:46:00.000Z</time>
      </trkpt>
      <trkpt lat="44.8168" lon="1.09492">
        <ele>99</ele>
        <time>2019-02-02T18:47:00.000Z</time>
      </trkpt>
      <trkpt lat="44.81665" lon="1.0949">
        <ele>99</ele>
        <time>2019-02-02T18:48:00.000Z</time>
      </trkpt>
      <trkpt lat="44.81646" lon="1.09489">
        <ele>99</ele>
        <time>2019-02-02T18:49:00.000Z</time>
      </trkpt>
      <trkpt lat="44.81627" lon="1.09488">
        <ele>99</ele>
        <time>2019-02-02T18:50:00.000Z</time>
      </trkpt>
      <trkpt lat="44.81608" lon="1.09483">
        <ele>99</ele>
        <time>2019-02-02T18:51:00.000Z</time>
      </trkpt>
      <trkpt lat="44.81591" lon="1.09474">
        <ele>100</ele>
        <time>2019-02-02T18:52:00.000Z</time>
      </trkpt>
      <trkpt lat="44.81573" lon="1.09457">
        <ele>102</ele>
        <time>2019-02-02T18:53:00.000Z</time>
      </trkpt>
      <trkpt lat="44.81558" lon="1.09433">
        <ele>104</ele>
        <time>2019-02-02T18:54:00.000Z</time>
      </trkpt>
      <trkpt lat="44.81548" lon="1.09407">
        <ele>106</ele>
        <time>2019-02-02T18:55:00.000Z</time>
      </trkpt>
      <trkpt lat="44.8154" lon="1.09387">
        <ele>108</ele>
        <time>2019-02-02T18:56:00.000Z</time>
      </trkpt>
      <trkpt lat="44.81531" lon="1.0937">
        <ele>109</ele>
        <time>2019-02-02T18:57:00.000Z</time>
      </trkpt>
      <trkpt lat="44.81519" lon="1.09358">
        <ele>108</ele>
        <time>2019-02-02T18:58:00.000Z</time>
      </trkpt>
      <trkpt lat="44.81501" lon="1.09354">
        <ele>105</ele>
        <time>2019-02-02T18:59:00.000Z</time>
      </trkpt>
      <trkpt lat="44.81481" lon="1.09356">
        <ele>108</ele>
        <time>2019-02-02T19:00:00.000Z</time>
      </trkpt>
      <trkpt lat="44.81464" lon="1.09364">
        <ele>109</ele>
        <time>2019-02-02T19:01:00.000Z</time>
      </trkpt>
      <trkpt lat="44.81449" lon="1.0937">
        <ele>110</ele>
        <time>2019-02-02T19:02:00.000Z</time>
      </trkpt>
      <trkpt lat="44.81437" lon="1.09372">
        <ele>110</ele>
        <time>2019-02-02T19:03:00.000Z</time>
      </trkpt>
      <trkpt lat="44.81426" lon="1.09376">
        <ele>111</ele>
        <time>2019-02-02T19:04:00.000Z</time>
      </trkpt>
      <trkpt lat="44.81414" lon="1.09378">
        <ele>111</ele>
        <time>2019-02-02T19:05:00.000Z</time>
      </trkpt>
      <trkpt lat="44.81388" lon="1.0938">
        <ele>112</ele>
        <time>2019-02-02T19:06:00.000Z</time>
      </trkpt>
      <trkpt lat="44.81374" lon="1.09382">
        <ele>113</ele>
        <time>2019-02-02T19:07:00.000Z</time>
      </trkpt>
      <trkpt lat="44.81349" lon="1.09383">
        <ele>114</ele>
        <time>2019-02-02T19:08:00.000Z</time>
      </trkpt>
      <trkpt lat="44.81333" lon="1.09385">
        <ele>114</ele>
        <time>2019-02-02T19:09:00.000Z</time>
      </trkpt>
      <trkpt lat="44.81316" lon="1.09389">
        <ele>113</ele>
        <time>2019-02-02T19:10:00.000Z</time>
      </trkpt>
      <trkpt lat="44.81298" lon="1.09389">
        <ele>113</ele>
        <time>2019-02-02T19:11:00.000Z</time>
      </trkpt>
      <trkpt lat="44.81279" lon="1.09387">
        <ele>113</ele>
        <time>2019-02-02T19:12:00.000Z</time>
      </trkpt>
      <trkpt lat="44.81254" lon="1.09387">
        <ele>113</ele>
        <time>2019-02-02T19:13:00.000Z</time>
      </trkpt>
      <trkpt lat="44.8123" lon="1.09385">
        <ele>114</ele>
        <time>2019-02-02T19:14:00.000Z</time>
      </trkpt>
      <trkpt lat="44.81207" lon="1.09376">
        <ele>115</ele>
        <time>2019-02-02T19:15:00.000Z</time>
      </trkpt>
      <trkpt lat="44.81199" lon="1.0937">
        <ele>115</ele>
        <time>2019-02-02T19:16:00.000Z</time>
      </trkpt>
      <trkpt lat="44.81212" lon="1.0939">
        <ele>114</ele>
        <time>2019-02-02T19:17:00.000Z</time>
      </trkpt>
      <trkpt lat="44.81262" lon="1.09383">
        <ele>113</ele>
        <time>2019-02-02T19:18:00.000Z</time>
      </trkpt>
      <trkpt lat="44.81196" lon="1.09373">
        <ele>115</ele>
        <time>2019-02-02T19:19:00.000Z</time>
      </trkpt>
      <trkpt lat="44.81153" lon="1.09325">
        <ele>115</ele>
        <time>2019-02-02T19:20:00.000Z</time>
      </trkpt>
      <trkpt lat="44.81092" lon="1.09304">
        <ele>120</ele>
        <time>2019-02-02T19:21:00.000Z</time>
      </trkpt>
      <trkpt lat="44.81046" lon="1.09284">
        <ele>122</ele>
        <time>2019-02-02T19:22:00.000Z</time>
      </trkpt>
      <trkpt lat="44.8099" lon="1.09279">
        <ele>122</ele>
        <time>2019-02-02T19:23:00.000Z</time>
      </trkpt>
      <trkpt lat="44.80961" lon="1.09232">
        <ele>126</ele>
        <time>2019-02-02T19:24:00.000Z</time>
      </trkpt>
      <trkpt lat="44.80934" lon="1.09209">
        <ele>127</ele>
        <time>2019-02-02T19:25:00.000Z</time>
      </trkpt>
      <trkpt lat="44.80927" lon="1.0919">
        <ele>128</ele>
        <time>2019-02-02T19:26:00.000Z</time>
      </trkpt>
      <trkpt lat="44.80888" lon="1.09189">
        <ele>130</ele>
        <time>2019-02-02T19:27:00.000Z</time>
      </trkpt>
      <trkpt lat="44.80855" lon="1.09178">
        <ele>133</ele>
        <time>2019-02-02T19:28:00.000Z</time>
      </trkpt>
      <trkpt lat="44.80828" lon="1.09187">
        <ele>136</ele>
        <time>2019-02-02T19:29:00.000Z</time>
      </trkpt>
      <trkpt lat="44.80805" lon="1.09187">
        <ele>137</ele>
        <time>2019-02-02T19:30:00.000Z</time>
      </trkpt>
      <trkpt lat="44.80781" lon="1.09191">
        <ele>139</ele>
        <time>2019-02-02T19:31:00.000Z</time>
      </trkpt>
      <trkpt lat="44.80757" lon="1.09197">
        <ele>140</ele>
        <time>2019-02-02T19:32:00.000Z</time>
      </trkpt>
      <trkpt lat="44.80712" lon="1.09214">
        <ele>142</ele>
        <time>2019-02-02T19:33:00.000Z</time>
      </trkpt>
      <trkpt lat="44.80685" lon="1.09228">
        <ele>143</ele>
        <time>2019-02-02T19:34:00.000Z</time>
      </trkpt>
      <trkpt lat="44.80677" lon="1.09257">
        <ele>144</ele>
        <time>2019-02-02T19:35:00.000Z</time>
      </trkpt>
      <trkpt lat="44.8065" lon="1.09273">
        <ele>147</ele>
        <time>2019-02-02T19:36:00.000Z</time>
      </trkpt>
      <trkpt lat="44.80637" lon="1.09256">
        <ele>146</ele>
        <time>2019-02-02T19:37:00.000Z</time>
      </trkpt>
      <trkpt lat="44.80667" lon="1.0922">
        <ele>143</ele>
        <time>2019-02-02T19:38:00.000Z</time>
      </trkpt>
      <trkpt lat="44.80653" lon="1.09186">
        <ele>145</ele>
        <time>2019-02-02T19:39:00.000Z</time>
      </trkpt>
      <trkpt lat="44.80627" lon="1.09174">
        <ele>147</ele>
        <time>2019-02-02T19:40:00.000Z</time>
      </trkpt>
      <trkpt lat="44.80603" lon="1.09157">
        <ele>149</ele>
        <time>2019-02-02T19:41:00.000Z</time>
      </trkpt>
      <trkpt lat="44.80593" lon="1.0913">
        <ele>151</ele>
        <time>2019-02-02T19:42:00.000Z</time>
      </trkpt>
      <trkpt lat="44.8057" lon="1.09109">
        <ele>154</ele>
        <time>2019-02-02T19:43:00.000Z</time>
      </trkpt>
      <trkpt lat="44.80563" lon="1.09073">
        <ele>156</ele>
        <time>2019-02-02T19:44:00.000Z</time>
      </trkpt>
      <trkpt lat="44.80551" lon="1.09042">
        <ele>159</ele>
        <time>2019-02-02T19:45:00.000Z</time>
      </trkpt>
      <trkpt lat="44.80544" lon="1.09002">
        <ele>161</ele>
        <time>2019-02-02T19:46:00.000Z</time>
      </trkpt>
      <trkpt lat="44.80524" lon="1.0898">
        <ele>162</ele>
        <time>2019-02-02T19:47:00.000Z</time>
      </trkpt>
      <trkpt lat="44.80511" lon="1.08956">
        <ele>163</ele>
        <time>2019-02-02T19:48:00.000Z</time>
      </trkpt>
      <trkpt lat="44.80494" lon="1.08938">
        <ele>163</ele>
        <time>2019-02-02T19:49:00.000Z</time>
      </trkpt>
      <trkpt lat="44.80472" lon="1.08914">
        <ele>164</ele>
        <time>2019-02-02T19:50:00.000Z</time>
      </trkpt>
      <trkpt lat="44.80466" lon="1.08881">
        <ele>165</ele>
        <time>2019-02-02T19:51:00.000Z</time>
      </trkpt>
      <trkpt lat="44.80452" lon="1.08847">
        <ele>167</ele>
        <time>2019-02-02T19:52:00.000Z</time>
      </trkpt>
      <trkpt lat="44.80432" lon="1.08803">
        <ele>171</ele>
        <time>2019-02-02T19:53:00.000Z</time>
      </trkpt>
      <trkpt lat="44.80434" lon="1.0879">
        <ele>172</ele>
        <time>2019-02-02T19:54:00.000Z</time>
      </trkpt>
      <trkpt lat="44.80462" lon="1.08732">
        <ele>175</ele>
        <time>2019-02-02T19:55:00.000Z</time>
      </trkpt>
      <trkpt lat="44.80486" lon="1.08675">
        <ele>177</ele>
        <time>2019-02-02T19:56:00.000Z</time>
      </trkpt>
      <trkpt lat="44.80487" lon="1.08661">
        <ele>178</ele>
        <time>2019-02-02T19:57:00.000Z</time>
      </trkpt>
      <trkpt lat="44.80537" lon="1.08675">
        <ele>180</ele>
        <time>2019-02-02T19:58:00.000Z</time>
      </trkpt>
      <trkpt lat="44.80564" lon="1.08668">
        <ele>184</ele>
        <time>2019-02-02T19:59:00.000Z</time>
      </trkpt>
      <trkpt lat="44.80611" lon="1.08667">
        <ele>188</ele>
        <time>2019-02-02T20:00:00.000Z</time>
      </trkpt>
      <trkpt lat="44.80666" lon="1.08673">
        <ele>191</ele>
        <time>2019-02-02T20:01:00.000Z</time>
      </trkpt>
      <trkpt lat="44.80687" lon="1.08683">
        <ele>189</ele>
        <time>2019-02-02T20:02:00.000Z</time>
      </trkpt>
      <trkpt lat="44.80721" lon="1.08654">
        <ele>190</ele>
        <time>2019-02-02T20:03:00.000Z</time>
      </trkpt>
      <trkpt lat="44.80756" lon="1.08621">
        <ele>193</ele>
        <time>2019-02-02T20:04:00.000Z</time>
      </trkpt>
      <trkpt lat="44.80802" lon="1.08564">
        <ele>198</ele>
        <time>2019-02-02T20:05:00.000Z</time>
      </trkpt>
      <trkpt lat="44.80832" lon="1.0854">
        <ele>199</ele>
        <time>2019-02-02T20:06:00.000Z</time>
      </trkpt>
      <trkpt lat="44.80853" lon="1.08476">
        <ele>202</ele>
        <time>2019-02-02T20:07:00.000Z</time>
      </trkpt>
      <trkpt lat="44.80865" lon="1.08406">
        <ele>207</ele>
        <time>2019-02-02T20:08:00.000Z</time>
      </trkpt>
      <trkpt lat="44.80889" lon="1.08378">
        <ele>209</ele>
        <time>2019-02-02T20:09:00.000Z</time>
      </trkpt>
      <trkpt lat="44.80942" lon="1.0837">
        <ele>207</ele>
        <time>2019-02-02T20:10:00.000Z</time>
      </trkpt>
      <trkpt lat="44.80966" lon="1.08297">
        <ele>213</ele>
        <time>2019-02-02T20:11:00.000Z</time>
      </trkpt>
      <trkpt lat="44.81021" lon="1.0825">
        <ele>216</ele>
        <time>2019-02-02T20:12:00.000Z</time>
      </trkpt>
      <trkpt lat="44.81064" lon="1.08191">
        <ele>218</ele>
        <time>2019-02-02T20:13:00.000Z</time>
      </trkpt>
      <trkpt lat="44.81103" lon="1.08196">
        <ele>218</ele>
        <time>2019-02-02T20:14:00.000Z</time>
      </trkpt>
      <trkpt lat="44.81115" lon="1.08285">
        <ele>212</ele>
        <time>2019-02-02T20:15:00.000Z</time>
      </trkpt>
      <trkpt lat="44.81152" lon="1.08348">
        <ele>212</ele>
        <time>2019-02-02T20:16:00.000Z</time>
      </trkpt>
      <trkpt lat="44.81215" lon="1.08388">
        <ele>213</ele>
        <time>2019-02-02T20:17:00.000Z</time>
      </trkpt>
      <trkpt lat="44.81266" lon="1.08374">
        <ele>219</ele>
        <time>2019-02-02T20:18:00.000Z</time>
      </trkpt>
      <trkpt lat="44.81361" lon="1.08317">
        <ele>219</ele>
        <time>2019-02-02T20:19:00.000Z</time>
      </trkpt>
      <trkpt lat="44.81393" lon="1.08274">
        <ele>219</ele>
        <time>2019-02-02T20:20:00.000Z</time>
      </trkpt>
      <trkpt lat="44.81435" lon="1.08207">
        <ele>220</ele>
        <time>2019-02-02T20:21:00.000Z</time>
      </trkpt>
      <trkpt lat="44.81465" lon="1.08224">
        <ele>219</ele>
        <time>2019-02-02T20:22:00.000Z</time>
      </trkpt>
      <trkpt lat="44.81515" lon="1.08215">
        <ele>219</ele>
        <time>2019-02-02T20:23:00.000Z</time>
      </trkpt>
      <trkpt lat="44.81476" lon="1.08174">
        <ele>223</ele>
        <time>2019-02-02T20:24:00.000Z</time>
      </trkpt>
      <trkpt lat="44.8146" lon="1.08136">
        <ele>226</ele>
        <time>2019-02-02T20:25:00.000Z</time>
      </trkpt>
      <trkpt lat="44.81436" lon="1.08108">
        <ele>227</ele>
        <time>2019-02-02T20:26:00.000Z</time>
      </trkpt>
      <trkpt lat="44.81411" lon="1.08093">
        <ele>228</ele>
        <time>2019-02-02T20:27:00.000Z</time>
      </trkpt>
      <trkpt lat="44.81392" lon="1.0806">
        <ele>230</ele>
        <time>2019-02-02T20:28:00.000Z</time>
      </trkpt>
      <trkpt lat="44.81407" lon="1.08066">
        <ele>229</ele>
        <time>2019-02-02T20:29:00.000Z</time>
      </trkpt>
      <trkpt lat="44.8142" lon="1.08014">
        <ele>227</ele>
        <time>2019-02-02T20:30:00.000Z</time>
      </trkpt>
      <trkpt lat="44.81423" lon="1.07874">
        <ele>223</ele>
        <time>2019-02-02T20:31:00.000Z</time>
      </trkpt>
      <trkpt lat="44.81405" lon="1.07758">
        <ele>220</ele>
        <time>2019-02-02T20:32:00.000Z</time>
      </trkpt>
      <trkpt lat="44.81444" lon="1.07687">
        <ele>217</ele>
        <time>2019-02-02T20:33:00.000Z</time>
      </trkpt>
      <trkpt lat="44.81475" lon="1.07607">
        <ele>215</ele>
        <time>2019-02-02T20:34:00.000Z</time>
      </trkpt>
      <trkpt lat="44.81497" lon="1.07559">
        <ele>214</ele>
        <time>2019-02-02T20:35:00.000Z</time>
      </trkpt>
      <trkpt lat="44.81511" lon="1.07497">
        <ele>214</ele>
        <time>2019-02-02T20:36:00.000Z</time>
      </trkpt>
      <trkpt lat="44.81528" lon="1.07411">
        <ele>224</ele>
        <time>2019-02-02T20:37:00.000Z</time>
      </trkpt>
      <trkpt lat="44.81513" lon="1.07379">
        <ele>226</ele>
        <time>2019-02-02T20:38:00.000Z</time>
      </trkpt>
      <trkpt lat="44.81505" lon="1.07352">
        <ele>228</ele>
        <time>2019-02-02T20:39:00.000Z</time>
      </trkpt>
      <trkpt lat="44.8152" lon="1.07328">
        <ele>233</ele>
        <time>2019-02-02T20:40:00.000Z</time>
      </trkpt>
      <trkpt lat="44.81502" lon="1.07309">
        <ele>233</ele>
        <time>2019-02-02T20:41:00.000Z</time>
      </trkpt>
      <trkpt lat="44.815" lon="1.07284">
        <ele>235</ele>
        <time>2019-02-02T20:42:00.000Z</time>
      </trkpt>
      <trkpt lat="44.81507" lon="1.07259">
        <ele>238</ele>
        <time>2019-02-02T20:43:00.000Z</time>
      </trkpt>
      <trkpt lat="44.81517" lon="1.07243">
        <ele>241</ele>
        <time>2019-02-02T20:44:00.000Z</time>
      </trkpt>
      <trkpt lat="44.81528" lon="1.07232">
        <ele>242</ele>
        <time>2019-02-02T20:45:00.000Z</time>
      </trkpt>
      <trkpt lat="44.81535" lon="1.07242">
        <ele>242</ele>
        <time>2019-02-02T20:46:00.000Z</time>
      </trkpt>
      <trkpt lat="44.81547" lon="1.07225">
        <ele>244</ele>
        <time>2019-02-02T20:47:00.000Z</time>
      </trkpt>
      <trkpt lat="44.81553" lon="1.0721">
        <ele>245</ele>
        <time>2019-02-02T20:48:00.000Z</time>
      </trkpt>
      <trkpt lat="44.81538" lon="1.07194">
        <ele>245</ele>
        <time>2019-02-02T20:49:00.000Z</time>
      </trkpt>
      <trkpt lat="44.81517" lon="1.07167">
        <ele>248</ele>
        <time>2019-02-02T20:50:00.000Z</time>
      </trkpt>
      <trkpt lat="44.81494" lon="1.07155">
        <ele>248</ele>
        <time>2019-02-02T20:51:00.000Z</time>
      </trkpt>
      <trkpt lat="44.81475" lon="1.07161">
        <ele>247</ele>
        <time>2019-02-02T20:52:00.000Z</time>
      </trkpt>
      <trkpt lat="44.81484" lon="1.0713">
        <ele>248</ele>
        <time>2019-02-02T20:53:00.000Z</time>
      </trkpt>
      <trkpt lat="44.81497" lon="1.07124">
        <ele>249</ele>
        <time>2019-02-02T20:54:00.000Z</time>
      </trkpt>
      <trkpt lat="44.81468" lon="1.07119">
        <ele>248</ele>
        <time>2019-02-02T20:55:00.000Z</time>
      </trkpt>
      <trkpt lat="44.81446" lon="1.07136">
        <ele>247</ele>
        <time>2019-02-02T20:56:00.000Z</time>
      </trkpt>
      <trkpt lat="44.81409" lon="1.07119">
        <ele>248</ele>
        <time>2019-02-02T20:57:00.000Z</time>
      </trkpt>
      <trkpt lat="44.81368" lon="1.07112">
        <ele>250</ele>
        <time>2019-02-02T20:58:00.000Z</time>
      </trkpt>
      <trkpt lat="44.81342" lon="1.071">
        <ele>252</ele>
        <time>2019-02-02T20:59:00.000Z</time>
      </trkpt>
      <trkpt lat="44.81308" lon="1.07093">
        <ele>255</ele>
        <time>2019-02-02T21:00:00.000Z</time>
      </trkpt>
      <trkpt lat="44.81253" lon="1.07089">
        <ele>259</ele>
        <time>2019-02-02T21:01:00.000Z</time>
      </trkpt>
      <trkpt lat="44.81253" lon="1.07021">
        <ele>260</ele>
        <time>2019-02-02T21:02:00.000Z</time>
      </trkpt>
      <trkpt lat="44.81247" lon="1.06888">
        <ele>253</ele>
        <time>2019-02-02T21:03:00.000Z</time>
      </trkpt>
      <trkpt lat="44.81305" lon="1.06763">
        <ele>249</ele>
        <time>2019-02-02T21:04:00.000Z</time>
      </trkpt>
      <trkpt lat="44.81349" lon="1.0662">
        <ele>250</ele>
        <time>2019-02-02T21:05:00.000Z</time>
      </trkpt>
      <trkpt lat="44.81371" lon="1.06511">
        <ele>249</ele>
        <time>2019-02-02T21:06:00.000Z</time>
      </trkpt>
      <trkpt lat="44.81386" lon="1.06428">
        <ele>248</ele>
        <time>2019-02-02T21:07:00.000Z</time>
      </trkpt>
      <trkpt lat="44.81414" lon="1.06344">
        <ele>251</ele>
        <time>2019-02-02T21:08:00.000Z</time>
      </trkpt>
      <trkpt lat="44.81474" lon="1.0629">
        <ele>248</ele>
        <time>2019-02-02T21:09:00.000Z</time>
      </trkpt>
      <trkpt lat="44.81508" lon="1.06238">
        <ele>246</ele>
        <time>2019-02-02T21:10:00.000Z</time>
      </trkpt>
      <trkpt lat="44.81537" lon="1.06159">
        <ele>243</ele>
        <time>2019-02-02T21:11:00.000Z</time>
      </trkpt>
      <trkpt lat="44.815" lon="1.06103">
        <ele>245</ele>
        <time>2019-02-02T21:12:00.000Z</time>
      </trkpt>
      <trkpt lat="44.81446" lon="1.05988">
        <ele>242</ele>
        <time>2019-02-02T21:13:00.000Z</time>
      </trkpt>
      <trkpt lat="44.81349" lon="1.05821">
        <ele>234</ele>
        <time>2019-02-02T21:14:00.000Z</time>
      </trkpt>
      <trkpt lat="44.81265" lon="1.05742">
        <ele>238</ele>
        <time>2019-02-02T21:15:00.000Z</time>
      </trkpt>
      <trkpt lat="44.81252" lon="1.05697">
        <ele>243</ele>
        <time>2019-02-02T21:16:00.000Z</time>
      </trkpt>
      <trkpt lat="44.81226" lon="1.05634">
        <ele>244</ele>
        <time>2019-02-02T21:17:00.000Z</time>
      </trkpt>
      <trkpt lat="44.81198" lon="1.05553">
        <ele>242</ele>
        <time>2019-02-02T21:18:00.000Z</time>
      </trkpt>
      <trkpt lat="44.81156" lon="1.05391">
        <ele>239</ele>
        <time>2019-02-02T21:19:00.000Z</time>
      </trkpt>
      <trkpt lat="44.81075" lon="1.05311">
        <ele>235</ele>
        <time>2019-02-02T21:20:00.000Z</time>
      </trkpt>
      <trkpt lat="44.80993" lon="1.05219">
        <ele>226</ele>
        <time>2019-02-02T21:21:00.000Z</time>
      </trkpt>
      <trkpt lat="44.80998" lon="1.05141">
        <ele>229</ele>
        <time>2019-02-02T21:22:00.000Z</time>
      </trkpt>
      <trkpt lat="44.80999" lon="1.05069">
        <ele>231</ele>
        <time>2019-02-02T21:23:00.000Z</time>
      </trkpt>
      <trkpt lat="44.81013" lon="1.04984">
        <ele>233</ele>
        <time>2019-02-02T21:24:00.000Z</time>
      </trkpt>
      <trkpt lat="44.81009" lon="1.04896">
        <ele>231</ele>
        <time>2019-02-02T21:25:00.000Z</time>
      </trkpt>
      <trkpt lat="44.81015" lon="1.04765">
        <ele>227</ele>
        <time>2019-02-02T21:26:00.000Z</time>
      </trkpt>
      <trkpt lat="44.81069" lon="1.04679">
        <ele>227</ele>
        <time>2019-02-02T21:27:00.000Z</time>
      </trkpt>
      <trkpt lat="44.8113" lon="1.04568">
        <ele>224</ele>
        <time>2019-02-02T21:28:00.000Z</time>
      </trkpt>
      <trkpt lat="44.81184" lon="1.04545">
        <ele>230</ele>
        <time>2019-02-02T21:29:00.000Z</time>
      </trkpt>
      <trkpt lat="44.81238" lon="1.0452">
        <ele>234</ele>
        <time>2019-02-02T21:30:00.000Z</time>
      </trkpt>
      <trkpt lat="44.81284" lon="1.04532">
        <ele>234</ele>
        <time>2019-02-02T21:31:00.000Z</time>
      </trkpt>
      <trkpt lat="44.81328" lon="1.04552">
        <ele>234</ele>
        <time>2019-02-02T21:32:00.000Z</time>
      </trkpt>
      <trkpt lat="44.81395" lon="1.04649">
        <ele>238</ele>
        <time>2019-02-02T21:33:00.000Z</time>
      </trkpt>
      <trkpt lat="44.81393" lon="1.04676">
        <ele>242</ele>
        <time>2019-02-02T21:34:00.000Z</time>
      </trkpt>
      <trkpt lat="44.81406" lon="1.0474">
        <ele>246</ele>
        <time>2019-02-02T21:35:00.000Z</time>
      </trkpt>
      <trkpt lat="44.81446" lon="1.04745">
        <ele>248</ele>
        <time>2019-02-02T21:36:00.000Z</time>
      </trkpt>
      <trkpt lat="44.81475" lon="1.04716">
        <ele>248</ele>
        <time>2019-02-02T21:37:00.000Z</time>
      </trkpt>
      <trkpt lat="44.81506" lon="1.04701">
        <ele>248</ele>
        <time>2019-02-02T21:38:00.000Z</time>
      </trkpt>
      <trkpt lat="44.81556" lon="1.04677">
        <ele>248</ele>
        <time>2019-02-02T21:39:00.000Z</time>
      </trkpt>
      <trkpt lat="44.81621" lon="1.04486">
        <ele>232</ele>
        <time>2019-02-02T21:40:00.000Z</time>
      </trkpt>
      <trkpt lat="44.81617" lon="1.04257">
        <ele>226</ele>
        <time>2019-02-02T21:41:00.000Z</time>
      </trkpt>
      <trkpt lat="44.81611" lon="1.04018">
        <ele>214</ele>
        <time>2019-02-02T21:42:00.000Z</time>
      </trkpt>
      <trkpt lat="44.81611" lon="1.03891">
        <ele>217</ele>
        <time>2019-02-02T21:43:00.000Z</time>
      </trkpt>
      <trkpt lat="44.81603" lon="1.03806">
        <ele>218</ele>
        <time>2019-02-02T21:44:00.000Z</time>
      </trkpt>
      <trkpt lat="44.81597" lon="1.03711">
        <ele>221</ele>
        <time>2019-02-02T21:45:00.000Z</time>
      </trkpt>
      <trkpt lat="44.81623" lon="1.03614">
        <ele>215</ele>
        <time>2019-02-02T21:46:00.000Z</time>
      </trkpt>
      <trkpt lat="44.81712" lon="1.03422">
        <ele>210</ele>
        <time>2019-02-02T21:47:00.000Z</time>
      </trkpt>
      <trkpt lat="44.81767" lon="1.03338">
        <ele>214</ele>
        <time>2019-02-02T21:48:00.000Z</time>
      </trkpt>
      <trkpt lat="44.81791" lon="1.03272">
        <ele>211</ele>
        <time>2019-02-02T21:49:00.000Z</time>
      </trkpt>
      <trkpt lat="44.81817" lon="1.03205">
        <ele>209</ele>
        <time>2019-02-02T21:50:00.000Z</time>
      </trkpt>
      <trkpt lat="44.8186" lon="1.03059">
        <ele>207</ele>
        <time>2019-02-02T21:51:00.000Z</time>
      </trkpt>
      <trkpt lat="44.81852" lon="1.02954">
        <ele>215</ele>
        <time>2019-02-02T21:52:00.000Z</time>
      </trkpt>
      <trkpt lat="44.81864" lon="1.02884">
        <ele>217</ele>
        <time>2019-02-02T21:53:00.000Z</time>
      </trkpt>
      <trkpt lat="44.8189" lon="1.02821">
        <ele>215</ele>
        <time>2019-02-02T21:54:00.000Z</time>
      </trkpt>
      <trkpt lat="44.81884" lon="1.02764">
        <ele>219</ele>
        <time>2019-02-02T21:55:00.000Z</time>
      </trkpt>
      <trkpt lat="44.81883" lon="1.02714">
        <ele>221</ele>
        <time>2019-02-02T21:56:00.000Z</time>
      </trkpt>
      <trkpt lat="44.81867" lon="1.02657">
        <ele>223</ele>
        <time>2019-02-02T21:57:00.000Z</time>
      </trkpt>
      <trkpt lat="44.81832" lon="1.02601">
        <ele>226</ele>
        <time>2019-02-02T21:58:00.000Z</time>
      </trkpt>
      <trkpt lat="44.81805" lon="1.02509">
        <ele>221</ele>
        <time>2019-02-02T21:59:00.000Z</time>
      </trkpt>
      <trkpt lat="44.8182" lon="1.02146">
        <ele>215</ele>
        <time>2019-02-02T22:00:00.000Z</time>
      </trkpt>
      <trkpt lat="44.81768" lon="1.01996">
        <ele>204</ele>
        <time>2019-02-02T22:01:00.000Z</time>
      </trkpt>
      <trkpt lat="44.81735" lon="1.01849">
        <ele>194</ele>
        <time>2019-02-02T22:02:00.000Z</time>
      </trkpt>
      <trkpt lat="44.81711" lon="1.0161">
        <ele>173</ele>
        <time>2019-02-02T22:03:00.000Z</time>
      </trkpt>
      <trkpt lat="44.81703" lon="1.01404">
        <ele>162</ele>
        <time>2019-02-02T22:04:00.000Z</time>
      </trkpt>
      <trkpt lat="44.8176" lon="1.01255">
        <ele>149</ele>
        <time>2019-02-02T22:05:00.000Z</time>
      </trkpt>
      <trkpt lat="44.81754" lon="1.01108">
        <ele>153</ele>
        <time>2019-02-02T22:06:00.000Z</time>
      </trkpt>
      <trkpt lat="44.81726" lon="1.00973">
        <ele>145</ele>
        <time>2019-02-02T22:07:00.000Z</time>
      </trkpt>
      <trkpt lat="44.81733" lon="1.00814">
        <ele>134</ele>
        <time>2019-02-02T22:08:00.000Z</time>
      </trkpt>
      <trkpt lat="44.81806" lon="1.00817">
        <ele>127</ele>
        <time>2019-02-02T22:09:00.000Z</time>
      </trkpt>
      <trkpt lat="44.81957" lon="1.00757">
        <ele>110</ele>
        <time>2019-02-02T22:10:00.000Z</time>
      </trkpt>
      <trkpt lat="44.8208" lon="1.00669">
        <ele>98</ele>
        <time>2019-02-02T22:11:00.000Z</time>
      </trkpt>
      <trkpt lat="44.82154" lon="1.00534">
        <ele>92</ele>
        <time>2019-02-02T22:12:00.000Z</time>
      </trkpt>
      <trkpt lat="44.82217" lon="1.00378">
        <ele>88</ele>
        <time>2019-02-02T22:13:00.000Z</time>
      </trkpt>
      <trkpt lat="44.82215" lon="1.00342">
        <ele>88</ele>
        <time>2019-02-02T22:14:00.000Z</time>
      </trkpt>
      <trkpt lat="44.82187" lon="1.00247">
        <ele>86</ele>
        <time>2019-02-02T22:15:00.000Z</time>
      </trkpt>
      <trkpt lat="44.82173" lon="1.00019">
        <ele>81</ele>
        <time>2019-02-02T22:16:00.000Z</time>
      </trkpt>
      <trkpt lat="44.82193" lon="0.99769">
        <ele>65</ele>
        <time>2019-02-02T22:17:00.000Z</time>
      </trkpt>
      <trkpt lat="44.82154" lon="0.99503">
        <ele>60</ele>
        <time>2019-02-02T22:18:00.000Z</time>
      </trkpt>
      <trkpt lat="44.82194" lon="0.99315">
        <ele>61</ele>
        <time>2019-02-02T22:19:00.000Z</time>
      </trkpt>
      <trkpt lat="44.82269" lon="0.99204">
        <ele>61</ele>
        <time>2019-02-02T22:20:00.000Z</time>
      </trkpt>
      <trkpt lat="44.82307" lon="0.99082">
        <ele>61</ele>
        <time>2019-02-02T22:21:00.000Z</time>
      </trkpt>
      <trkpt lat="44.82292" lon="0.98981">
        <ele>61</ele>
        <time>2019-02-02T22:22:00.000Z</time>
      </trkpt>
      <trkpt lat="44.82264" lon="0.98951">
        <ele>62</ele>
        <time>2019-02-02T22:23:00.000Z</time>
      </trkpt>
      <trkpt lat="44.82234" lon="0.98981">
        <ele>63</ele>
        <time>2019-02-02T22:24:00.000Z</time>
      </trkpt>
      <trkpt lat="44.82281" lon="0.98951">
        <ele>62</ele>
        <time>2019-02-02T22:25:00.000Z</time>
      </trkpt>
      <trkpt lat="44.8226" lon="0.98896">
        <ele>62</ele>
        <time>2019-02-02T22:26:00.000Z</time>
      </trkpt>
      <trkpt lat="44.82221" lon="0.98808">
        <ele>64</ele>
        <time>2019-02-02T22:27:00.000Z</time>
      </trkpt>
      <trkpt lat="44.82272" lon="0.98769">
        <ele>60</ele>
        <time>2019-02-02T22:28:00.000Z</time>
      </trkpt>
      <trkpt lat="44.8234" lon="0.98752">
        <ele>59</ele>
        <time>2019-02-02T22:29:00.000Z</time>
      </trkpt>
      <trkpt lat="44.82387" lon="0.98753">
        <ele>57</ele>
        <time>2019-02-02T22:30:00.000Z</time>
      </trkpt>
      <trkpt lat="44.82452" lon="0.9874">
        <ele>56</ele>
        <time>2019-02-02T22:31:00.000Z</time>
      </trkpt>
      <trkpt lat="44.82546" lon="0.98757">
        <ele>56</ele>
        <time>2019-02-02T22:32:00.000Z</time>
      </trkpt>
      <trkpt lat="44.82546" lon="0.98757">
        <ele>56</ele>
        <time>2019-02-02T22:32:00.000Z</time>
      </trkpt>
      <trkpt lat="44.82546" lon="0.98757">
        <ele>56</ele>
        <time>2019-02-02T22:32:00.000Z</time>
      </trkpt>
      <trkpt lat="44.8234" lon="0.98751">
        <ele>59</ele>
        <time>2019-02-02T22:33:00.000Z</time>
      </trkpt>
      <trkpt lat="44.82199" lon="0.98788">
        <ele>67</ele>
        <time>2019-02-02T22:34:00.000Z</time>
      </trkpt>
      <trkpt lat="44.82268" lon="0.98935">
        <ele>62</ele>
        <time>2019-02-02T22:35:00.000Z</time>
      </trkpt>
      <trkpt lat="44.8294" lon="0.99133">
        <ele>56</ele>
        <time>2019-02-02T22:36:00.000Z</time>
      </trkpt>
      <trkpt lat="44.82978" lon="0.99121">
        <ele>57</ele>
        <time>2019-02-02T22:37:00.000Z</time>
      </trkpt>
      <trkpt lat="44.83012" lon="0.99102">
        <ele>58</ele>
        <time>2019-02-02T22:38:00.000Z</time>
      </trkpt>
      <trkpt lat="44.83041" lon="0.99078">
        <ele>59</ele>
        <time>2019-02-02T22:39:00.000Z</time>
      </trkpt>
      <trkpt lat="44.83051" lon="0.99067">
        <ele>59</ele>
        <time>2019-02-02T22:40:00.000Z</time>
      </trkpt>
      <trkpt lat="44.83061" lon="0.99057">
        <ele>60</ele>
        <time>2019-02-02T22:41:00.000Z</time>
      </trkpt>
      <trkpt lat="44.83102" lon="0.98994">
        <ele>61</ele>
        <time>2019-02-02T22:42:00.000Z</time>
      </trkpt>
      <trkpt lat="44.83122" lon="0.98945">
        <ele>63</ele>
        <time>2019-02-02T22:43:00.000Z</time>
      </trkpt>
      <trkpt lat="44.83132" lon="0.98902">
        <ele>63</ele>
        <time>2019-02-02T22:44:00.000Z</time>
      </trkpt>
      <trkpt lat="44.83135" lon="0.9887">
        <ele>63</ele>
        <time>2019-02-02T22:45:00.000Z</time>
      </trkpt>
      <trkpt lat="44.83157" lon="0.9817">
        <ele>69</ele>
        <time>2019-02-02T22:46:00.000Z</time>
      </trkpt>
      <trkpt lat="44.8316" lon="0.98054">
        <ele>64</ele>
        <time>2019-02-02T22:47:00.000Z</time>
      </trkpt>
      <trkpt lat="44.83162" lon="0.98004">
        <ele>61</ele>
        <time>2019-02-02T22:48:00.000Z</time>
      </trkpt>
      <trkpt lat="44.83166" lon="0.97926">
        <ele>60</ele>
        <time>2019-02-02T22:49:00.000Z</time>
      </trkpt>
      <trkpt lat="44.83189" lon="0.97439">
        <ele>70</ele>
        <time>2019-02-02T22:50:00.000Z</time>
      </trkpt>
      <trkpt lat="44.83198" lon="0.97354">
        <ele>70</ele>
        <time>2019-02-02T22:51:00.000Z</time>
      </trkpt>
      <trkpt lat="44.83205" lon="0.97333">
        <ele>70</ele>
        <time>2019-02-02T22:52:00.000Z</time>
      </trkpt>
      <trkpt lat="44.83205" lon="0.97258">
        <ele>70</ele>
        <time>2019-02-02T22:53:00.000Z</time>
      </trkpt>
      <trkpt lat="44.8323" lon="0.97186">
        <ele>75</ele>
        <time>2019-02-02T22:54:00.000Z</time>
      </trkpt>
      <trkpt lat="44.8324" lon="0.97128">
        <ele>79</ele>
        <time>2019-02-02T22:55:00.000Z</time>
      </trkpt>
      <trkpt lat="44.83374" lon="0.96929">
        <ele>84</ele>
        <time>2019-02-02T22:56:00.000Z</time>
      </trkpt>
      <trkpt lat="44.83454" lon="0.96827">
        <ele>83</ele>
        <time>2019-02-02T22:57:00.000Z</time>
      </trkpt>
      <trkpt lat="44.83468" lon="0.96788">
        <ele>83</ele>
        <time>2019-02-02T22:58:00.000Z</time>
      </trkpt>
      <trkpt lat="44.83492" lon="0.96725">
        <ele>81</ele>
        <time>2019-02-02T22:59:00.000Z</time>
      </trkpt>
      <trkpt lat="44.83547" lon="0.965">
        <ele>79</ele>
        <time>2019-02-02T23:00:00.000Z</time>
      </trkpt>
      <trkpt lat="44.83636" lon="0.96139">
        <ele>79</ele>
        <time>2019-02-02T23:01:00.000Z</time>
      </trkpt>
      <trkpt lat="44.83652" lon="0.96094">
        <ele>78</ele>
        <time>2019-02-02T23:02:00.000Z</time>
      </trkpt>
      <trkpt lat="44.83675" lon="0.96028">
        <ele>75</ele>
        <time>2019-02-02T23:03:00.000Z</time>
      </trkpt>
      <trkpt lat="44.83773" lon="0.9578">
        <ele>65</ele>
        <time>2019-02-02T23:04:00.000Z</time>
      </trkpt>
      <trkpt lat="44.83783" lon="0.95754">
        <ele>64</ele>
        <time>2019-02-02T23:05:00.000Z</time>
      </trkpt>
      <trkpt lat="44.83809" lon="0.95671">
        <ele>64</ele>
        <time>2019-02-02T23:06:00.000Z</time>
      </trkpt>
      <trkpt lat="44.8396" lon="0.9544">
        <ele>64</ele>
        <time>2019-02-02T23:07:00.000Z</time>
      </trkpt>
      <trkpt lat="44.84009" lon="0.95353">
        <ele>62</ele>
        <time>2019-02-02T23:08:00.000Z</time>
      </trkpt>
      <trkpt lat="44.8405" lon="0.953">
        <ele>61</ele>
        <time>2019-02-02T23:09:00.000Z</time>
      </trkpt>
      <trkpt lat="44.8429" lon="0.95068">
        <ele>60</ele>
        <time>2019-02-02T23:10:00.000Z</time>
      </trkpt>
      <trkpt lat="44.84308" lon="0.95036">
        <ele>60</ele>
        <time>2019-02-02T23:11:00.000Z</time>
      </trkpt>
      <trkpt lat="44.84357" lon="0.94923">
        <ele>68</ele>
        <time>2019-02-02T23:12:00.000Z</time>
      </trkpt>
      <trkpt lat="44.84401" lon="0.94842">
        <ele>70</ele>
        <time>2019-02-02T23:13:00.000Z</time>
      </trkpt>
      <trkpt lat="44.84452" lon="0.94753">
        <ele>71</ele>
        <time>2019-02-02T23:14:00.000Z</time>
      </trkpt>
      <trkpt lat="44.84534" lon="0.94639">
        <ele>72</ele>
        <time>2019-02-02T23:15:00.000Z</time>
      </trkpt>
      <trkpt lat="44.84651" lon="0.94504">
        <ele>68</ele>
        <time>2019-02-02T23:16:00.000Z</time>
      </trkpt>
      <trkpt lat="44.84762" lon="0.94359">
        <ele>69</ele>
        <time>2019-02-02T23:17:00.000Z</time>
      </trkpt>
      <trkpt lat="44.84897" lon="0.94148">
        <ele>67</ele>
        <time>2019-02-02T23:18:00.000Z</time>
      </trkpt>
      <trkpt lat="44.84969" lon="0.94032">
        <ele>71</ele>
        <time>2019-02-02T23:19:00.000Z</time>
      </trkpt>
      <trkpt lat="44.85005" lon="0.9397">
        <ele>70</ele>
        <time>2019-02-02T23:20:00.000Z</time>
      </trkpt>
      <trkpt lat="44.85082" lon="0.93795">
        <ele>71</ele>
        <time>2019-02-02T23:21:00.000Z</time>
      </trkpt>
      <trkpt lat="44.85134" lon="0.93645">
        <ele>75</ele>
        <time>2019-02-02T23:22:00.000Z</time>
      </trkpt>
      <trkpt lat="44.85257" lon="0.93245">
        <ele>70</ele>
        <time>2019-02-02T23:23:00.000Z</time>
      </trkpt>
      <trkpt lat="44.85306" lon="0.93092">
        <ele>75</ele>
        <time>2019-02-02T23:24:00.000Z</time>
      </trkpt>
      <trkpt lat="44.85326" lon="0.93064">
        <ele>76</ele>
        <time>2019-02-02T23:25:00.000Z</time>
      </trkpt>
      <trkpt lat="44.85353" lon="0.93006">
        <ele>77</ele>
        <time>2019-02-02T23:26:00.000Z</time>
      </trkpt>
      <trkpt lat="44.85476" lon="0.92634">
        <ele>74</ele>
        <time>2019-02-02T23:27:00.000Z</time>
      </trkpt>
      <trkpt lat="44.8551" lon="0.92529">
        <ele>76</ele>
        <time>2019-02-02T23:28:00.000Z</time>
      </trkpt>
      <trkpt lat="44.85528" lon="0.92453">
        <ele>76</ele>
        <time>2019-02-02T23:29:00.000Z</time>
      </trkpt>
      <trkpt lat="44.85545" lon="0.92369">
        <ele>72</ele>
        <time>2019-02-02T23:30:00.000Z</time>
      </trkpt>
      <trkpt lat="44.8555" lon="0.92322">
        <ele>70</ele>
        <time>2019-02-02T23:31:00.000Z</time>
      </trkpt>
      <trkpt lat="44.85554" lon="0.92261">
        <ele>66</ele>
        <time>2019-02-02T23:32:00.000Z</time>
      </trkpt>
      <trkpt lat="44.85568" lon="0.92188">
        <ele>65</ele>
        <time>2019-02-02T23:33:00.000Z</time>
      </trkpt>
      <trkpt lat="44.85579" lon="0.92116">
        <ele>64</ele>
        <time>2019-02-02T23:34:00.000Z</time>
      </trkpt>
      <trkpt lat="44.85586" lon="0.92045">
        <ele>62</ele>
        <time>2019-02-02T23:35:00.000Z</time>
      </trkpt>
      <trkpt lat="44.85594" lon="0.92001">
        <ele>60</ele>
        <time>2019-02-02T23:36:00.000Z</time>
      </trkpt>
      <trkpt lat="44.85605" lon="0.91972">
        <ele>60</ele>
        <time>2019-02-02T23:37:00.000Z</time>
      </trkpt>
      <trkpt lat="44.85624" lon="0.91952">
        <ele>60</ele>
        <time>2019-02-02T23:38:00.000Z</time>
      </trkpt>
      <trkpt lat="44.85652" lon="0.91926">
        <ele>58</ele>
        <time>2019-02-02T23:39:00.000Z</time>
      </trkpt>
      <trkpt lat="44.85682" lon="0.91888">
        <ele>57</ele>
        <time>2019-02-02T23:40:00.000Z</time>
      </trkpt>
      <trkpt lat="44.85692" lon="0.91866">
        <ele>58</ele>
        <time>2019-02-02T23:41:00.000Z</time>
      </trkpt>
      <trkpt lat="44.857" lon="0.91845">
        <ele>59</ele>
        <time>2019-02-02T23:42:00.000Z</time>
      </trkpt>
      <trkpt lat="44.85704" lon="0.91819">
        <ele>61</ele>
        <time>2019-02-02T23:43:00.000Z</time>
      </trkpt>
      <trkpt lat="44.85704" lon="0.91778">
        <ele>63</ele>
        <time>2019-02-02T23:44:00.000Z</time>
      </trkpt>
      <trkpt lat="44.85699" lon="0.91733">
        <ele>65</ele>
        <time>2019-02-02T23:45:00.000Z</time>
      </trkpt>
      <trkpt lat="44.85678" lon="0.91567">
        <ele>71</ele>
        <time>2019-02-02T23:46:00.000Z</time>
      </trkpt>
      <trkpt lat="44.85651" lon="0.91334">
        <ele>75</ele>
        <time>2019-02-02T23:47:00.000Z</time>
      </trkpt>
      <trkpt lat="44.85637" lon="0.91166">
        <ele>81</ele>
        <time>2019-02-02T23:48:00.000Z</time>
      </trkpt>
      <trkpt lat="44.85631" lon="0.91056">
        <ele>78</ele>
        <time>2019-02-02T23:49:00.000Z</time>
      </trkpt>
      <trkpt lat="44.8564" lon="0.90898">
        <ele>73</ele>
        <time>2019-02-02T23:50:00.000Z</time>
      </trkpt>
      <trkpt lat="44.8564" lon="0.90881">
        <ele>73</ele>
        <time>2019-02-02T23:51:00.000Z</time>
      </trkpt>
      <trkpt lat="44.85633" lon="0.90842">
        <ele>71</ele>
        <time>2019-02-02T23:52:00.000Z</time>
      </trkpt>
      <trkpt lat="44.85632" lon="0.90785">
        <ele>68</ele>
        <time>2019-02-02T23:53:00.000Z</time>
      </trkpt>
      <trkpt lat="44.85632" lon="0.90719">
        <ele>64</ele>
        <time>2019-02-02T23:54:00.000Z</time>
      </trkpt>
      <trkpt lat="44.85631" lon="0.90658">
        <ele>59</ele>
        <time>2019-02-02T23:55:00.000Z</time>
      </trkpt>
      <trkpt lat="44.85637" lon="0.90613">
        <ele>58</ele>
        <time>2019-02-02T23:56:00.000Z</time>
      </trkpt>
      <trkpt lat="44.8565" lon="0.90585">
        <ele>58</ele>
        <time>2019-02-02T23:57:00.000Z</time>
      </trkpt>
      <trkpt lat="44.85663" lon="0.90565">
        <ele>58</ele>
        <time>2019-02-02T23:58:00.000Z</time>
      </trkpt>
      <trkpt lat="44.85728" lon="0.90498">
        <ele>60</ele>
        <time>2019-02-02T23:59:00.000Z</time>
      </trkpt>
      <trkpt lat="44.85747" lon="0.90469">
        <ele>60</ele>
        <time>2019-02-03T00:00:00.000Z</time>
      </trkpt>
      <trkpt lat="44.85762" lon="0.9044">
        <ele>61</ele>
        <time>2019-02-03T00:01:00.000Z</time>
      </trkpt>
      <trkpt lat="44.85779" lon="0.90406">
        <ele>61</ele>
        <time>2019-02-03T00:02:00.000Z</time>
      </trkpt>
      <trkpt lat="44.85797" lon="0.90383">
        <ele>62</ele>
        <time>2019-02-03T00:03:00.000Z</time>
      </trkpt>
      <trkpt lat="44.85843" lon="0.90314">
        <ele>62</ele>
        <time>2019-02-03T00:04:00.000Z</time>
      </trkpt>
      <trkpt lat="44.8586" lon="0.90292">
        <ele>62</ele>
        <time>2019-02-03T00:05:00.000Z</time>
      </trkpt>
      <trkpt lat="44.85896" lon="0.90254">
        <ele>63</ele>
        <time>2019-02-03T00:06:00.000Z</time>
      </trkpt>
      <trkpt lat="44.85917" lon="0.90235">
        <ele>64</ele>
        <time>2019-02-03T00:07:00.000Z</time>
      </trkpt>
      <trkpt lat="44.85935" lon="0.90223">
        <ele>64</ele>
        <time>2019-02-03T00:08:00.000Z</time>
      </trkpt>
      <trkpt lat="44.8596" lon="0.9021">
        <ele>64</ele>
        <time>2019-02-03T00:09:00.000Z</time>
      </trkpt>
      <trkpt lat="44.85979" lon="0.90198">
        <ele>64</ele>
        <time>2019-02-03T00:10:00.000Z</time>
      </trkpt>
      <trkpt lat="44.86003" lon="0.90188">
        <ele>64</ele>
        <time>2019-02-03T00:11:00.000Z</time>
      </trkpt>
      <trkpt lat="44.86023" lon="0.90178">
        <ele>64</ele>
        <time>2019-02-03T00:12:00.000Z</time>
      </trkpt>
      <trkpt lat="44.86043" lon="0.90168">
        <ele>64</ele>
        <time>2019-02-03T00:13:00.000Z</time>
      </trkpt>
      <trkpt lat="44.86043" lon="0.90137">
        <ele>62</ele>
        <time>2019-02-03T00:14:00.000Z</time>
      </trkpt>
      <trkpt lat="44.86025" lon="0.90089">
        <ele>60</ele>
        <time>2019-02-03T00:15:00.000Z</time>
      </trkpt>
      <trkpt lat="44.86007" lon="0.90037">
        <ele>59</ele>
        <time>2019-02-03T00:16:00.000Z</time>
      </trkpt>
      <trkpt lat="44.85995" lon="0.89993">
        <ele>58</ele>
        <time>2019-02-03T00:17:00.000Z</time>
      </trkpt>
      <trkpt lat="44.85978" lon="0.89944">
        <ele>58</ele>
        <time>2019-02-03T00:18:00.000Z</time>
      </trkpt>
      <trkpt lat="44.85944" lon="0.89935">
        <ele>58</ele>
        <time>2019-02-03T00:19:00.000Z</time>
      </trkpt>
      <trkpt lat="44.85913" lon="0.89932">
        <ele>57</ele>
        <time>2019-02-03T00:20:00.000Z</time>
      </trkpt>
      <trkpt lat="44.85919" lon="0.89899">
        <ele>56</ele>
        <time>2019-02-03T00:21:00.000Z</time>
      </trkpt>
      <trkpt lat="44.85944" lon="0.89894">
        <ele>57</ele>
        <time>2019-02-03T00:22:00.000Z</time>
      </trkpt>
      <trkpt lat="44.85962" lon="0.89872">
        <ele>56</ele>
        <time>2019-02-03T00:23:00.000Z</time>
      </trkpt>
      <trkpt lat="44.85987" lon="0.89841">
        <ele>56</ele>
        <time>2019-02-03T00:24:00.000Z</time>
      </trkpt>
      <trkpt lat="44.86019" lon="0.89799">
        <ele>55</ele>
        <time>2019-02-03T00:25:00.000Z</time>
      </trkpt>
      <trkpt lat="44.8604" lon="0.8977">
        <ele>53</ele>
        <time>2019-02-03T00:26:00.000Z</time>
      </trkpt>
      <trkpt lat="44.8606" lon="0.89737">
        <ele>52</ele>
        <time>2019-02-03T00:27:00.000Z</time>
      </trkpt>
      <trkpt lat="44.86087" lon="0.89703">
        <ele>53</ele>
        <time>2019-02-03T00:28:00.000Z</time>
      </trkpt>
      <trkpt lat="44.86112" lon="0.89669">
        <ele>54</ele>
        <time>2019-02-03T00:29:00.000Z</time>
      </trkpt>
      <trkpt lat="44.86137" lon="0.89634">
        <ele>55</ele>
        <time>2019-02-03T00:30:00.000Z</time>
      </trkpt>
      <trkpt lat="44.86161" lon="0.89605">
        <ele>55</ele>
        <time>2019-02-03T00:31:00.000Z</time>
      </trkpt>
      <trkpt lat="44.8618" lon="0.89578">
        <ele>55</ele>
        <time>2019-02-03T00:32:00.000Z</time>
      </trkpt>
      <trkpt lat="44.86196" lon="0.89558">
        <ele>55</ele>
        <time>2019-02-03T00:33:00.000Z</time>
      </trkpt>
      <trkpt lat="44.86215" lon="0.89532">
        <ele>54</ele>
        <time>2019-02-03T00:34:00.000Z</time>
      </trkpt>
      <trkpt lat="44.86234" lon="0.89508">
        <ele>54</ele>
        <time>2019-02-03T00:35:00.000Z</time>
      </trkpt>
      <trkpt lat="44.86257" lon="0.89482">
        <ele>54</ele>
        <time>2019-02-03T00:36:00.000Z</time>
      </trkpt>
      <trkpt lat="44.86279" lon="0.89453">
        <ele>55</ele>
        <time>2019-02-03T00:37:00.000Z</time>
      </trkpt>
      <trkpt lat="44.86321" lon="0.89402">
        <ele>55</ele>
        <time>2019-02-03T00:38:00.000Z</time>
      </trkpt>
      <trkpt lat="44.86345" lon="0.89372">
        <ele>55</ele>
        <time>2019-02-03T00:39:00.000Z</time>
      </trkpt>
      <trkpt lat="44.86369" lon="0.8934">
        <ele>55</ele>
        <time>2019-02-03T00:40:00.000Z</time>
      </trkpt>
      <trkpt lat="44.8639" lon="0.89314">
        <ele>54</ele>
        <time>2019-02-03T00:41:00.000Z</time>
      </trkpt>
      <trkpt lat="44.86414" lon="0.8928">
        <ele>53</ele>
        <time>2019-02-03T00:42:00.000Z</time>
      </trkpt>
      <trkpt lat="44.86437" lon="0.89251">
        <ele>53</ele>
        <time>2019-02-03T00:43:00.000Z</time>
      </trkpt>
      <trkpt lat="44.86468" lon="0.89232">
        <ele>55</ele>
        <time>2019-02-03T00:44:00.000Z</time>
      </trkpt>
      <trkpt lat="44.865" lon="0.89208">
        <ele>56</ele>
        <time>2019-02-03T00:45:00.000Z</time>
      </trkpt>
      <trkpt lat="44.86529" lon="0.8922">
        <ele>56</ele>
        <time>2019-02-03T00:46:00.000Z</time>
      </trkpt>
      <trkpt lat="44.86559" lon="0.89209">
        <ele>56</ele>
        <time>2019-02-03T00:47:00.000Z</time>
      </trkpt>
      <trkpt lat="44.86581" lon="0.89202">
        <ele>56</ele>
        <time>2019-02-03T00:48:00.000Z</time>
      </trkpt>
      <trkpt lat="44.86605" lon="0.8919">
        <ele>56</ele>
        <time>2019-02-03T00:49:00.000Z</time>
      </trkpt>
      <trkpt lat="44.86625" lon="0.89183">
        <ele>56</ele>
        <time>2019-02-03T00:50:00.000Z</time>
      </trkpt>
      <trkpt lat="44.86645" lon="0.89174">
        <ele>57</ele>
        <time>2019-02-03T00:51:00.000Z</time>
      </trkpt>
      <trkpt lat="44.86674" lon="0.89163">
        <ele>57</ele>
        <time>2019-02-03T00:52:00.000Z</time>
      </trkpt>
      <trkpt lat="44.86703" lon="0.89157">
        <ele>56</ele>
        <time>2019-02-03T00:53:00.000Z</time>
      </trkpt>
      <trkpt lat="44.86734" lon="0.89149">
        <ele>56</ele>
        <time>2019-02-03T00:54:00.000Z</time>
      </trkpt>
      <trkpt lat="44.86758" lon="0.89141">
        <ele>56</ele>
        <time>2019-02-03T00:55:00.000Z</time>
      </trkpt>
      <trkpt lat="44.86806" lon="0.89128">
        <ele>55</ele>
        <time>2019-02-03T00:56:00.000Z</time>
      </trkpt>
      <trkpt lat="44.8683" lon="0.89123">
        <ele>56</ele>
        <time>2019-02-03T00:57:00.000Z</time>
      </trkpt>
      <trkpt lat="44.86855" lon="0.89113">
        <ele>55</ele>
        <time>2019-02-03T00:58:00.000Z</time>
      </trkpt>
      <trkpt lat="44.86881" lon="0.8911">
        <ele>54</ele>
        <time>2019-02-03T00:59:00.000Z</time>
      </trkpt>
      <trkpt lat="44.8691" lon="0.89117">
        <ele>53</ele>
        <time>2019-02-03T01:00:00.000Z</time>
      </trkpt>
      <trkpt lat="44.8693" lon="0.89124">
        <ele>53</ele>
        <time>2019-02-03T01:01:00.000Z</time>
      </trkpt>
      <trkpt lat="44.86953" lon="0.8913">
        <ele>53</ele>
        <time>2019-02-03T01:02:00.000Z</time>
      </trkpt>
      <trkpt lat="44.86982" lon="0.89131">
        <ele>52</ele>
        <time>2019-02-03T01:03:00.000Z</time>
      </trkpt>
      <trkpt lat="44.87016" lon="0.89144">
        <ele>52</ele>
        <time>2019-02-03T01:04:00.000Z</time>
      </trkpt>
      <trkpt lat="44.87054" lon="0.89149">
        <ele>52</ele>
        <time>2019-02-03T01:05:00.000Z</time>
      </trkpt>
      <trkpt lat="44.87086" lon="0.89153">
        <ele>52</ele>
        <time>2019-02-03T01:06:00.000Z</time>
      </trkpt>
      <trkpt lat="44.87123" lon="0.89161">
        <ele>52</ele>
        <time>2019-02-03T01:07:00.000Z</time>
      </trkpt>
      <trkpt lat="44.87164" lon="0.89166">
        <ele>51</ele>
        <time>2019-02-03T01:08:00.000Z</time>
      </trkpt>
      <trkpt lat="44.87193" lon="0.89164">
        <ele>51</ele>
        <time>2019-02-03T01:09:00.000Z</time>
      </trkpt>
      <trkpt lat="44.87224" lon="0.89162">
        <ele>51</ele>
        <time>2019-02-03T01:10:00.000Z</time>
      </trkpt>
      <trkpt lat="44.87262" lon="0.89164">
        <ele>51</ele>
        <time>2019-02-03T01:11:00.000Z</time>
      </trkpt>
      <trkpt lat="44.87297" lon="0.89171">
        <ele>51</ele>
        <time>2019-02-03T01:12:00.000Z</time>
      </trkpt>
      <trkpt lat="44.87331" lon="0.89175">
        <ele>51</ele>
        <time>2019-02-03T01:13:00.000Z</time>
      </trkpt>
      <trkpt lat="44.87363" lon="0.89187">
        <ele>52</ele>
        <time>2019-02-03T01:14:00.000Z</time>
      </trkpt>
      <trkpt lat="44.87395" lon="0.89194">
        <ele>53</ele>
        <time>2019-02-03T01:15:00.000Z</time>
      </trkpt>
      <trkpt lat="44.87427" lon="0.892">
        <ele>53</ele>
        <time>2019-02-03T01:16:00.000Z</time>
      </trkpt>
      <trkpt lat="44.87489" lon="0.89201">
        <ele>52</ele>
        <time>2019-02-03T01:17:00.000Z</time>
      </trkpt>
      <trkpt lat="44.87522" lon="0.89204">
        <ele>52</ele>
        <time>2019-02-03T01:18:00.000Z</time>
      </trkpt>
      <trkpt lat="44.87554" lon="0.89209">
        <ele>52</ele>
        <time>2019-02-03T01:19:00.000Z</time>
      </trkpt>
      <trkpt lat="44.87607" lon="0.89211">
        <ele>51</ele>
        <time>2019-02-03T01:20:00.000Z</time>
      </trkpt>
      <trkpt lat="44.87641" lon="0.89212">
        <ele>51</ele>
        <time>2019-02-03T01:21:00.000Z</time>
      </trkpt>
      <trkpt lat="44.8767" lon="0.89211">
        <ele>51</ele>
        <time>2019-02-03T01:22:00.000Z</time>
      </trkpt>
      <trkpt lat="44.87704" lon="0.89206">
        <ele>51</ele>
        <time>2019-02-03T01:23:00.000Z</time>
      </trkpt>
      <trkpt lat="44.87735" lon="0.89204">
        <ele>51</ele>
        <time>2019-02-03T01:24:00.000Z</time>
      </trkpt>
      <trkpt lat="44.87758" lon="0.892">
        <ele>51</ele>
        <time>2019-02-03T01:25:00.000Z</time>
      </trkpt>
      <trkpt lat="44.87779" lon="0.89199">
        <ele>51</ele>
        <time>2019-02-03T01:26:00.000Z</time>
      </trkpt>
      <trkpt lat="44.87803" lon="0.89198">
        <ele>51</ele>
        <time>2019-02-03T01:27:00.000Z</time>
      </trkpt>
      <trkpt lat="44.87827" lon="0.89193">
        <ele>50</ele>
        <time>2019-02-03T01:28:00.000Z</time>
      </trkpt>
      <trkpt lat="44.87857" lon="0.89187">
        <ele>50</ele>
        <time>2019-02-03T01:29:00.000Z</time>
      </trkpt>
      <trkpt lat="44.87883" lon="0.8918">
        <ele>50</ele>
        <time>2019-02-03T01:30:00.000Z</time>
      </trkpt>
      <trkpt lat="44.87911" lon="0.89168">
        <ele>50</ele>
        <time>2019-02-03T01:31:00.000Z</time>
      </trkpt>
      <trkpt lat="44.87946" lon="0.8916">
        <ele>51</ele>
        <time>2019-02-03T01:32:00.000Z</time>
      </trkpt>
      <trkpt lat="44.8798" lon="0.89149">
        <ele>52</ele>
        <time>2019-02-03T01:33:00.000Z</time>
      </trkpt>
      <trkpt lat="44.88068" lon="0.89108">
        <ele>55</ele>
        <time>2019-02-03T01:34:00.000Z</time>
      </trkpt>
      <trkpt lat="44.88084" lon="0.89101">
        <ele>55</ele>
        <time>2019-02-03T01:35:00.000Z</time>
      </trkpt>
      <trkpt lat="44.88101" lon="0.89093">
        <ele>55</ele>
        <time>2019-02-03T01:36:00.000Z</time>
      </trkpt>
      <trkpt lat="44.88113" lon="0.89086">
        <ele>54</ele>
        <time>2019-02-03T01:37:00.000Z</time>
      </trkpt>
      <trkpt lat="44.88125" lon="0.8908">
        <ele>54</ele>
        <time>2019-02-03T01:38:00.000Z</time>
      </trkpt>
      <trkpt lat="44.88136" lon="0.89073">
        <ele>53</ele>
        <time>2019-02-03T01:39:00.000Z</time>
      </trkpt>
      <trkpt lat="44.8813" lon="0.89052">
        <ele>52</ele>
        <time>2019-02-03T01:40:00.000Z</time>
      </trkpt>
      <trkpt lat="44.88125" lon="0.8903">
        <ele>51</ele>
        <time>2019-02-03T01:41:00.000Z</time>
      </trkpt>
      <trkpt lat="44.88119" lon="0.89007">
        <ele>50</ele>
        <time>2019-02-03T01:42:00.000Z</time>
      </trkpt>
      <trkpt lat="44.88112" lon="0.88987">
        <ele>50</ele>
        <time>2019-02-03T01:43:00.000Z</time>
      </trkpt>
      <trkpt lat="44.88105" lon="0.88958">
        <ele>50</ele>
        <time>2019-02-03T01:44:00.000Z</time>
      </trkpt>
      <trkpt lat="44.88095" lon="0.88927">
        <ele>51</ele>
        <time>2019-02-03T01:45:00.000Z</time>
      </trkpt>
      <trkpt lat="44.88086" lon="0.88902">
        <ele>51</ele>
        <time>2019-02-03T01:46:00.000Z</time>
      </trkpt>
      <trkpt lat="44.8806" lon="0.88818">
        <ele>52</ele>
        <time>2019-02-03T01:47:00.000Z</time>
      </trkpt>
      <trkpt lat="44.8805" lon="0.88787">
        <ele>52</ele>
        <time>2019-02-03T01:48:00.000Z</time>
      </trkpt>
      <trkpt lat="44.88033" lon="0.88742">
        <ele>52</ele>
        <time>2019-02-03T01:49:00.000Z</time>
      </trkpt>
      <trkpt lat="44.88019" lon="0.8871">
        <ele>52</ele>
        <time>2019-02-03T01:50:00.000Z</time>
      </trkpt>
      <trkpt lat="44.87982" lon="0.88646">
        <ele>52</ele>
        <time>2019-02-03T01:51:00.000Z</time>
      </trkpt>
      <trkpt lat="44.87972" lon="0.88624">
        <ele>51</ele>
        <time>2019-02-03T01:52:00.000Z</time>
      </trkpt>
      <trkpt lat="44.87974" lon="0.88604">
        <ele>51</ele>
        <time>2019-02-03T01:53:00.000Z</time>
      </trkpt>
      <trkpt lat="44.8798" lon="0.88591">
        <ele>51</ele>
        <time>2019-02-03T01:54:00.000Z</time>
      </trkpt>
      <trkpt lat="44.8799" lon="0.88585">
        <ele>51</ele>
        <time>2019-02-03T01:55:00.000Z</time>
      </trkpt>
      <trkpt lat="44.88" lon="0.88578">
        <ele>51</ele>
        <time>2019-02-03T01:56:00.000Z</time>
      </trkpt>
      <trkpt lat="44.88011" lon="0.88573">
        <ele>51</ele>
        <time>2019-02-03T01:57:00.000Z</time>
      </trkpt>
      <trkpt lat="44.8802" lon="0.88576">
        <ele>52</ele>
        <time>2019-02-03T01:58:00.000Z</time>
      </trkpt>
      <trkpt lat="44.88028" lon="0.8859">
        <ele>52</ele>
        <time>2019-02-03T01:59:00.000Z</time>
      </trkpt>
      <trkpt lat="44.8804" lon="0.88598">
        <ele>52</ele>
        <time>2019-02-03T02:00:00.000Z</time>
      </trkpt>
      <trkpt lat="44.88051" lon="0.88606">
        <ele>53</ele>
        <time>2019-02-03T02:01:00.000Z</time>
      </trkpt>
      <trkpt lat="44.88062" lon="0.88604">
        <ele>53</ele>
        <time>2019-02-03T02:02:00.000Z</time>
      </trkpt>
      <trkpt lat="44.88066" lon="0.88588">
        <ele>53</ele>
        <time>2019-02-03T02:03:00.000Z</time>
      </trkpt>
      <trkpt lat="44.88071" lon="0.88572">
        <ele>53</ele>
        <time>2019-02-03T02:04:00.000Z</time>
      </trkpt>
      <trkpt lat="44.88079" lon="0.88554">
        <ele>53</ele>
        <time>2019-02-03T02:05:00.000Z</time>
      </trkpt>
      <trkpt lat="44.88081" lon="0.88538">
        <ele>53</ele>
        <time>2019-02-03T02:06:00.000Z</time>
      </trkpt>
      <trkpt lat="44.88087" lon="0.88529">
        <ele>53</ele>
        <time>2019-02-03T02:07:00.000Z</time>
      </trkpt>
      <trkpt lat="44.88103" lon="0.88534">
        <ele>53</ele>
        <time>2019-02-03T02:08:00.000Z</time>
      </trkpt>
      <trkpt lat="44.88115" lon="0.88541">
        <ele>53</ele>
        <time>2019-02-03T02:09:00.000Z</time>
      </trkpt>
      <trkpt lat="44.88107" lon="0.88533">
        <ele>53</ele>
        <time>2019-02-03T02:10:00.000Z</time>
      </trkpt>
      <trkpt lat="44.88096" lon="0.88528">
        <ele>53</ele>
        <time>2019-02-03T02:11:00.000Z</time>
      </trkpt>
      <trkpt lat="44.88085" lon="0.88528">
        <ele>53</ele>
        <time>2019-02-03T02:12:00.000Z</time>
      </trkpt>
      <trkpt lat="44.88068" lon="0.88523">
        <ele>53</ele>
        <time>2019-02-03T02:13:00.000Z</time>
      </trkpt>
      <trkpt lat="44.88052" lon="0.88524">
        <ele>52</ele>
        <time>2019-02-03T02:14:00.000Z</time>
      </trkpt>
      <trkpt lat="44.88042" lon="0.88538">
        <ele>52</ele>
        <time>2019-02-03T02:15:00.000Z</time>
      </trkpt>
      <trkpt lat="44.88026" lon="0.88556">
        <ele>51</ele>
        <time>2019-02-03T02:16:00.000Z</time>
      </trkpt>
      <trkpt lat="44.88016" lon="0.8857">
        <ele>51</ele>
        <time>2019-02-03T02:17:00.000Z</time>
      </trkpt>
      <trkpt lat="44.88003" lon="0.88576">
        <ele>51</ele>
        <time>2019-02-03T02:18:00.000Z</time>
      </trkpt>
      <trkpt lat="44.87986" lon="0.88585">
        <ele>51</ele>
        <time>2019-02-03T02:19:00.000Z</time>
      </trkpt>
      <trkpt lat="44.87975" lon="0.88603">
        <ele>51</ele>
        <time>2019-02-03T02:20:00.000Z</time>
      </trkpt>
      <trkpt lat="44.8797" lon="0.88626">
        <ele>51</ele>
        <time>2019-02-03T02:21:00.000Z</time>
      </trkpt>
      <trkpt lat="44.87982" lon="0.8865">
        <ele>52</ele>
        <time>2019-02-03T02:22:00.000Z</time>
      </trkpt>
      <trkpt lat="44.87996" lon="0.88676">
        <ele>53</ele>
        <time>2019-02-03T02:23:00.000Z</time>
      </trkpt>
      <trkpt lat="44.88019" lon="0.88718">
        <ele>52</ele>
        <time>2019-02-03T02:24:00.000Z</time>
      </trkpt>
      <trkpt lat="44.88027" lon="0.88736">
        <ele>52</ele>
        <time>2019-02-03T02:25:00.000Z</time>
      </trkpt>
      <trkpt lat="44.88035" lon="0.88755">
        <ele>52</ele>
        <time>2019-02-03T02:26:00.000Z</time>
      </trkpt>
      <trkpt lat="44.88043" lon="0.88775">
        <ele>52</ele>
        <time>2019-02-03T02:27:00.000Z</time>
      </trkpt>
      <trkpt lat="44.88049" lon="0.88792">
        <ele>52</ele>
        <time>2019-02-03T02:28:00.000Z</time>
      </trkpt>
      <trkpt lat="44.88061" lon="0.88832">
        <ele>52</ele>
        <time>2019-02-03T02:29:00.000Z</time>
      </trkpt>
      <trkpt lat="44.88067" lon="0.88854">
        <ele>52</ele>
        <time>2019-02-03T02:30:00.000Z</time>
      </trkpt>
      <trkpt lat="44.88076" lon="0.88883">
        <ele>52</ele>
        <time>2019-02-03T02:31:00.000Z</time>
      </trkpt>
      <trkpt lat="44.88086" lon="0.88914">
        <ele>51</ele>
        <time>2019-02-03T02:32:00.000Z</time>
      </trkpt>
      <trkpt lat="44.88096" lon="0.88946">
        <ele>50</ele>
        <time>2019-02-03T02:33:00.000Z</time>
      </trkpt>
      <trkpt lat="44.88106" lon="0.88976">
        <ele>50</ele>
        <time>2019-02-03T02:34:00.000Z</time>
      </trkpt>
      <trkpt lat="44.88117" lon="0.89014">
        <ele>50</ele>
        <time>2019-02-03T02:35:00.000Z</time>
      </trkpt>
      <trkpt lat="44.88127" lon="0.89049">
        <ele>52</ele>
        <time>2019-02-03T02:36:00.000Z</time>
      </trkpt>
      <trkpt lat="44.88137" lon="0.89068">
        <ele>53</ele>
        <time>2019-02-03T02:37:00.000Z</time>
      </trkpt>
      <trkpt lat="44.88144" lon="0.89077">
        <ele>53</ele>
        <time>2019-02-03T02:38:00.000Z</time>
      </trkpt>
      <trkpt lat="44.88164" lon="0.89074">
        <ele>52</ele>
        <time>2019-02-03T02:39:00.000Z</time>
      </trkpt>
      <trkpt lat="44.8819" lon="0.89069">
        <ele>52</ele>
        <time>2019-02-03T02:40:00.000Z</time>
      </trkpt>
      <trkpt lat="44.88215" lon="0.89065">
        <ele>51</ele>
        <time>2019-02-03T02:41:00.000Z</time>
      </trkpt>
      <trkpt lat="44.88235" lon="0.89062">
        <ele>51</ele>
        <time>2019-02-03T02:42:00.000Z</time>
      </trkpt>
      <trkpt lat="44.88288" lon="0.89057">
        <ele>53</ele>
        <time>2019-02-03T02:43:00.000Z</time>
      </trkpt>
      <trkpt lat="44.88323" lon="0.89052">
        <ele>55</ele>
        <time>2019-02-03T02:44:00.000Z</time>
      </trkpt>
      <trkpt lat="44.88348" lon="0.89051">
        <ele>59</ele>
        <time>2019-02-03T02:45:00.000Z</time>
      </trkpt>
      <trkpt lat="44.8836" lon="0.89042">
        <ele>62</ele>
        <time>2019-02-03T02:46:00.000Z</time>
      </trkpt>
      <trkpt lat="44.88355" lon="0.89031">
        <ele>62</ele>
        <time>2019-02-03T02:47:00.000Z</time>
      </trkpt>
      <trkpt lat="44.88345" lon="0.89013">
        <ele>62</ele>
        <time>2019-02-03T02:48:00.000Z</time>
      </trkpt>
      <trkpt lat="44.88332" lon="0.88993">
        <ele>60</ele>
        <time>2019-02-03T02:49:00.000Z</time>
      </trkpt>
      <trkpt lat="44.88312" lon="0.88967">
        <ele>61</ele>
        <time>2019-02-03T02:50:00.000Z</time>
      </trkpt>
      <trkpt lat="44.88302" lon="0.88944">
        <ele>62</ele>
        <time>2019-02-03T02:51:00.000Z</time>
      </trkpt>
      <trkpt lat="44.8829" lon="0.88916">
        <ele>62</ele>
        <time>2019-02-03T02:52:00.000Z</time>
      </trkpt>
      <trkpt lat="44.88281" lon="0.88894">
        <ele>60</ele>
        <time>2019-02-03T02:53:00.000Z</time>
      </trkpt>
      <trkpt lat="44.88286" lon="0.88883">
        <ele>60</ele>
        <time>2019-02-03T02:54:00.000Z</time>
      </trkpt>
      <trkpt lat="44.8828" lon="0.88894">
        <ele>59</ele>
        <time>2019-02-03T02:55:00.000Z</time>
      </trkpt>
      <trkpt lat="44.88281" lon="0.88907">
        <ele>60</ele>
        <time>2019-02-03T02:56:00.000Z</time>
      </trkpt>
      <trkpt lat="44.88297" lon="0.88946">
        <ele>61</ele>
        <time>2019-02-03T02:57:00.000Z</time>
      </trkpt>
      <trkpt lat="44.88304" lon="0.88967">
        <ele>60</ele>
        <time>2019-02-03T02:58:00.000Z</time>
      </trkpt>
      <trkpt lat="44.88345" lon="0.89027">
        <ele>60</ele>
        <time>2019-02-03T02:59:00.000Z</time>
      </trkpt>
      <trkpt lat="44.88428" lon="0.89073">
        <ele>65</ele>
        <time>2019-02-03T03:00:00.000Z</time>
      </trkpt>
      <trkpt lat="44.88507" lon="0.89099">
        <ele>68</ele>
        <time>2019-02-03T03:01:00.000Z</time>
      </trkpt>
      <trkpt lat="44.88569" lon="0.89148">
        <ele>65</ele>
        <time>2019-02-03T03:02:00.000Z</time>
      </trkpt>
      <trkpt lat="44.88643" lon="0.89211">
        <ele>65</ele>
        <time>2019-02-03T03:03:00.000Z</time>
      </trkpt>
      <trkpt lat="44.88709" lon="0.89272">
        <ele>66</ele>
        <time>2019-02-03T03:04:00.000Z</time>
      </trkpt>
      <trkpt lat="44.88768" lon="0.89346">
        <ele>61</ele>
        <time>2019-02-03T03:05:00.000Z</time>
      </trkpt>
      <trkpt lat="44.88825" lon="0.89414">
        <ele>58</ele>
        <time>2019-02-03T03:06:00.000Z</time>
      </trkpt>
      <trkpt lat="44.88872" lon="0.89472">
        <ele>59</ele>
        <time>2019-02-03T03:07:00.000Z</time>
      </trkpt>
      <trkpt lat="44.88914" lon="0.89527">
        <ele>58</ele>
        <time>2019-02-03T03:08:00.000Z</time>
      </trkpt>
      <trkpt lat="44.8896" lon="0.89586">
        <ele>59</ele>
        <time>2019-02-03T03:09:00.000Z</time>
      </trkpt>
      <trkpt lat="44.88997" lon="0.89634">
        <ele>61</ele>
        <time>2019-02-03T03:10:00.000Z</time>
      </trkpt>
      <trkpt lat="44.89032" lon="0.89677">
        <ele>62</ele>
        <time>2019-02-03T03:11:00.000Z</time>
      </trkpt>
      <trkpt lat="44.89066" lon="0.89738">
        <ele>63</ele>
        <time>2019-02-03T03:12:00.000Z</time>
      </trkpt>
      <trkpt lat="44.89111" lon="0.89782">
        <ele>64</ele>
        <time>2019-02-03T03:13:00.000Z</time>
      </trkpt>
      <trkpt lat="44.89156" lon="0.89857">
        <ele>61</ele>
        <time>2019-02-03T03:14:00.000Z</time>
      </trkpt>
      <trkpt lat="44.89189" lon="0.89968">
        <ele>60</ele>
        <time>2019-02-03T03:15:00.000Z</time>
      </trkpt>
      <trkpt lat="44.89246" lon="0.90063">
        <ele>60</ele>
        <time>2019-02-03T03:16:00.000Z</time>
      </trkpt>
      <trkpt lat="44.89284" lon="0.90138">
        <ele>60</ele>
        <time>2019-02-03T03:17:00.000Z</time>
      </trkpt>
      <trkpt lat="44.89364" lon="0.90266">
        <ele>61</ele>
        <time>2019-02-03T03:18:00.000Z</time>
      </trkpt>
      <trkpt lat="44.89425" lon="0.90328">
        <ele>60</ele>
        <time>2019-02-03T03:19:00.000Z</time>
      </trkpt>
      <trkpt lat="44.89503" lon="0.90361">
        <ele>64</ele>
        <time>2019-02-03T03:20:00.000Z</time>
      </trkpt>
      <trkpt lat="44.89548" lon="0.90433">
        <ele>64</ele>
        <time>2019-02-03T03:21:00.000Z</time>
      </trkpt>
      <trkpt lat="44.89599" lon="0.90482">
        <ele>65</ele>
        <time>2019-02-03T03:22:00.000Z</time>
      </trkpt>
      <trkpt lat="44.89668" lon="0.90536">
        <ele>66</ele>
        <time>2019-02-03T03:23:00.000Z</time>
      </trkpt>
      <trkpt lat="44.89729" lon="0.90594">
        <ele>67</ele>
        <time>2019-02-03T03:24:00.000Z</time>
      </trkpt>
      <trkpt lat="44.89798" lon="0.90666">
        <ele>68</ele>
        <time>2019-02-03T03:25:00.000Z</time>
      </trkpt>
      <trkpt lat="44.89861" lon="0.90735">
        <ele>68</ele>
        <time>2019-02-03T03:26:00.000Z</time>
      </trkpt>
      <trkpt lat="44.89928" lon="0.90787">
        <ele>68</ele>
        <time>2019-02-03T03:27:00.000Z</time>
      </trkpt>
      <trkpt lat="44.90003" lon="0.90831">
        <ele>71</ele>
        <time>2019-02-03T03:28:00.000Z</time>
      </trkpt>
      <trkpt lat="44.9007" lon="0.90875">
        <ele>72</ele>
        <time>2019-02-03T03:29:00.000Z</time>
      </trkpt>
      <trkpt lat="44.90145" lon="0.90906">
        <ele>74</ele>
        <time>2019-02-03T03:30:00.000Z</time>
      </trkpt>
      <trkpt lat="44.9021" lon="0.90897">
        <ele>75</ele>
        <time>2019-02-03T03:31:00.000Z</time>
      </trkpt>
      <trkpt lat="44.90265" lon="0.90884">
        <ele>76</ele>
        <time>2019-02-03T03:32:00.000Z</time>
      </trkpt>
      <trkpt lat="44.90334" lon="0.90882">
        <ele>75</ele>
        <time>2019-02-03T03:33:00.000Z</time>
      </trkpt>
      <trkpt lat="44.90397" lon="0.90883">
        <ele>80</ele>
        <time>2019-02-03T03:34:00.000Z</time>
      </trkpt>
      <trkpt lat="44.90483" lon="0.90918">
        <ele>86</ele>
        <time>2019-02-03T03:35:00.000Z</time>
      </trkpt>
      <trkpt lat="44.90544" lon="0.9094">
        <ele>85</ele>
        <time>2019-02-03T03:36:00.000Z</time>
      </trkpt>
      <trkpt lat="44.9062" lon="0.90969">
        <ele>86</ele>
        <time>2019-02-03T03:37:00.000Z</time>
      </trkpt>
      <trkpt lat="44.90689" lon="0.90991">
        <ele>89</ele>
        <time>2019-02-03T03:38:00.000Z</time>
      </trkpt>
      <trkpt lat="44.90747" lon="0.91006">
        <ele>92</ele>
        <time>2019-02-03T03:39:00.000Z</time>
      </trkpt>
      <trkpt lat="44.90816" lon="0.91025">
        <ele>98</ele>
        <time>2019-02-03T03:40:00.000Z</time>
      </trkpt>
      <trkpt lat="44.9085" lon="0.91061">
        <ele>97</ele>
        <time>2019-02-03T03:41:00.000Z</time>
      </trkpt>
      <trkpt lat="44.90903" lon="0.91057">
        <ele>101</ele>
        <time>2019-02-03T03:42:00.000Z</time>
      </trkpt>
      <trkpt lat="44.90958" lon="0.91088">
        <ele>99</ele>
        <time>2019-02-03T03:43:00.000Z</time>
      </trkpt>
      <trkpt lat="44.91064" lon="0.91106">
        <ele>92</ele>
        <time>2019-02-03T03:44:00.000Z</time>
      </trkpt>
      <trkpt lat="44.9124" lon="0.90967">
        <ele>72</ele>
        <time>2019-02-03T03:45:00.000Z</time>
      </trkpt>
      <trkpt lat="44.91324" lon="0.90894">
        <ele>71</ele>
        <time>2019-02-03T03:46:00.000Z</time>
      </trkpt>
      <trkpt lat="44.91313" lon="0.90995">
        <ele>66</ele>
        <time>2019-02-03T03:47:00.000Z</time>
      </trkpt>
      <trkpt lat="44.91352" lon="0.91064">
        <ele>71</ele>
        <time>2019-02-03T03:48:00.000Z</time>
      </trkpt>
      <trkpt lat="44.91295" lon="0.91114">
        <ele>69</ele>
        <time>2019-02-03T03:49:00.000Z</time>
      </trkpt>
      <trkpt lat="44.91247" lon="0.91146">
        <ele>67</ele>
        <time>2019-02-03T03:50:00.000Z</time>
      </trkpt>
      <trkpt lat="44.91241" lon="0.91203">
        <ele>70</ele>
        <time>2019-02-03T03:51:00.000Z</time>
      </trkpt>
      <trkpt lat="44.9124" lon="0.91264">
        <ele>73</ele>
        <time>2019-02-03T03:52:00.000Z</time>
      </trkpt>
      <trkpt lat="44.91264" lon="0.91301">
        <ele>72</ele>
        <time>2019-02-03T03:53:00.000Z</time>
      </trkpt>
      <trkpt lat="44.91304" lon="0.91319">
        <ele>76</ele>
        <time>2019-02-03T03:54:00.000Z</time>
      </trkpt>
      <trkpt lat="44.91351" lon="0.91337">
        <ele>82</ele>
        <time>2019-02-03T03:55:00.000Z</time>
      </trkpt>
      <trkpt lat="44.91419" lon="0.91356">
        <ele>93</ele>
        <time>2019-02-03T03:56:00.000Z</time>
      </trkpt>
      <trkpt lat="44.91529" lon="0.91468">
        <ele>90</ele>
        <time>2019-02-03T03:57:00.000Z</time>
      </trkpt>
      <trkpt lat="44.91601" lon="0.91565">
        <ele>84</ele>
        <time>2019-02-03T03:58:00.000Z</time>
      </trkpt>
      <trkpt lat="44.91679" lon="0.9167">
        <ele>89</ele>
        <time>2019-02-03T03:59:00.000Z</time>
      </trkpt>
      <trkpt lat="44.91731" lon="0.91809">
        <ele>78</ele>
        <time>2019-02-03T04:00:00.000Z</time>
      </trkpt>
      <trkpt lat="44.91775" lon="0.91923">
        <ele>78</ele>
        <time>2019-02-03T04:01:00.000Z</time>
      </trkpt>
      <trkpt lat="44.91826" lon="0.92095">
        <ele>75</ele>
        <time>2019-02-03T04:02:00.000Z</time>
      </trkpt>
      <trkpt lat="44.91835" lon="0.92265">
        <ele>72</ele>
        <time>2019-02-03T04:03:00.000Z</time>
      </trkpt>
      <trkpt lat="44.91883" lon="0.92408">
        <ele>65</ele>
        <time>2019-02-03T04:04:00.000Z</time>
      </trkpt>
      <trkpt lat="44.9187" lon="0.92536">
        <ele>57</ele>
        <time>2019-02-03T04:05:00.000Z</time>
      </trkpt>
      <trkpt lat="44.91852" lon="0.92635">
        <ele>59</ele>
        <time>2019-02-03T04:06:00.000Z</time>
      </trkpt>
      <trkpt lat="44.91832" lon="0.92701">
        <ele>62</ele>
        <time>2019-02-03T04:07:00.000Z</time>
      </trkpt>
      <trkpt lat="44.91773" lon="0.92694">
        <ele>60</ele>
        <time>2019-02-03T04:08:00.000Z</time>
      </trkpt>
      <trkpt lat="44.91713" lon="0.92659">
        <ele>60</ele>
        <time>2019-02-03T04:09:00.000Z</time>
      </trkpt>
      <trkpt lat="44.91647" lon="0.92619">
        <ele>59</ele>
        <time>2019-02-03T04:10:00.000Z</time>
      </trkpt>
      <trkpt lat="44.91668" lon="0.92491">
        <ele>57</ele>
        <time>2019-02-03T04:11:00.000Z</time>
      </trkpt>
      <trkpt lat="44.91643" lon="0.92374">
        <ele>55</ele>
        <time>2019-02-03T04:12:00.000Z</time>
      </trkpt>
      <trkpt lat="44.91588" lon="0.9231">
        <ele>55</ele>
        <time>2019-02-03T04:13:00.000Z</time>
      </trkpt>
      <trkpt lat="44.91567" lon="0.92231">
        <ele>53</ele>
        <time>2019-02-03T04:14:00.000Z</time>
      </trkpt>
      <trkpt lat="44.91566" lon="0.92125">
        <ele>54</ele>
        <time>2019-02-03T04:15:00.000Z</time>
      </trkpt>
      <trkpt lat="44.91524" lon="0.92035">
        <ele>55</ele>
        <time>2019-02-03T04:16:00.000Z</time>
      </trkpt>
      <trkpt lat="44.91485" lon="0.91961">
        <ele>56</ele>
        <time>2019-02-03T04:17:00.000Z</time>
      </trkpt>
      <trkpt lat="44.91432" lon="0.91917">
        <ele>56</ele>
        <time>2019-02-03T04:18:00.000Z</time>
      </trkpt>
      <trkpt lat="44.91364" lon="0.91872">
        <ele>55</ele>
        <time>2019-02-03T04:19:00.000Z</time>
      </trkpt>
      <trkpt lat="44.91304" lon="0.91803">
        <ele>55</ele>
        <time>2019-02-03T04:20:00.000Z</time>
      </trkpt>
      <trkpt lat="44.91233" lon="0.91732">
        <ele>57</ele>
        <time>2019-02-03T04:21:00.000Z</time>
      </trkpt>
      <trkpt lat="44.91192" lon="0.91754">
        <ele>57</ele>
        <time>2019-02-03T04:22:00.000Z</time>
      </trkpt>
      <trkpt lat="44.91143" lon="0.91799">
        <ele>56</ele>
        <time>2019-02-03T04:23:00.000Z</time>
      </trkpt>
      <trkpt lat="44.91136" lon="0.91738">
        <ele>56</ele>
        <time>2019-02-03T04:24:00.000Z</time>
      </trkpt>
      <trkpt lat="44.91179" lon="0.91669">
        <ele>57</ele>
        <time>2019-02-03T04:25:00.000Z</time>
      </trkpt>
      <trkpt lat="44.91181" lon="0.91648">
        <ele>57</ele>
        <time>2019-02-03T04:26:00.000Z</time>
      </trkpt>
      <trkpt lat="44.91212" lon="0.91613">
        <ele>57</ele>
        <time>2019-02-03T04:27:00.000Z</time>
      </trkpt>
      <trkpt lat="44.91206" lon="0.91627">
        <ele>57</ele>
        <time>2019-02-03T04:28:00.000Z</time>
      </trkpt>
      <trkpt lat="44.91198" lon="0.91634">
        <ele>57</ele>
        <time>2019-02-03T04:29:00.000Z</time>
      </trkpt>
      <trkpt lat="44.91184" lon="0.91635">
        <ele>57</ele>
        <time>2019-02-03T04:30:00.000Z</time>
      </trkpt>
      <trkpt lat="44.91223" lon="0.91505">
        <ele>56</ele>
        <time>2019-02-03T04:31:00.000Z</time>
      </trkpt>
      <trkpt lat="44.91218" lon="0.9145">
        <ele>57</ele>
        <time>2019-02-03T04:32:00.000Z</time>
      </trkpt>
      <trkpt lat="44.91186" lon="0.91428">
        <ele>59</ele>
        <time>2019-02-03T04:33:00.000Z</time>
      </trkpt>
    </trkseg>
  </trk>
</gpx>